[[{"header":{"parameterUnit":"m.s-1","parameterCategory":1,"la1":30.6,"la2":29.2853,"lo1":-89.7004,"lo2":-87.6739,"dx":0.0162,"dy":0.0183,"nx":112,"ny":82,"refTime":"2022-12-20T06:00:00:Z","depth":0,"parameterNumber":2,"parameterNumberName":"U-component_of_WINDS"},"data":[0.0,0.0,0.0,0.0,0.0,0.0,0.0,0.0,0.0,0.0,0.0,0.0,0.0,0.0,0.0,0.0,0.0,0.0,0.0,0.0,0.0,0.0,0.0,0.0,0.0,0.0,0.0,0.0,0.0,0.0,0.0,0.0,0.0,0.0,0.0,0.0,0.0,0.0,0.0,0.0,0.0,0.0,0.0,0.0,0.0,0.0,0.0,0.0,0.0,0.0,0.0,0.0,0.0,0.0,0.0,0.0,0.0,0.0,0.0,0.0,0.0,0.0,0.0,0.0,0.0,0.0,0.0,0.0,0.0,0.0,0.0,0.0,0.0,0.0,0.0,0.0,0.0,0.0,0.0,0.0,0.0,0.0,0.0,0.0,0.0,0.0,0.0,0.0,0.0,0.0,0.0,3.9975,4.0176,4.0348,4.0463,4.0387,4.0348,4.0501,0.0,0.0,0.0,0.0,0.0,0.0,0.0,0.0,0.0,0.0,0.0,0.0,0.0,0.0,0.0,0.0,0.0,0.0,0.0,0.0,0.0,0.0,0.0,0.0,0.0,0.0,0.0,0.0,0.0,0.0,0.0,0.0,0.0,0.0,0.0,0.0,0.0,0.0,0.0,0.0,0.0,0.0,0.0,0.0,0.0,0.0,0.0,0.0,0.0,0.0,0.0,0.0,0.0,0.0,0.0,0.0,0.0,0.0,0.0,0.0,0.0,0.0,0.0,0.0,0.0,0.0,0.0,0.0,0.0,0.0,0.0,0.0,0.0,0.0,0.0,0.0,0.0,0.0,0.0,0.0,0.0,0.0,0.0,0.0,0.0,0.0,0.0,0.0,0.0,0.0,0.0,0.0,0.0,0.0,0.0,0.0,0.0,0.0,0.0,0.0,0.0,0.0,0.0,0.0,3.9996,4.0196,4.0291,4.0578,4.1266,4.0692,4.0578,4.1266,0.0,0.0,0.0,0.0,0.0,0.0,0.0,0.0,0.0,0.0,0.0,0.0,0.0,0.0,0.0,0.0,0.0,0.0,0.0,0.0,0.0,0.0,0.0,0.0,0.0,0.0,0.0,0.0,0.0,0.0,0.0,0.0,0.0,0.0,0.0,0.0,0.0,0.0,0.0,0.0,0.0,0.0,0.0,0.0,0.0,0.0,0.0,0.0,0.0,0.0,0.0,0.0,0.0,0.0,0.0,0.0,0.0,0.0,0.0,0.0,0.0,0.0,0.0,0.0,0.0,0.0,0.0,0.0,0.0,0.0,0.0,0.0,0.0,0.0,0.0,0.0,0.0,0.0,0.0,0.0,0.0,0.0,0.0,0.0,0.0,0.0,0.0,0.0,0.0,0.0,0.0,0.0,0.0,0.0,0.0,0.0,0.0,0.0,0.0,0.0,0.0,0.0,0.0,4.0874,4.151,4.1628,4.2488,4.3176,4.352,4.2374,4.1991,4.2794,4.0883,0.0,0.0,0.0,0.0,0.0,0.0,0.0,0.0,0.0,0.0,0.0,0.0,0.0,0.0,0.0,0.0,0.0,0.0,0.0,0.0,0.0,0.0,0.0,0.0,0.0,0.0,0.0,0.0,0.0,0.0,0.0,0.0,0.0,0.0,0.0,0.0,0.0,0.0,0.0,0.0,0.0,0.0,0.0,0.0,0.0,0.0,0.0,0.0,0.0,0.0,0.0,0.0,0.0,0.0,0.0,0.0,0.0,0.0,0.0,0.0,0.0,0.0,0.0,0.0,0.0,0.0,0.0,0.0,0.0,0.0,0.0,0.0,0.0,0.0,0.0,0.0,0.0,0.0,0.0,0.0,0.0,0.0,0.0,0.0,0.0,0.0,0.0,0.0,0.0,0.0,0.0,0.0,0.0,0.0,0.0,0.0,0.0,0.0,0.0,0.0,0.0,0.0,4.2258,4.2657,4.3329,4.436,4.5086,4.5277,4.4131,4.3558,4.3978,4.203,0.0,0.0,0.0,0.0,0.0,0.0,0.0,0.0,0.0,0.0,0.0,0.0,0.0,0.0,0.0,0.0,0.0,0.0,0.0,0.0,0.0,0.0,0.0,0.0,0.0,0.0,0.0,0.0,0.0,0.0,0.0,0.0,0.0,0.0,0.0,0.0,0.0,0.0,0.0,0.0,0.0,0.0,0.0,0.0,0.0,0.0,0.0,0.0,0.0,0.0,0.0,0.0,0.0,0.0,0.0,0.0,0.0,0.0,0.0,0.0,0.0,0.0,0.0,0.0,0.0,0.0,0.0,0.0,0.0,0.0,0.0,0.0,0.0,0.0,0.0,0.0,0.0,0.0,0.0,0.0,0.0,0.0,0.0,0.0,0.0,0.0,0.0,0.0,0.0,0.0,0.0,0.0,0.0,0.0,0.0,0.0,0.0,0.0,0.0,0.0,0.0,0.0,4.2324,4.2243,4.4836,4.4513,4.4437,4.5239,4.5201,4.4781,4.4055,4.3138,0.0,0.0,0.0,0.0,0.0,0.0,0.0,0.0,0.0,0.0,0.0,0.0,0.0,0.0,0.0,0.0,0.0,0.0,0.0,0.0,0.0,0.0,0.0,0.0,0.0,0.0,0.0,0.0,0.0,0.0,0.0,0.0,0.0,0.0,0.0,0.0,0.0,0.0,0.0,0.0,0.0,0.0,0.0,0.0,0.0,0.0,0.0,0.0,0.0,0.0,0.0,0.0,0.0,0.0,0.0,0.0,0.0,0.0,0.0,0.0,0.0,0.0,0.0,0.0,0.0,0.0,0.0,0.0,0.0,0.0,0.0,0.0,0.0,0.0,0.0,0.0,0.0,0.0,0.0,0.0,0.0,0.0,0.0,0.0,0.0,0.0,0.0,0.0,0.0,0.0,0.0,0.0,0.0,0.0,0.0,0.0,0.0,0.0,0.0,0.0,0.0,0.0,4.445,4.5497,0.0,4.7188,4.8067,4.8372,4.6959,4.5927,4.5583,0.0,0.0,0.0,0.0,0.0,0.0,0.0,0.0,0.0,0.0,0.0,0.0,0.0,0.0,0.0,0.0,0.0,0.0,0.0,0.0,0.0,0.0,0.0,0.0,0.0,0.0,0.0,0.0,0.0,0.0,0.0,0.0,0.0,0.0,0.0,0.0,0.0,0.0,0.0,0.0,0.0,0.0,0.0,0.0,0.0,0.0,0.0,0.0,0.0,0.0,0.0,0.0,0.0,0.0,0.0,0.0,0.0,0.0,0.0,0.0,0.0,0.0,0.0,0.0,0.0,0.0,0.0,0.0,0.0,0.0,0.0,0.0,0.0,0.0,0.0,0.0,0.0,0.0,0.0,0.0,0.0,0.0,0.0,0.0,0.0,0.0,0.0,0.0,0.0,0.0,0.0,0.0,0.0,0.0,0.0,0.0,0.0,0.0,0.0,0.0,0.0,0.0,4.3461,4.5583,4.7073,0.0,4.864,4.971,5.0245,4.822,4.7035,4.7302,0.0,0.0,0.0,0.0,0.0,0.0,0.0,0.0,0.0,0.0,0.0,0.0,0.0,0.0,0.0,0.0,0.0,0.0,0.0,0.0,0.0,0.0,0.0,0.0,0.0,0.0,0.0,0.0,0.0,0.0,0.0,0.0,0.0,0.0,0.0,0.0,0.0,0.0,0.0,0.0,0.0,0.0,0.0,0.0,0.0,0.0,0.0,0.0,0.0,0.0,0.0,0.0,0.0,0.0,0.0,0.0,0.0,0.0,0.0,0.0,0.0,0.0,0.0,0.0,0.0,0.0,0.0,0.0,0.0,0.0,0.0,0.0,0.0,0.0,0.0,0.0,0.0,0.0,0.0,0.0,0.0,0.0,0.0,0.0,0.0,0.0,0.0,0.0,0.0,0.0,0.0,0.0,0.0,0.0,0.0,0.0,0.0,0.0,0.0,0.0,0.0,0.0,4.4972,4.5316,4.6309,4.8831,4.8334,4.8525,5.0168,4.8754,4.8181,0.0,0.0,0.0,0.0,0.0,0.0,0.0,0.0,0.0,0.0,0.0,0.0,0.0,0.0,0.0,0.0,0.0,0.0,0.0,0.0,0.0,0.0,0.0,0.0,0.0,0.0,0.0,0.0,0.0,0.0,0.0,0.0,0.0,0.0,0.0,0.0,0.0,0.0,0.0,0.0,0.0,0.0,0.0,0.0,0.0,0.0,0.0,0.0,0.0,0.0,0.0,0.0,0.0,0.0,0.0,0.0,0.0,0.0,0.0,0.0,0.0,0.0,0.0,0.0,0.0,0.0,0.0,0.0,0.0,0.0,0.0,0.0,0.0,0.0,0.0,0.0,0.0,0.0,0.0,0.0,0.0,0.0,0.0,0.0,0.0,0.0,0.0,0.0,0.0,0.0,0.0,0.0,0.0,0.0,0.0,0.0,0.0,0.0,0.0,0.0,0.0,0.0,0.0,0.0,4.7226,4.8258,4.9022,4.9366,4.9748,5.0245,4.8754,4.7646,4.7302,0.0,0.0,0.0,0.0,0.0,0.0,0.0,0.0,0.0,0.0,0.0,0.0,0.0,0.0,0.0,0.0,0.0,0.0,0.0,0.0,0.0,0.0,0.0,0.0,0.0,0.0,0.0,0.0,0.0,0.0,0.0,0.0,0.0,0.0,0.0,0.0,0.0,0.0,0.0,0.0,0.0,0.0,0.0,0.0,0.0,0.0,0.0,0.0,0.0,0.0,0.0,0.0,0.0,0.0,0.0,0.0,0.0,0.0,0.0,0.0,0.0,0.0,0.0,0.0,0.0,0.0,0.0,0.0,0.0,0.0,0.0,0.0,0.0,0.0,0.0,0.0,0.0,0.0,0.0,0.0,0.0,0.0,0.0,0.0,0.0,0.0,0.0,0.0,0.0,0.0,0.0,0.0,0.0,0.0,0.0,0.0,0.0,0.0,0.0,0.0,0.0,0.0,4.6271,4.8028,4.9213,4.9519,5.0321,5.0971,5.1276,4.948,4.8372,4.8525,0.0,0.0,0.0,0.0,0.0,0.0,0.0,0.0,0.0,0.0,0.0,0.0,0.0,0.0,0.0,0.0,0.0,0.0,0.0,0.0,0.0,0.0,0.0,0.0,0.0,0.0,0.0,0.0,0.0,0.0,0.0,0.0,0.0,0.0,0.0,0.0,0.0,0.0,0.0,0.0,0.0,0.0,0.0,0.0,0.0,0.0,0.0,0.0,0.0,0.0,0.0,0.0,0.0,0.0,0.0,0.0,0.0,0.0,0.0,0.0,0.0,0.0,0.0,0.0,0.0,0.0,0.0,0.0,0.0,0.0,0.0,0.0,0.0,0.0,0.0,0.0,0.0,0.0,0.0,0.0,0.0,0.0,0.0,0.0,0.0,0.0,0.0,0.0,0.0,0.0,0.0,0.0,0.0,0.0,0.0,0.0,0.0,0.0,0.0,0.0,0.0,0.0,4.6538,4.8181,4.948,5.0206,5.1009,5.1773,5.2499,5.0512,4.9862,5.1391,0.0,0.0,0.0,0.0,0.0,0.0,0.0,0.0,0.0,0.0,0.0,0.0,0.0,0.0,0.0,0.0,0.0,0.0,0.0,0.0,0.0,0.0,0.0,0.0,0.0,0.0,0.0,0.0,0.0,0.0,0.0,0.0,0.0,0.0,0.0,0.0,0.0,0.0,0.0,0.0,0.0,0.0,0.0,0.0,0.0,0.0,0.0,0.0,0.0,0.0,0.0,0.0,0.0,0.0,0.0,0.0,0.0,0.0,0.0,0.0,4.0731,0.0,0.0,0.0,0.0,0.0,0.0,0.0,0.0,0.0,0.0,0.0,0.0,0.0,0.0,0.0,0.0,0.0,0.0,0.0,0.0,0.0,0.0,0.0,0.0,0.0,0.0,0.0,0.0,0.0,0.0,0.0,0.0,0.0,0.0,0.0,0.0,0.0,0.0,0.0,0.0,0.0,4.8334,4.9404,5.0092,5.0283,5.0474,5.0665,5.0818,5.0359,5.0206,5.055,0.0,0.0,0.0,0.0,0.0,0.0,0.0,0.0,0.0,0.0,0.0,0.0,0.0,0.0,0.0,0.0,0.0,0.0,0.0,0.0,0.0,0.0,0.0,0.0,0.0,0.0,0.0,0.0,0.0,0.0,0.0,0.0,0.0,0.0,0.0,0.0,0.0,0.0,0.0,0.0,0.0,0.0,0.0,0.0,0.0,0.0,0.0,0.0,0.0,0.0,0.0,0.0,0.0,0.0,0.0,0.0,0.0,0.0,0.0,0.0,0.0,4.2488,0.0,0.0,0.0,0.0,0.0,0.0,0.0,0.0,0.0,0.0,0.0,0.0,0.0,0.0,0.0,0.0,0.0,0.0,0.0,0.0,0.0,0.0,0.0,0.0,0.0,0.0,0.0,0.0,0.0,0.0,0.0,0.0,0.0,0.0,0.0,0.0,0.0,0.0,0.0,0.0,4.9404,5.0397,5.1085,5.1467,5.227,5.2766,5.2766,5.1964,5.1505,5.1505,4.9977,0.0,0.0,0.0,0.0,0.0,0.0,0.0,0.0,0.0,0.0,0.0,0.0,0.0,0.0,0.0,0.0,0.0,0.0,0.0,0.0,0.0,0.0,0.0,0.0,0.0,0.0,0.0,0.0,0.0,0.0,0.0,0.0,0.0,0.0,0.0,0.0,0.0,0.0,0.0,0.0,0.0,0.0,0.0,0.0,0.0,0.0,0.0,0.0,0.0,0.0,0.0,0.0,0.0,0.0,0.0,4.3443,4.3443,4.352,4.3749,4.5277,4.4819,4.31,0.0,0.0,0.0,0.0,0.0,0.0,0.0,0.0,0.0,0.0,0.0,0.0,0.0,0.0,0.0,0.0,0.0,0.0,0.0,0.0,0.0,0.0,0.0,0.0,0.0,4.4895,4.4284,0.0,0.0,0.0,0.0,0.0,0.0,0.0,0.0,0.0,0.0,0.0,0.0,5.0054,5.1314,5.2231,5.2728,5.4104,5.4944,5.4944,5.376,5.3034,5.3034,5.0971,4.9748,0.0,0.0,0.0,0.0,0.0,0.0,0.0,0.0,0.0,0.0,0.0,0.0,0.0,0.0,0.0,0.0,0.0,0.0,0.0,0.0,0.0,0.0,0.0,0.0,0.0,0.0,0.0,0.0,0.0,0.0,0.0,0.0,3.4776,3.5152,0.0,0.0,0.0,0.0,0.0,0.0,0.0,0.0,0.0,0.0,0.0,0.0,0.0,0.0,4.3825,4.3864,4.3902,4.4017,4.4666,4.5354,4.6003,4.6003,4.6424,4.7188,4.8181,0.0,4.3825,4.3329,0.0,0.0,0.0,0.0,0.0,0.0,0.0,0.0,0.0,0.0,0.0,0.0,0.0,0.0,0.0,0.0,0.0,0.0,0.0,0.0,0.0,0.0,4.6729,4.822,4.8411,4.8334,0.0,4.6271,4.4169,4.4169,0.0,0.0,0.0,0.0,0.0,0.0,0.0,0.0,5.0359,5.2346,5.3531,5.2881,5.2996,5.3148,5.3148,5.3645,5.3913,5.3913,5.2919,5.2308,5.2308,5.0818,0.0,0.0,0.0,0.0,0.0,0.0,0.0,0.0,0.0,0.0,0.0,0.0,0.0,0.0,0.0,0.0,0.0,0.0,0.0,0.0,0.0,0.0,0.0,0.0,0.0,0.0,0.0,0.0,0.0,3.5878,3.7139,3.8553,3.9661,4.0692,0.0,0.0,0.0,0.0,0.0,0.0,0.0,0.0,0.0,4.5239,4.501,4.5048,4.5392,4.6385,4.6615,4.6156,4.7035,4.7341,4.7226,4.7226,4.7455,4.7837,4.822,4.7532,4.6233,4.7302,4.7876,4.8105,0.0,0.0,0.0,0.0,0.0,0.0,4.6462,0.0,0.0,0.0,0.0,0.0,0.0,0.0,0.0,0.0,0.0,0.0,0.0,0.0,0.0,4.8907,4.9098,4.9213,4.9671,4.8984,4.7876,0.0,4.7111,4.7952,4.7952,0.0,0.0,0.0,0.0,0.0,5.2346,5.3836,5.4868,5.4906,5.5365,5.567,5.567,5.5556,5.5326,5.4868,5.4027,5.3301,5.2805,5.1658,5.0512,0.0,0.0,0.0,0.0,0.0,0.0,0.0,0.0,0.0,0.0,0.0,0.0,0.0,0.0,0.0,0.0,0.0,0.0,0.0,0.0,0.0,0.0,0.0,0.0,0.0,0.0,0.0,0.0,3.8018,3.9393,4.1266,4.1342,4.1915,0.0,0.0,0.0,0.0,0.0,0.0,4.5545,4.501,4.5048,4.5927,4.6538,4.6844,4.6844,4.8334,4.8754,4.8143,4.8984,4.9175,4.8793,4.8793,4.8869,4.9098,4.9328,4.9404,4.948,5.0283,5.0397,5.0054,5.0703,5.0703,0.0,4.9404,4.9098,4.8984,4.8105,4.7799,4.7799,4.7799,0.0,4.8143,4.8143,0.0,0.0,0.0,0.0,4.9289,4.8869,0.0,4.9862,5.0283,5.0359,5.0588,5.1429,5.227,5.2079,0.0,4.9442,5.0054,5.0054,0.0,0.0,0.0,0.0,5.3339,5.4562,5.5517,5.6282,5.6855,5.7504,5.7886,5.7886,5.7313,5.6664,5.6091,5.5212,5.4371,5.3492,5.269,5.204,0.0,0.0,0.0,0.0,0.0,0.0,0.0,0.0,0.0,0.0,0.0,0.0,0.0,0.0,0.0,0.0,0.0,0.0,0.0,0.0,0.0,0.0,0.0,0.0,0.0,0.0,0.0,0.0,0.0,0.0,4.1495,4.287,0.0,0.0,0.0,0.0,4.4131,4.4781,4.5583,4.6385,4.6385,4.6768,4.7646,4.7723,4.7723,4.7723,4.864,4.906,4.9022,4.9862,5.0665,5.1429,5.1429,5.1849,5.2575,5.3416,5.3798,5.3492,4.9595,4.8449,4.9137,4.9213,4.9671,5.0206,4.9404,4.9098,4.8984,4.8105,4.7799,4.7799,4.7799,4.8372,4.9022,4.9022,4.9557,0.0,0.0,5.0206,5.0436,5.12,5.1429,5.1888,5.3454,5.3836,5.4104,5.4982,5.5785,5.5365,0.0,5.2079,5.2614,5.2614,0.0,0.0,5.3951,5.5326,5.6358,5.6473,5.7237,5.7772,5.781,5.7886,5.7886,5.7886,5.7848,5.781,5.7772,5.6969,5.6091,5.5288,5.4448,5.3225,5.162,5.0665,0.0,0.0,0.0,0.0,0.0,0.0,0.0,0.0,0.0,0.0,0.0,0.0,0.0,0.0,0.0,0.0,0.0,0.0,0.0,0.0,0.0,0.0,0.0,0.0,0.0,0.0,0.0,0.0,4.3749,4.3978,0.0,0.0,4.543,4.5927,4.5621,4.6424,4.7035,4.7341,4.7876,4.8334,4.864,4.9671,5.0245,5.0245,5.162,5.204,5.1467,5.2346,5.2919,5.3225,5.3225,5.3683,5.4486,5.4791,5.4944,5.483,5.3301,5.2537,5.2308,5.2308,5.2155,5.1849,5.1582,5.1467,5.1429,5.1123,5.1009,5.1009,5.1009,5.1238,5.1467,5.1467,5.1658,5.204,5.2575,5.2766,5.2957,5.3836,5.4065,5.4333,5.5441,5.5708,5.5938,5.6816,5.7237,5.7084,5.5899,5.5441,5.525,5.525,5.5479,5.5899,5.6473,5.7046,5.7619,5.8154,5.8498,5.888,5.9453,5.9491,5.9491,5.9491,5.9491,5.9262,5.8727,5.8383,5.7848,5.7046,5.6167,5.5174,5.4065,5.3187,5.2079,0.0,0.0,0.0,0.0,0.0,0.0,0.0,0.0,0.0,0.0,0.0,0.0,0.0,0.0,0.0,0.0,0.0,0.0,0.0,0.0,0.0,0.0,0.0,0.0,0.0,0.0,4.3405,4.5086,4.5048,4.5086,4.566,4.6462,4.7073,4.7379,4.7914,4.8487,4.906,4.9633,5.0054,5.0321,5.1429,5.2155,5.2461,5.3836,5.4371,5.4065,5.4982,5.5365,5.5365,5.5365,5.5708,5.6243,5.6243,5.6243,5.6243,5.6243,5.5899,5.5326,5.4753,5.418,5.3683,5.3683,5.3683,5.3683,5.3683,5.3683,5.3683,5.3683,5.3874,5.4065,5.4065,5.4295,5.4639,5.5212,5.5365,5.5517,5.6091,5.6243,5.6396,5.6893,5.7046,5.7275,5.8116,5.8307,5.8383,5.8689,5.781,5.7046,5.7046,5.7275,5.7657,5.823,5.8574,5.8956,5.9453,5.9529,5.9759,6.0332,6.0408,6.0408,6.0408,6.0408,6.0141,5.9568,5.9529,5.9185,5.8345,5.7734,5.7084,5.6243,5.5403,5.4104,5.2461,0.0,0.0,0.0,0.0,0.0,0.0,0.0,0.0,0.0,0.0,0.0,0.0,0.0,0.0,0.0,0.0,0.0,0.0,0.0,0.0,0.0,0.0,0.0,4.4017,4.4781,4.5316,4.5316,4.6042,4.6538,4.6577,4.7379,4.8258,4.9098,4.9175,4.9901,5.1544,5.1697,5.2079,5.2843,5.2919,5.3339,5.4218,5.5059,5.5861,5.6625,5.7504,5.7925,5.7925,5.7925,5.7963,5.7963,5.7963,5.7963,5.7963,5.7963,5.7963,5.781,5.6129,5.5479,5.5479,5.5479,5.5479,5.5479,5.5479,5.5479,5.5479,5.5479,5.6014,5.6625,5.6625,5.7237,5.7925,5.7925,5.7925,5.7925,5.7963,5.7963,5.7963,5.7963,5.7963,5.8192,5.8956,5.9147,5.9415,6.0255,5.9109,5.8001,5.7963,5.8612,5.9147,5.9147,5.9873,0.0,6.0408,6.0408,6.0446,6.0446,6.0446,6.0485,6.0485,6.0485,6.0446,6.0446,6.0446,6.0064,5.9185,5.9147,5.8765,5.7963,5.7084,5.5823,5.418,0.0,0.0,0.0,0.0,0.0,0.0,0.0,0.0,0.0,0.0,0.0,0.0,0.0,0.0,0.0,0.0,0.0,0.0,0.0,0.0,0.0,0.0,4.4704,4.4093,4.5239,4.6156,4.6156,4.692,4.7685,4.8334,4.9137,4.9977,5.0856,5.1467,5.1964,5.2461,5.3683,5.4448,5.4677,5.5861,5.6625,5.6855,5.7084,5.7313,5.7542,5.7772,5.823,5.8765,5.8765,5.9109,5.972,5.972,5.972,5.972,5.972,5.972,5.9529,5.7886,5.7199,5.7199,5.7199,5.7199,5.7199,5.7199,5.7199,5.7199,5.7199,5.7351,5.7542,5.7542,5.7695,5.8001,5.8612,5.8765,5.8918,5.9529,5.972,5.972,5.972,5.972,5.9759,5.9988,6.0026,6.0293,6.1096,6.0905,6.0408,5.9797,5.9911,6.0026,6.0026,0.0,0.0,6.0408,6.0905,6.1287,6.1287,6.186,6.2204,6.2204,6.2204,6.1936,0.0,6.1287,6.0905,6.0064,6.0026,5.9644,5.8803,5.7963,5.7008,0.0,0.0,0.0,0.0,0.0,0.0,0.0,0.0,0.0,0.0,0.0,0.0,0.0,0.0,0.0,0.0,0.0,0.0,0.0,0.0,0.0,0.0,4.6118,4.5736,4.5621,4.6424,4.7188,4.7532,4.8334,4.9175,5.0054,5.0894,5.1849,5.311,5.3607,5.418,5.4906,5.5899,5.6434,5.6434,5.739,5.8077,5.8383,5.8421,5.8574,5.8956,5.8956,5.9185,5.9644,5.9644,5.9911,0.0,6.0408,6.0408,6.0408,6.0408,6.0408,0.0,0.0,0.0,0.0,0.0,5.8956,5.8956,5.8956,5.8956,5.8956,5.8956,5.8956,5.8956,5.8956,5.8956,5.9033,5.9491,5.9644,5.9835,6.0676,6.0905,6.0981,6.1363,6.144,6.144,6.144,6.144,6.1593,6.2051,0.0,0.0,6.1516,6.144,6.144,6.144,6.144,6.144,0.0,6.186,6.2128,6.2128,6.2586,6.2892,6.2892,6.2892,0.0,0.0,0.0,6.1784,6.0943,0.0,0.0,0.0,0.0,0.0,0.0,0.0,0.0,0.0,5.376,5.3378,0.0,0.0,0.0,0.0,0.0,0.0,0.0,0.0,0.0,0.0,0.0,0.0,0.0,0.0,0.0,0.0,4.6882,4.7188,4.799,4.8258,4.8602,4.9175,5.0015,5.0971,5.1926,5.2652,5.3798,5.5556,5.567,5.632,0.0,0.0,0.0,0.0,0.0,5.8536,5.9262,5.9262,5.9644,6.0408,6.0408,6.0408,6.0408,6.0485,6.0523,6.0523,6.0637,6.0676,6.0676,6.0676,6.0676,6.0637,6.0446,6.0408,6.0408,6.0408,6.0446,0.0,0.0,0.0,0.0,6.0676,6.0676,6.0676,6.0676,6.0676,6.0676,6.0676,6.0676,6.0828,6.1554,6.1745,6.1936,6.2739,6.2892,6.2892,6.2892,6.2892,6.293,6.3045,6.3045,6.3083,6.3159,6.3045,6.2892,6.2892,6.2892,0.0,6.2892,6.3006,6.3045,6.3045,0.0,0.0,6.3197,6.3197,6.3159,6.3045,6.2968,6.2548,6.1784,6.1745,6.1402,6.0676,6.0676,6.0293,5.9529,5.9453,5.9033,5.8268,5.6511,5.567,0.0,0.0,0.0,0.0,0.0,0.0,0.0,0.0,0.0,0.0,0.0,0.0,0.0,0.0,0.0,4.8334,4.9137,4.9633,4.9786,5.0971,5.1391,5.0206,5.1391,5.2957,5.4524,5.483,5.5594,5.7275,5.7428,5.7542,5.7886,5.8536,0.0,5.888,5.9529,5.9988,6.0141,6.0141,6.0217,6.0408,0.0,0.0,6.0408,6.1058,6.1363,6.1402,6.2128,6.2433,6.2433,6.2433,6.2433,6.228,6.0943,6.0408,6.0408,6.0408,6.079,6.1363,6.1363,6.1822,6.2433,6.2433,6.2433,6.2433,6.2433,6.2433,0.0,6.2433,6.2433,6.2471,6.2624,6.2662,6.2701,6.2853,6.2892,6.2892,6.2892,6.2892,6.3121,6.3809,6.3962,6.4153,6.4802,6.3809,6.2892,6.2892,6.2892,6.2892,6.2892,6.3503,6.3962,6.3962,6.4535,6.4917,6.4917,6.4917,6.4649,6.4,6.3274,6.2815,6.2662,6.2662,6.2586,6.2433,6.2433,6.2319,6.2166,6.1478,6.1058,6.0828,5.8498,5.7428,0.0,0.0,0.0,0.0,0.0,0.0,0.0,0.0,0.0,0.0,0.0,4.6309,0.0,0.0,4.8678,4.9557,5.0397,5.1085,5.1505,5.3034,5.3798,5.2957,5.3607,5.4753,5.6473,5.6664,5.716,5.8421,5.8498,5.8689,5.9109,5.9529,5.9759,5.9759,6.0179,6.0408,6.0408,6.079,6.0981,6.1019,6.144,6.1631,6.1669,6.2089,6.2242,6.228,6.2701,6.2892,6.2892,6.2892,6.2892,6.2815,6.1975,6.1631,6.1631,6.1631,6.1898,6.2242,6.2242,6.2548,6.2892,6.2892,6.2892,6.2892,6.2892,6.2892,6.2892,6.2892,6.2892,6.3006,6.3427,6.3541,6.3656,6.4076,6.4496,6.4802,6.4802,6.5108,6.5528,6.5948,6.6025,6.6178,6.656,6.5948,6.5261,6.4879,6.5146,6.5413,6.5413,6.5757,6.6025,6.6025,6.6407,6.6636,6.6636,6.6636,6.6483,6.6063,6.5261,6.4611,6.4191,6.377,6.335,6.293,6.2892,6.2892,6.2892,6.2471,6.2242,6.2204,6.0981,6.0179,0.0,0.0,0.0,0.0,0.0,0.0,0.0,0.0,4.6156,4.7532,4.7799,4.8105,4.9137,4.9862,5.0397,5.0741,5.1658,5.2575,5.3225,5.4791,5.5938,5.6091,5.5976,5.6473,5.8001,5.8116,5.8459,5.93,5.9338,5.9644,6.037,6.0408,6.0446,6.0637,6.0637,6.0714,6.0867,6.1516,6.186,6.186,6.2548,6.2892,6.293,6.3083,6.3159,6.3159,6.3312,6.3388,6.3388,6.3388,6.3388,6.3388,6.3388,6.3503,6.3579,6.3083,6.3006,6.3159,6.3159,6.3236,6.3388,6.3388,6.3388,6.3388,6.3388,6.3503,6.3656,6.3656,6.377,6.4038,6.4726,6.4917,6.507,6.5719,6.6407,6.6942,6.6942,6.7439,6.7897,6.7897,6.7897,6.7897,6.7897,6.805,6.7859,6.7056,6.7477,6.7897,6.7897,6.7897,6.7897,6.7897,6.7897,6.7897,6.7897,6.7897,6.7897,6.7897,6.7286,6.6636,6.591,6.5261,6.4573,6.3885,6.3885,6.3885,6.3885,6.3732,6.3656,6.3618,6.3465,6.2853,4.7204,0.0,0.0,4.5468,4.5851,4.6385,0.0,0.0,4.757,4.7761,4.7799,4.8296,4.9862,5.0245,5.0779,5.227,5.3913,5.5021,5.5097,5.6549,5.7886,5.8612,5.8077,5.7963,5.888,5.8994,5.9338,6.0179,6.0255,6.0293,6.037,6.0408,6.0714,6.144,6.1478,6.186,6.2624,6.2701,6.2739,6.2777,6.2853,6.2892,6.293,6.3694,6.4038,6.4076,6.4802,6.5108,6.5108,6.5108,6.5108,6.5108,6.5108,6.5605,6.5987,6.3732,6.3388,6.4038,6.4038,6.4496,6.5108,6.5108,6.5108,6.5108,6.5108,6.5681,6.6292,6.6292,6.6789,6.7362,6.7439,6.7477,6.7515,6.7591,6.7668,6.7782,6.7782,6.7821,6.7897,6.7897,6.7897,6.7897,6.7897,6.8547,6.8738,6.7897,6.7821,6.7897,6.7897,6.7897,6.7897,6.7897,6.7897,6.7897,6.7897,6.7897,6.7897,6.7897,6.7821,6.7706,6.763,6.7515,6.7439,6.7324,6.7324,6.7324,6.7324,6.6636,6.6292,6.6254,6.549,6.4267,4.6228,0.0,0.0,0.0,4.7379,4.799,4.799,4.8296,4.8678,4.9175,4.9251,4.9786,5.1467,5.2155,5.2919,0.0,5.5326,5.6282,5.6778,5.7848,5.8727,5.9071,5.9262,5.9491,5.9835,5.9873,5.9988,6.037,6.0408,6.0599,6.1058,6.1096,6.1478,6.2319,6.2357,6.2548,6.2892,6.3388,6.3656,6.3656,6.4114,6.4344,6.4382,6.4726,6.5184,6.5681,6.6522,6.6827,6.6827,6.6827,6.6827,6.6827,6.6827,6.7095,6.7209,6.5681,6.5643,6.633,6.633,6.656,6.6827,6.6827,6.6827,6.6827,6.6827,6.7095,6.74,6.74,6.763,6.7897,6.7897,6.7897,6.7897,6.7897,6.8279,6.8661,6.8661,6.9005,6.9349,6.9349,6.9349,6.9349,6.9349,6.9655,6.9769,6.9425,6.9349,6.9349,6.9349,6.9349,6.9349,6.9349,6.9349,6.9349,6.9349,6.9349,6.9349,6.9349,6.8929,6.8661,6.8661,6.8165,6.7897,6.7897,6.7897,6.7897,6.7897,6.7553,6.74,6.74,6.7018,6.6483,4.6511,0.0,0.0,4.8006,4.8258,4.8869,4.9328,4.9442,4.971,5.0779,5.1009,5.1429,5.2881,5.3874,5.4753,5.5594,5.6625,5.7504,5.8154,5.8956,5.9453,5.9453,6.0026,6.0408,6.0408,6.0408,6.0485,6.0714,6.0714,6.1096,6.1898,6.1975,6.2357,6.3236,6.3274,6.3388,6.3579,6.4229,6.4535,6.4535,6.5375,6.5757,6.5757,6.5987,6.6445,6.7056,6.763,6.7897,6.7897,6.7897,6.7897,6.7897,6.7897,6.805,6.8203,6.7591,6.7591,6.7897,6.7897,6.7897,6.7897,6.7897,6.7897,6.7897,6.7897,6.805,6.8241,6.8241,6.8432,6.8585,6.8585,6.8585,6.8585,6.8585,6.9082,6.954,6.954,6.9999,7.0419,7.0419,7.061,7.0763,7.0763,7.0954,7.1107,7.1107,7.1107,7.0954,7.0457,7.0419,7.0419,7.0419,7.0419,7.0419,7.0419,7.0419,7.0419,7.0419,6.9846,6.954,6.954,6.8929,6.8585,6.8585,6.8585,6.8585,6.8585,6.8585,6.8585,6.8585,6.8585,6.8585,4.9213,0.0,4.8869,4.8028,4.7837,4.8258,4.9901,5.0245,5.0741,5.2384,5.2728,5.2996,5.3913,5.4791,5.5632,5.6434,5.7963,5.9033,5.9071,5.9797,6.037,6.037,6.037,6.0408,0.0,6.0408,6.0714,6.1516,6.1554,6.1936,6.2815,6.2853,6.3274,6.4114,6.4153,6.4535,6.5337,6.5337,6.5375,6.5375,6.6254,6.6674,6.6713,6.7477,6.7821,6.7859,6.7897,6.7897,6.7897,6.7897,6.7897,6.7897,6.7897,6.8432,6.9158,6.912,6.8585,6.7897,6.7897,6.7897,6.7897,6.7897,6.7897,6.7897,6.7897,6.847,6.9158,6.9158,6.9731,7.0342,7.0342,7.0342,7.0342,7.0342,7.0342,7.0381,7.0381,7.0381,7.0419,7.0419,7.1068,7.1642,7.1642,7.2367,7.2902,7.2902,7.2902,7.2291,7.061,7.0419,7.0419,7.0419,7.0419,7.0419,7.0419,7.0419,7.0419,7.0419,7.0381,7.0381,7.0381,7.0342,7.0342,7.0342,7.0342,7.0342,7.0342,7.0342,7.0342,7.0342,7.0342,7.0342,4.8487,4.948,5.055,4.9671,5.0283,5.1276,5.1811,5.1964,5.227,5.3416,5.4104,5.4791,5.5594,5.6473,5.7313,5.8116,5.8727,5.93,5.9873,6.0217,6.0408,6.0408,6.0408,0.0,0.0,0.0,0.0,6.1593,6.2128,6.2853,6.3732,6.377,6.4153,6.4955,6.4993,6.5413,6.6254,6.6254,6.6522,6.7056,6.7362,6.7515,6.7515,6.8394,6.8738,6.8776,6.9349,6.9578,6.9578,6.9578,6.9578,6.9578,6.9578,6.9731,6.9999,6.9999,6.9807,6.9578,6.9578,6.9578,6.9578,6.9578,6.9578,6.9578,6.9578,6.9769,6.9999,6.9999,7.019,7.0419,7.0419,7.0419,7.0572,7.1145,7.1259,7.1412,7.1985,7.2138,7.2138,7.2138,7.2367,7.2559,7.2559,7.2788,7.2979,7.2979,7.2979,7.2788,7.2215,7.2138,7.2138,7.2138,7.2138,7.2138,7.2138,7.2138,7.2138,7.2138,7.2138,7.2138,7.2138,7.2138,7.2138,7.2138,7.2138,7.2138,7.2138,7.2138,7.2138,7.2138,7.2138,7.2138,4.9251,5.0359,5.1544,5.1276,5.2002,5.2881,5.3187,5.3263,5.3569,5.4753,5.5441,5.6091,5.6893,5.7772,5.8498,5.9033,5.9376,5.9759,6.0332,6.0408,6.0408,6.0408,6.0637,0.0,0.0,0.0,0.0,6.251,6.3045,6.3732,6.4573,6.4611,6.4993,6.5834,6.5872,6.6254,6.7133,6.7133,6.7553,6.8356,6.8356,6.8508,6.8814,6.9387,6.9616,6.9655,7.019,7.0419,7.0419,7.0419,7.0419,7.0419,7.0419,7.0419,7.0457,7.0763,7.0877,7.0839,7.0533,7.0419,7.0419,7.0419,7.0419,7.0457,7.0763,7.0877,7.0916,7.1259,7.1336,7.1336,7.1336,7.1336,7.1489,7.2024,7.2138,7.2329,7.2864,7.2979,7.2979,7.3012,7.3314,7.3505,7.3538,7.3767,7.3959,7.3959,7.3959,7.3767,7.3122,7.3046,7.3079,7.3079,7.3046,7.3046,7.3046,7.3012,7.2979,7.2979,7.2979,7.2979,7.2979,7.2979,7.2979,7.2979,7.2979,7.2979,7.2979,7.2979,7.2979,7.2979,7.2979,7.2979,5.1391,5.1658,5.1926,5.269,5.2881,5.3148,5.3989,5.4218,5.4677,5.6282,5.6664,5.6969,0.0,0.0,5.9185,5.9185,5.9873,6.0408,6.0408,6.0408,6.0408,0.0,0.0,0.0,0.0,0.0,0.0,6.4267,0.0,6.4611,6.5413,6.5452,6.5872,6.6751,6.6751,6.7133,6.7935,6.8012,6.8432,6.9273,6.9273,6.9655,7.0419,7.0419,7.0419,7.0419,7.0419,7.0419,7.0419,7.0457,7.0495,7.0495,7.0533,7.0533,7.0648,7.145,7.1756,7.1642,7.0839,7.0533,7.0533,7.0533,7.0533,7.0686,7.1527,7.1756,7.1947,7.275,7.2979,7.2979,7.2979,7.2979,7.3017,7.3055,7.3055,7.3055,7.3093,7.3132,7.3165,7.3226,7.391,7.4484,7.4549,7.5194,7.5692,7.5692,7.5692,7.5085,7.345,7.3284,7.3315,7.3315,7.3252,7.3259,7.3226,7.3161,7.3132,7.3132,7.3132,7.3132,7.3132,7.3132,7.3132,7.3132,7.3132,7.3132,7.3132,7.3132,7.3132,7.3132,7.3132,7.3132,5.1544,5.2499,5.3492,5.3722,5.4256,5.4791,5.5021,5.5517,5.6091,5.6511,5.7581,5.8536,0.0,0.0,0.0,6.0064,6.0255,0.0,6.0408,6.0408,0.0,6.1211,0.0,6.2128,6.3388,6.3923,0.0,0.0,6.507,6.5452,6.633,6.6369,6.6751,6.7553,6.7591,6.8012,6.8852,6.9464,6.9884,7.0113,7.0113,7.019,7.0419,7.0419,7.0419,7.0419,7.0419,7.0419,7.0457,7.1107,7.1374,7.1412,7.2062,7.2329,7.2367,7.2597,7.2673,7.2635,7.2406,7.2329,7.2329,7.2329,7.2329,7.2367,7.2597,7.2673,7.2711,7.2941,7.2979,7.2979,7.2979,7.2979,7.3132,7.3743,7.4002,7.4188,7.4801,7.4982,7.5015,7.5047,7.52,7.5354,7.5386,7.5577,7.5692,7.5692,7.5794,7.5641,7.5117,7.5041,7.5041,7.5041,7.5079,7.5015,7.4949,7.4954,7.492,7.4851,7.4851,7.4851,7.4851,7.4851,7.4851,7.4851,7.4851,7.4851,7.4851,7.4851,7.4851,7.4851,7.4851,7.4851,5.2499,5.3378,5.418,5.4562,5.5059,5.5479,5.5861,5.6282,5.6816,5.7542,5.8459,0.0,0.0,0.0,0.0,0.0,0.0,0.0,6.0408,6.0714,6.1096,0.0,6.228,0.0,6.4114,6.4879,6.549,0.0,6.5987,6.6178,6.6674,6.7018,6.7591,6.8432,6.847,6.8852,6.9731,7.019,7.0419,7.0419,7.0419,7.0419,7.0419,7.0419,7.061,7.0954,0.0,7.1183,7.1565,7.2062,7.2286,7.2357,7.2821,7.3012,7.3084,7.3433,7.3514,7.359,7.4006,7.4155,7.404,7.3246,7.2979,7.3055,7.3437,7.3514,7.359,7.3972,7.4121,7.4155,7.4155,7.415,7.4298,7.4757,7.4944,7.5091,7.5551,7.566,7.5692,7.5794,7.5826,7.5856,7.5856,7.5856,7.5856,7.5856,7.5925,7.5925,7.5856,7.5856,7.5856,7.5856,7.5794,7.5763,7.5666,7.5666,7.5633,7.5532,7.5566,7.5599,7.5599,7.5599,7.5599,7.5599,7.5566,7.5532,7.5532,7.5497,7.5501,7.5501,7.5501,7.5501,5.3683,5.418,5.4448,5.5212,5.5403,5.5632,5.6434,5.6702,5.7199,5.8803,0.0,5.9491,6.0255,6.0408,6.0408,6.0408,0.0,6.0408,6.0408,6.1096,6.1631,6.1745,6.3197,6.4229,6.4344,6.5796,6.6713,6.6713,6.6904,6.7018,6.7018,6.7706,6.847,6.9311,6.9349,6.9693,7.0381,7.0419,7.0419,7.0419,7.0419,7.0457,7.0572,7.0604,7.1063,7.1904,0.0,0.0,7.3051,7.3127,7.3232,7.3297,7.3352,7.3385,7.3527,7.4155,7.4389,7.4503,7.5332,7.5599,7.537,7.3849,7.3357,7.3471,7.4197,7.4389,7.4542,7.5306,7.5566,7.5599,7.5599,7.5666,7.5692,7.5692,7.5692,7.5724,7.5724,7.5724,7.5794,7.5895,7.5955,7.6015,7.6015,7.6015,7.6015,7.6015,7.6015,7.6015,7.6015,7.6015,7.6015,7.6015,7.5955,7.5864,7.5763,7.5724,7.566,7.5633,7.566,7.5692,7.5692,7.5692,7.5692,7.5692,7.5633,7.5599,7.5599,7.5497,7.5501,7.5501,7.5501,7.5501,5.3836,5.4639,5.5212,5.5365,5.5403,5.5632,5.6434,5.716,0.0,0.0,5.9682,6.0217,6.037,6.0408,6.0408,6.0408,6.0408,6.0408,6.0408,6.1096,6.186,0.0,0.0,0.0,0.0,0.0,0.0,0.0,0.0,0.0,6.8776,6.889,6.9349,7.019,7.019,7.0266,7.0419,7.0419,7.0419,7.0419,7.0522,7.0898,7.1548,7.1681,7.2172,7.2939,0.0,0.0,7.3246,7.3935,7.4242,7.4319,7.497,7.5239,7.5239,7.5392,7.5469,7.5469,7.5622,7.566,7.5622,7.5315,7.5239,7.5277,7.5392,7.5469,7.5469,7.5622,7.566,7.566,7.566,7.5692,7.5692,7.5692,7.5794,7.5864,7.5864,7.5925,7.5947,7.5985,7.6015,7.6015,7.6015,7.6015,7.6015,7.6015,7.6015,7.6015,7.6015,7.6015,7.6015,7.6015,7.6015,7.5955,7.5864,7.5864,7.5794,7.566,7.5692,7.5692,7.5692,7.5692,7.5692,7.5692,7.5633,7.5599,7.5599,7.5497,7.5501,7.5501,7.5501,7.5501,5.4409,5.5097,5.5403,5.5403,5.5403,5.5632,5.6434,5.6931,5.7581,5.8842,5.9415,5.9873,6.0332,6.0408,6.0408,6.0408,6.0408,6.0408,6.0408,6.1478,0.0,6.2853,6.4038,6.5146,0.0,0.0,0.0,0.0,0.0,0.0,0.0,6.9616,7.0031,7.0483,7.0522,7.0522,7.0522,7.0904,7.1134,7.1134,7.1625,7.211,7.2524,7.2625,7.3085,7.389,0.0,0.0,0.0,7.4964,7.5187,7.5257,7.5609,7.5724,7.5794,7.5724,7.5692,7.5692,7.5794,7.5794,7.5794,7.5856,7.5794,7.5692,7.5692,7.5692,7.5692,7.5692,7.5763,7.5794,7.5794,7.5826,7.5856,7.5856,7.5925,7.5955,7.5955,7.5985,7.613,7.6592,7.6669,7.6823,7.7246,7.7284,7.7284,7.7284,7.7284,7.7284,7.7284,7.7284,7.6976,7.6092,7.6015,7.5985,7.5895,7.5925,7.5925,7.5794,7.5826,7.5856,7.5856,7.5856,7.5856,7.5856,7.5731,7.5666,7.5666,7.5532,7.5501,7.5501,7.5921,7.6112,5.4944,5.5403,5.5403,5.5403,5.5403,5.5632,5.6434,5.6587,5.7008,5.8536,5.8842,5.9109,5.995,6.0102,6.0179,6.037,6.0408,6.0408,6.0408,6.186,6.2892,0.0,6.4382,0.0,6.6636,0.0,0.0,0.0,0.0,0.0,0.0,7.0075,7.0522,7.0623,7.0776,7.0853,7.0923,7.1657,7.2078,7.211,7.2831,7.3284,7.3499,7.353,7.3991,7.4835,0.0,0.0,0.0,7.5756,7.5826,7.5925,7.5848,7.5879,7.5976,7.5928,7.589,7.5928,7.5938,7.5976,7.5976,7.6015,7.5887,7.5756,7.5756,7.5756,7.5756,7.5756,7.5826,7.5925,7.5925,7.6071,7.6322,7.6476,7.6553,7.6553,7.6553,7.6553,7.6746,7.74,7.74,7.7476,7.813,7.8246,7.8246,7.8246,7.84,7.8477,7.8477,7.8477,7.7977,7.6669,7.6553,7.6524,7.6463,7.6524,7.6524,7.6463,7.6524,7.6553,7.6553,7.6553,7.6553,7.6553,7.6363,7.6261,7.6268,7.6101,7.6071,7.6036,7.6685,7.6991,5.4944,5.5403,5.5403,5.5403,5.5403,5.5632,5.6434,5.6587,5.6855,5.781,5.8001,5.8268,5.9071,5.9224,5.9491,6.0255,6.0408,6.0408,6.0408,6.186,6.2892,6.2892,0.0,0.0,6.6636,0.0,0.0,0.0,0.0,0.0,0.0,7.0483,7.0623,7.0623,7.1312,7.1727,7.1896,7.2608,7.3022,7.3085,7.3223,7.3676,7.4474,7.4533,7.5024,7.587,0.0,0.0,0.0,7.5947,7.5985,7.6005,7.6173,7.6234,7.6258,7.6438,7.6516,7.6478,7.6327,7.6234,7.6248,7.6062,7.6015,7.5947,7.5947,7.5947,7.5947,7.5947,7.5985,7.6015,7.6015,7.6592,7.7361,7.8092,7.8246,7.8246,7.8246,7.8246,7.8284,7.8361,7.7784,7.7323,7.74,7.74,7.74,7.74,7.8015,7.8477,7.8477,7.8477,7.8438,7.8284,7.8246,7.8284,7.8246,7.8284,7.8284,7.8246,7.8284,7.8246,7.8246,7.8246,7.8246,7.8246,7.8192,7.8129,7.807,7.7931,7.7826,7.7755,7.787,7.787,5.5059,5.5403,5.5403,5.5403,5.5403,5.5479,5.5785,5.5861,5.6129,5.6931,5.7122,5.7504,5.8842,5.9109,5.9376,6.0255,6.0408,6.0561,6.1058,6.2166,6.3083,6.3618,6.5146,0.0,0.0,0.0,0.0,0.0,0.0,0.0,0.0,0.0,7.0815,7.1312,7.165,7.2134,7.2702,7.3514,7.3967,7.4059,7.4597,7.508,7.5447,7.5476,7.5668,0.0,0.0,0.0,0.0,7.6173,7.6273,7.6372,7.6457,7.6497,7.6497,7.6591,7.6609,7.6591,7.6372,7.6281,7.635,7.6707,7.6784,7.6669,7.6169,7.6361,7.6784,7.6784,7.713,7.7476,7.7476,7.7746,7.8092,7.84,7.813,7.7784,7.7784,7.7361,7.713,7.7669,7.79,7.8169,7.8707,7.9246,7.9592,7.9592,7.9862,8.0054,8.0054,8.0054,8.0054,8.0054,7.9131,7.8477,7.8477,7.8477,7.8477,7.8477,7.8477,7.8477,7.8477,7.8477,7.8477,7.8477,7.8454,7.8391,7.8359,7.8262,7.816,7.8056,7.8591,7.8821,5.5174,5.5403,5.5428,5.5465,5.5415,5.5428,5.5465,5.5415,5.5556,5.6129,5.6243,5.674,5.8459,5.8765,5.9109,6.0217,6.0408,6.0676,6.1478,6.2357,6.3312,6.442,0.0,0.0,0.0,0.0,0.0,0.0,0.0,0.0,0.0,0.0,7.1612,7.2186,7.2486,7.2901,7.3615,7.4427,7.4912,7.5003,7.5707,7.6062,7.6079,7.616,7.6173,0.0,0.0,0.0,0.0,7.6394,7.6477,7.6588,7.6638,7.6653,7.6653,7.6738,7.6767,7.6777,7.6788,7.6806,7.6853,7.751,7.7718,7.7553,7.6938,7.7169,7.763,7.763,7.8054,7.8554,7.8823,7.8669,7.8554,7.8823,7.8438,7.8054,7.8054,7.7746,7.7707,7.8284,7.8669,7.9092,7.9708,8.0323,8.0708,8.0708,8.0939,8.1093,8.1093,8.1093,8.1093,8.1093,8.0015,7.9246,7.9246,7.9246,7.9246,7.9246,7.9246,7.9246,7.9246,7.9246,7.9246,7.9246,7.9223,7.9191,7.9121,7.9095,7.8956,7.8853,7.9466,7.9736,5.5174,5.5403,5.5415,5.5561,5.5523,5.544,5.5561,5.5523,5.5403,5.5403,5.5403,5.5938,5.7581,5.7925,5.8459,6.0141,6.0408,6.0676,6.1478,6.2357,6.3541,0.0,0.0,0.0,0.0,0.0,0.0,0.0,0.0,0.0,0.0,0.0,7.3162,7.32,7.3871,7.4363,7.4589,7.5302,7.5787,7.5976,7.6199,7.632,7.6281,7.6517,0.0,0.0,0.0,0.0,0.0,7.6609,7.6609,7.6588,7.6755,7.6804,7.6816,7.7036,7.7101,7.7206,7.7862,7.7959,7.7875,7.8557,7.8656,7.8477,7.8477,7.8477,7.8477,7.8477,7.8477,7.8707,7.9554,7.9131,7.8707,7.9592,7.9785,7.9785,7.9785,8.0439,8.1054,8.1054,8.0362,7.9785,7.9823,7.9823,7.9823,7.9823,8.0554,8.1093,8.1093,8.1093,8.1093,8.1093,8.1093,8.1054,8.1054,8.1054,8.1054,8.1054,8.1054,8.1054,8.1054,8.1054,8.1054,8.1054,8.1054,8.1023,8.0888,8.0888,8.075,8.0576,8.0576,8.0578,5.5326,5.5403,5.5428,5.5465,5.5415,5.5428,5.5427,5.5415,5.5403,5.5403,5.5403,5.5899,5.7581,5.7886,5.8459,6.0141,6.0408,6.0867,6.228,6.2739,6.3541,6.5184,6.6736,0.0,0.0,0.0,0.0,0.0,0.0,0.0,0.0,0.0,0.0,7.4018,7.4287,7.4702,7.5341,7.5764,7.6056,7.6199,7.6415,7.6517,7.6517,0.0,0.0,0.0,0.0,0.0,0.0,7.6741,7.6832,7.6946,7.6981,7.7028,7.7067,7.7759,7.7999,7.8071,7.8759,7.8962,7.901,7.9698,7.9851,7.9903,8.0523,8.0087,7.9515,8.0092,7.9862,7.9438,7.9746,7.9592,7.9477,7.9746,7.9823,7.9823,7.9823,7.9554,7.9323,7.9323,7.9592,7.9823,7.9823,8.0285,8.0708,8.0708,8.0939,8.1093,8.1093,8.1093,8.1093,8.1093,8.1093,8.1093,8.1093,8.1093,8.1093,8.1093,8.1093,8.1093,8.1093,8.1093,8.1093,8.1093,8.1093,8.1093,8.1061,8.1061,8.0959,8.0788,8.0685,8.0614,5.4906,5.5135,5.5428,5.5451,5.544,5.5428,5.5451,5.544,5.5403,5.5403,5.5632,5.6282,5.7657,5.8154,5.8803,6.0179,6.0408,6.0981,6.2662,6.2892,0.0,6.6162,0.0,0.0,0.0,0.0,0.0,0.0,0.0,0.0,0.0,0.0,0.0,7.5042,7.4988,7.5219,7.5831,7.6044,7.6219,7.6415,7.6588,7.6669,7.6669,0.0,0.0,0.0,0.0,0.0,0.0,7.6907,7.6981,7.7101,7.7101,7.7296,7.7648,7.8194,7.8624,7.9008,7.9743,7.9968,8.0026,8.0746,8.0954,8.0999,8.1543,8.0865,8.001,8.0469,8.0208,7.9823,7.9823,7.9823,7.9823,7.9823,7.9823,7.9823,7.9823,7.9631,7.9477,7.9477,7.9939,8.0285,8.0285,8.0746,8.1093,8.1093,8.1093,8.1093,8.1093,8.1093,8.1093,8.1093,8.1093,8.1093,8.1093,8.1093,8.1093,8.1093,8.1093,8.1093,8.1093,8.1093,8.1093,8.1093,8.1093,8.1093,8.1093,8.1061,8.0991,8.0888,8.0754,8.065,0.0,5.4677,5.5339,5.5561,5.5461,5.5415,5.5561,5.5538,0.0,5.5479,5.6129,5.6969,5.781,5.8612,5.9376,6.0255,6.0446,6.1058,6.2662,6.3045,6.4412,0.0,6.9604,0.0,0.0,0.0,0.0,0.0,0.0,0.0,0.0,0.0,0.0,0.0,7.5861,7.5861,7.6132,7.6157,7.6316,7.6643,7.6755,7.6816,7.6816,0.0,0.0,0.0,0.0,0.0,0.0,7.7101,7.714,7.7179,7.7179,7.7726,7.8507,7.8546,7.9092,7.9912,8.0771,8.0952,8.0947,8.1766,8.1866,8.1735,8.1717,8.1036,8.0164,7.9972,7.9884,7.9815,7.9815,7.9785,7.9823,7.9823,7.9862,7.99,7.99,8.0516,8.1093,8.1093,8.1093,8.1093,8.1093,8.1093,8.1093,8.1093,8.1093,8.1093,8.1093,8.1093,8.1093,8.1093,8.1093,8.1093,8.1093,8.1093,8.1093,8.1093,8.1093,8.1093,8.1093,8.1093,8.1093,8.1093,8.1093,8.1093,8.1093,8.0959,8.0888,8.0888,8.086,8.0758,5.4178,0.0,5.4587,5.5284,5.5402,5.5403,0.0,5.5913,5.632,5.632,5.7008,5.7848,5.8689,5.901,5.9458,6.0283,6.0961,6.1764,6.2739,6.4632,6.648,6.8081,0.0,0.0,0.0,0.0,0.0,0.0,0.0,0.0,0.0,0.0,0.0,0.0,7.6185,7.6219,7.6341,7.6527,7.6675,7.6755,7.6956,7.7036,0.0,0.0,0.0,0.0,0.0,0.0,0.0,7.7101,7.7492,7.8077,7.8077,7.8624,7.9483,8.0146,8.0537,8.081,8.1708,8.1968,8.1953,8.2148,8.221,8.2143,8.1974,8.167,8.131,8.1247,8.0648,8.001,8.001,7.9923,7.9823,7.9823,8.0323,8.0785,8.0785,8.0977,8.1093,8.1093,8.1093,8.1093,8.1093,8.1093,8.1093,8.1093,8.1093,8.1093,8.1093,8.1093,8.1093,8.1093,8.1093,8.1093,8.1093,8.1093,8.1093,8.1093,8.1093,8.1093,8.1093,8.1093,8.1093,8.1093,8.1093,8.1093,8.1093,8.1061,8.1061,8.1061,8.0926,8.0855,5.4641,5.4786,5.4853,5.5336,5.5451,5.544,5.5415,5.6066,5.6639,5.6639,5.7634,5.8628,5.9113,5.9549,5.997,6.0403,6.1234,6.2344,6.3867,6.603,6.7765,6.8695,0.0,0.0,0.0,0.0,0.0,0.0,0.0,0.0,0.0,0.0,0.0,0.0,0.0,7.6497,7.6576,7.6716,7.6827,7.6956,7.7043,7.7101,0.0,0.0,0.0,0.0,0.0,0.0,7.714,7.7531,7.796,7.8429,7.8858,7.9522,8.0341,8.081,8.1239,8.1669,8.2137,8.2293,8.2293,8.2293,8.2293,8.2287,8.2162,8.2062,8.187,8.1286,8.0627,8.0111,8.0111,8.0249,8.04,8.04,8.0746,8.1093,8.1093,8.1093,8.1093,8.1093,8.1093,8.1093,8.1093,8.1093,8.1093,8.1093,8.1093,8.1093,8.1093,8.1093,8.1093,8.1093,8.1093,8.1093,8.1093,8.1093,8.1093,8.1093,8.1093,8.1093,8.1093,8.1093,8.1093,8.1093,8.1093,8.1093,8.1093,8.1093,8.1093,8.1093,8.1061,8.0959,5.4978,5.55,5.5554,5.5508,5.5508,5.557,5.5638,5.6304,5.6956,5.7109,5.8349,5.946,5.9511,6.0086,6.0661,6.0776,6.162,6.3115,6.5398,6.718,6.8513,6.9356,0.0,0.0,0.0,0.0,0.0,0.0,0.0,0.0,0.0,0.0,0.0,0.0,0.0,0.0,7.6827,7.6827,7.6917,7.7101,7.7101,7.7101,7.7101,0.0,0.0,0.0,0.0,0.0,7.7375,7.8116,7.8546,7.8858,7.96,8.042,8.12,8.12,8.1669,8.2293,8.2293,8.2293,8.2293,8.2293,8.2293,8.2293,8.2293,8.2293,8.207,8.0971,8.0533,8.0338,8.0338,8.0702,8.1093,8.1093,8.1093,8.1093,8.1093,8.1093,8.1093,8.1093,8.1093,8.1093,8.1093,8.1093,8.1093,8.1093,8.1093,8.1093,8.1093,8.1093,8.1093,8.1093,8.1093,8.1093,8.1093,8.1093,8.1093,8.1093,8.1093,8.1093,8.1093,8.1093,8.1093,8.1093,8.1093,8.1093,8.1093,8.1093,8.1093,8.1093,8.1093,8.1061,5.4309,5.5209,5.5808,5.5621,5.5647,5.5865,5.6598,5.7426,5.8273,5.9006,5.9811,6.0367,6.0393,6.0559,6.0929,6.1608,6.3,6.4676,0.0,0.0,6.8625,0.0,0.0,0.0,0.0,0.0,0.0,0.0,0.0,0.0,0.0,0.0,0.0,0.0,0.0,0.0,0.0,7.7043,7.705,7.7101,7.7101,7.7101,7.7101,7.7101,0.0,0.0,0.0,0.0,7.8194,7.835,7.9287,8.0615,8.0732,8.1317,8.2098,8.2098,8.2176,8.2293,8.2293,8.2293,8.2293,8.2293,8.2293,8.2293,8.2293,8.2293,8.2248,8.207,8.1753,8.1466,8.1466,8.1285,8.1093,8.1093,8.1093,8.1093,8.1093,8.1093,8.1093,8.1093,8.1093,8.1093,8.1093,8.1093,8.1093,8.1093,8.1093,8.1093,8.1093,8.1093,8.1093,8.1093,8.1093,8.1093,8.1093,8.1093,8.1093,8.1093,8.1093,8.1093,8.1093,8.1093,8.1093,8.1093,8.1093,8.1093,8.1093,8.1093,8.1093,8.1093,8.1093,8.1093,5.4737,5.5499,5.5977,5.6387,5.6536,5.6714,5.7085,5.8192,5.9276,5.9663,6.0364,6.0886,6.0906,6.1331,6.2085,6.3268,0.0,6.5767,0.0,0.0,0.0,0.0,0.0,0.0,0.0,0.0,0.0,0.0,0.0,0.0,0.0,0.0,0.0,0.0,0.0,0.0,0.0,7.7043,7.7101,7.7101,7.7101,7.7101,7.7101,7.7101,7.7375,0.0,0.0,7.8311,7.9131,7.96,8.0263,8.1044,8.1513,8.1942,8.2293,8.2293,8.2293,8.2293,8.2293,8.2293,8.2293,8.2293,8.2293,8.2293,8.2293,8.2293,8.2293,8.2293,8.1987,8.1698,8.1698,8.1387,8.1093,8.1093,8.1093,8.1093,8.1093,8.1093,8.1093,8.1093,8.1093,8.1093,8.1093,8.1093,8.1093,8.1093,8.1093,8.1093,8.1093,8.1093,8.1093,8.1093,8.1093,8.1093,8.1093,8.1093,8.1093,8.1093,8.1093,8.1093,8.1093,8.1093,8.1093,8.1093,8.1093,8.1093,8.1093,8.1093,8.1093,8.1093,8.1093,8.1093,5.4972,5.5557,5.5885,5.6753,5.7222,5.7546,5.791,5.8998,6.0034,6.0229,6.0745,6.1196,6.1458,6.2361,6.3485,6.483,6.5649,0.0,0.0,0.0,0.0,0.0,0.0,0.0,0.0,0.0,0.0,0.0,0.0,0.0,0.0,0.0,0.0,0.0,0.0,0.0,0.0,7.7036,7.7101,7.7101,7.7101,7.7101,7.7101,7.7296,7.7765,7.839,7.8624,7.9209,8.0068,8.0732,8.1122,8.1356,8.2059,8.2293,8.2293,8.2293,8.2293,8.2293,8.2293,8.2293,8.2293,8.2293,8.2293,8.2293,8.2293,8.2293,8.2293,8.2293,8.205,8.1753,8.1717,8.1437,8.1146,8.1124,8.1093,8.1093,8.1093,8.1093,8.1093,8.1093,8.1093,8.1093,8.1093,8.1093,8.1093,8.1093,8.1093,8.1093,8.1093,8.1093,8.1093,8.1093,8.1093,8.1093,8.1093,8.1093,8.1093,8.1093,8.1093,8.1093,8.1093,8.1093,8.1093,8.1093,8.1093,8.1093,8.1093,8.1093,8.1093,8.1093,8.1093,8.1093,5.4126,5.4757,5.5204,5.6058,5.6931,5.8013,5.9611,6.0078,6.0419,6.1208,6.1277,6.1458,6.2235,6.3624,6.4907,6.5702,6.6474,0.0,0.0,0.0,0.0,0.0,0.0,0.0,0.0,0.0,0.0,0.0,0.0,0.0,0.0,0.0,0.0,0.0,0.0,0.0,0.0,7.7101,7.7101,7.7101,7.7101,7.7101,7.714,7.7921,7.835,7.8468,7.9248,8.0107,8.0927,8.0966,8.1474,8.2215,8.2293,8.2293,8.2293,8.2293,8.2293,8.2293,8.2293,8.2293,8.2293,8.2293,8.2293,8.2293,8.2293,8.2293,8.2293,8.2293,8.2153,8.1948,8.1753,8.1536,8.135,8.1116,8.1093,8.1093,8.1093,8.1093,8.1093,8.1093,8.1093,8.1093,8.1093,8.1093,8.1093,8.1093,8.1093,8.1093,8.1093,8.1093,8.1093,8.1093,8.1093,8.1093,8.1093,8.1093,8.1093,8.1093,8.1093,8.1093,8.1093,8.1093,8.1093,8.1093,8.1093,8.1093,8.1093,8.1093,8.1093,8.1093,8.1093,8.1093,5.5055,5.5976,5.6806,5.7663,5.8632,5.9502,6.0165,6.075,6.1374,6.2233,6.2368,6.2734,6.4177,6.5142,6.5989,6.6806,0.0,0.0,0.0,0.0,0.0,0.0,0.0,0.0,0.0,0.0,0.0,0.0,0.0,0.0,0.0,0.0,0.0,0.0,0.0,0.0,0.0,0.0,7.7375,7.7921,7.7921,7.7921,7.7921,7.8819,7.9483,8.0029,8.0381,8.1005,8.1825,8.1825,8.1981,8.2293,8.2293,8.2293,8.2293,8.2293,8.2293,8.2293,8.2293,8.2293,8.2293,8.2293,8.2293,8.2293,8.2293,8.2293,8.2293,8.2293,8.2234,8.2094,8.177,8.1536,8.135,8.1146,8.1093,8.1093,8.1093,8.1093,8.1093,8.1093,8.1093,8.1093,8.1093,8.1093,8.1093,8.1093,8.1093,8.1093,8.1093,8.1093,8.1093,8.1093,8.1093,8.1093,8.1093,8.1093,8.1093,8.1093,8.1093,8.1093,8.1093,8.1093,8.1093,8.1093,8.1093,8.1093,8.1093,8.1093,8.1093,8.1093,8.1093,8.1093,5.5343,5.6394,5.7485,5.8616,5.9651,6.0471,6.0744,6.1252,6.1954,6.2813,6.3633,6.4565,6.5712,6.6613,0.0,0.0,0.0,0.0,0.0,0.0,0.0,0.0,0.0,0.0,0.0,0.0,0.0,0.0,0.0,0.0,0.0,0.0,0.0,0.0,0.0,0.0,0.0,7.7492,7.796,7.8819,7.9092,7.9092,7.8858,7.9717,8.0459,8.1005,8.1278,8.1747,8.2293,8.2293,8.2293,8.2293,8.2293,8.2293,8.2293,8.2293,8.2293,8.2293,8.2293,8.2293,8.2293,8.2293,8.2293,8.2293,8.2293,8.2293,8.2293,8.2293,8.2293,8.2218,8.1787,8.16,8.1437,8.1146,8.1093,8.1093,8.1093,8.1093,8.1093,8.1093,8.1093,8.1093,8.1093,8.1093,8.1093,8.1093,8.1093,8.1093,8.1093,8.1093,8.1093,8.1093,8.1093,8.1093,8.1093,8.1093,8.1093,8.1093,8.1093,8.1093,8.1093,8.1093,8.1093,8.1093,8.1093,8.1093,8.1093,8.1093,8.1093,8.1093,8.1093,8.1093,5.4621,5.5647,5.6823,5.8499,5.9651,6.0627,6.1486,6.172,6.1954,6.2852,6.5038,6.6778,6.6654,6.8037,0.0,0.0,0.0,0.0,0.0,0.0,0.0,0.0,0.0,0.0,0.0,0.0,0.0,0.0,0.0,0.0,0.0,0.0,0.0,0.0,0.0,0.0,0.0,7.839,7.8858,7.9717,8.0576,8.0537,7.9756,8.0615,8.1005,8.1044,8.1942,8.2293,8.2293,8.2293,8.2293,8.2293,8.2293,8.2293,8.2293,8.2293,8.2293,8.2293,8.2293,8.2293,8.2293,8.2293,8.2293,8.2293,8.2293,8.2293,8.2293,8.2293,8.2293,8.2218,8.1804,8.1698,8.16,8.1205,8.1093,8.1093,8.1093,8.1093,8.1093,8.1093,8.1093,8.1093,8.1093,8.1093,8.1093,8.1093,8.1093,8.1093,8.1093,8.1093,8.1093,8.1093,8.1093,8.1093,8.1093,8.1093,8.1093,8.1093,8.1093,8.1093,8.1093,8.1093,8.1093,8.1093,8.1093,8.1093,8.1093,8.1093,8.1093,8.1093,8.1093,8.1093,5.5102,5.6644,5.8421,5.8922,6.0188,6.1369,6.1642,6.2189,6.3047,6.4531,6.6366,6.7688,6.767,0.0,0.0,0.0,0.0,0.0,0.0,0.0,0.0,0.0,0.0,0.0,0.0,0.0,0.0,0.0,0.0,0.0,0.0,0.0,0.0,0.0,0.0,0.0,0.0,0.0,7.9756,8.0615,8.0888,8.0849,8.0654,8.1513,8.1903,8.1942,8.2176,8.2293,8.2293,8.2293,8.2293,8.2293,8.2293,8.2293,8.2293,8.2293,8.2293,8.2293,8.2293,8.2293,8.2293,8.2293,8.2293,8.2293,8.2293,8.2293,8.2293,8.2293,8.2293,8.2234,8.1974,8.1804,8.16,8.1205,8.1093,8.1093,8.1093,8.1093,8.1093,8.1093,8.1093,8.1093,8.1093,8.1093,8.1093,8.1093,8.1093,8.1093,8.1093,8.1093,8.1093,8.1093,8.1093,8.1093,8.1093,8.1093,8.1093,8.1093,8.1093,8.1093,8.1093,8.1093,8.1093,8.1093,8.1093,8.1093,8.1093,8.1093,8.1093,8.1093,8.1093,8.1093,5.4929,5.6815,5.9104,5.9104,6.0393,6.1876,6.2579,6.3125,6.3906,6.5312,6.7224,6.863,6.863,0.0,0.0,0.0,0.0,0.0,0.0,0.0,0.0,0.0,0.0,0.0,0.0,0.0,0.0,0.0,0.0,0.0,0.0,0.0,0.0,0.0,0.0,0.0,0.0,0.0,0.0,8.1513,8.1513,8.1513,8.1513,8.2059,8.2293,8.2293,8.2293,8.2293,8.2293,8.2293,8.2293,8.2293,8.2293,8.2293,8.2293,8.2293,8.2293,8.2293,8.2293,8.2293,8.2293,8.2293,8.2293,8.2293,8.2293,8.2293,8.2293,8.2293,8.2293,8.2234,8.2062,8.192,8.1717,8.1323,8.1146,8.1093,8.1093,8.1093,8.1093,8.1093,8.1093,8.1093,8.1093,8.1093,8.1093,8.1093,8.1093,8.1093,8.1093,8.1093,8.1093,8.1093,8.1093,8.1093,8.1093,8.1093,8.1093,8.1093,8.1093,8.1093,8.1093,8.1093,8.1093,8.1093,8.1093,8.1093,8.1093,8.1093,8.1093,8.1093,8.1093,8.1093,5.4484,5.6567,5.9104,5.9104,6.0393,6.2149,6.3906,6.4297,6.457,6.5624,0.0,6.9411,0.0,0.0,0.0,0.0,0.0,0.0,0.0,0.0,0.0,0.0,0.0,0.0,0.0,0.0,0.0,0.0,0.0,0.0,0.0,0.0,0.0,0.0,0.0,0.0,0.0,0.0,0.0,0.0,8.2293,8.2293,8.2293,8.2293,8.2293,8.2293,8.2293,8.2293,8.2293,8.2293,8.2293,8.2293,8.2293,8.2293,8.2293,8.2293,8.2293,8.2293,8.2293,8.2293,8.2293,8.2293,8.2293,8.2293,8.2293,8.2293,8.2293,8.2293,8.2293,8.228,8.2073,8.1999,8.192,8.1536,8.1269,8.1124,8.1124,8.1124,8.1093,8.1093,8.1093,8.1093,8.1093,8.1093,8.1093,8.1093,8.1093,8.1093,8.1093,8.1093,8.1093,8.1093,8.1093,8.1093,8.1093,8.1093,8.1093,8.1093,8.1093,8.1093,8.1093,8.1093,8.1093,8.1093,8.1093,8.1093,8.1093,8.1093,8.1093,8.1093,8.1093,8.1093,5.507,5.7035,5.9104,5.9104,6.0393,6.2149,6.3906,6.4297,6.4921,6.7107,6.8552,0.0,0.0,0.0,0.0,0.0,0.0,0.0,0.0,0.0,0.0,0.0,0.0,0.0,0.0,0.0,0.0,0.0,0.0,0.0,0.0,0.0,0.0,0.0,0.0,0.0,8.202,8.202,8.2098,0.0,8.2293,8.2293,8.2293,8.2293,8.2293,8.2293,8.2293,8.2293,8.2293,8.2293,8.2293,8.2293,8.2293,8.2293,8.2293,8.2293,8.2293,8.2293,8.2293,8.2293,8.2293,8.2293,8.2293,8.2293,8.2293,8.2293,8.2293,8.2293,8.2293,8.2287,8.2234,8.2133,8.1974,8.1866,8.16,8.135,8.135,8.1196,8.1093,8.1093,8.1093,8.1093,8.1093,8.1093,8.1093,8.1093,8.1093,8.1093,8.1093,8.1093,8.1093,8.1093,8.1093,8.1093,8.1093,8.1093,8.1093,8.1093,8.1093,8.1093,8.1093,8.1093,8.1093,8.1093,8.1093,8.1093,8.1093,8.1093,8.1093,8.1093,8.1093,8.1093,5.5274,5.7153,5.93,6.0159,6.1017,6.2149,6.3906,6.4297,6.5155,6.8122,0.0,0.0,0.0,0.0,0.0,0.0,0.0,0.0,0.0,0.0,0.0,0.0,0.0,0.0,0.0,0.0,0.0,0.0,0.0,0.0,0.0,0.0,0.0,0.0,0.0,0.0,8.2293,8.2293,8.2293,8.2293,8.2293,8.2293,8.2293,8.2293,8.2293,8.2293,8.2293,8.2293,8.2293,8.2293,8.2293,8.2293,8.2293,8.2293,8.2293,8.2293,8.2293,8.2293,8.2293,8.2293,8.2293,8.2293,8.2293,8.2293,8.2293,8.2293,8.2293,8.2293,8.2293,8.2293,8.2293,8.2226,8.2153,8.2153,8.1753,8.1387,8.1387,8.1253,8.1093,8.1093,8.1093,8.1093,8.1093,8.1093,8.1093,8.1093,8.1093,8.1093,8.1093,8.1093,8.1093,8.1093,8.1093,8.1093,8.1093,8.1093,8.1093,8.1093,8.1093,8.1093,8.1093,8.1093,8.1093,8.1093,8.1093,8.1093,8.1093,8.1093,8.1093,8.1093,8.1093,8.1093,5.5396,5.727,5.9534,6.1252,6.172,6.2149,6.3906,6.4297,6.5273,6.8708,0.0,0.0,0.0,0.0,0.0,0.0,0.0,0.0,0.0,0.0,0.0,0.0,0.0,0.0,0.0,0.0,0.0,0.0,0.0,0.0,0.0,0.0,0.0,0.0,0.0,8.2293,8.2293,8.2293,8.2293,8.2293,8.2293,8.2293,8.2293,8.2293,8.2293,8.2293,8.2293,8.2293,8.2293,8.2293,8.2293,8.2293,8.2293,8.2293,8.2293,8.2293,8.2293,8.2293,8.2293,8.2293,8.2293,8.2293,8.2293,8.2293,8.2293,8.2293,8.2293,8.2293,8.2293,8.2293,8.2293,8.2293,8.2293,8.2293,8.1866,8.1469,8.1461,8.1269,8.1116,8.1093,8.1093,8.1093,8.1093,8.1093,8.1093,8.1093,8.1093,8.1093,8.1093,8.1093,8.1093,8.1093,8.1093,8.1093,8.1093,8.1093,8.1093,8.1093,8.1093,8.1093,8.1093,8.1093,8.1093,8.1093,8.1093,8.1093,8.1093,8.1093,8.1093,8.1093,8.1093,8.1093,5.5825,5.7738,5.9534,6.1252,6.172,6.2149,6.3906,6.4297,6.5273,0.0,0.0,0.0,0.0,0.0,0.0,0.0,0.0,0.0,0.0,0.0,0.0,0.0,0.0,0.0,0.0,0.0,0.0,0.0,0.0,0.0,0.0,0.0,8.2137,8.2137,8.2254,0.0,8.2293,8.2293,8.2293,8.2293,8.2293,8.2293,8.2293,8.2293,8.2293,8.2293,8.2293,8.2293,8.2293,8.2293,8.2293,8.2293,8.2293,8.2293,8.2293,8.2293,8.2293,8.2293,8.2293,8.2293,8.2293,8.2293,8.2293,8.2293,8.2293,8.2293,8.2293,8.2293,8.2293,8.2293,8.2293,8.2293,8.2293,8.2293,8.2094,8.1851,8.1698,8.1507,8.1296,8.1116,8.1093,8.1093,8.1093,8.1093,8.1093,8.1093,8.1093,8.1093,8.1093,8.1093,8.1093,8.1093,8.1093,8.1093,8.1093,8.1093,8.1093,8.1093,8.1093,8.1093,8.1093,8.1093,8.1093,8.1093,8.1093,8.1093,8.1093,8.1093,8.1093,8.1093,8.1093,8.1093,5.645,5.8168,5.9534,6.1252,6.172,6.2149,6.3906,6.4297,6.5273,0.0,0.0,0.0,0.0,0.0,0.0,0.0,0.0,0.0,0.0,0.0,0.0,0.0,0.0,0.0,0.0,0.0,0.0,0.0,0.0,0.0,0.0,8.2098,8.2293,8.2293,8.2293,0.0,8.2293,8.2293,8.2293,8.2293,8.2293,8.2293,8.2293,8.2293,8.2293,8.2293,8.2293,8.2293,8.2293,8.2293,8.2293,8.2293,8.2293,8.2293,8.2293,8.2293,8.2293,8.2293,8.2293,8.2293,8.2293,8.2293,8.2293,8.2293,8.2293,8.2293,8.2293,8.2293,8.2293,8.2293,8.2293,8.2293,8.2293,8.2293,8.2226,8.2073,8.177,8.1536,8.135,8.1154,8.1093,8.1093,8.1093,8.1093,8.1093,8.1093,8.1093,8.1093,8.1093,8.1093,8.1093,8.1093,8.1093,8.1093,8.1093,8.1093,8.1093,8.1093,8.1093,8.1093,8.1093,8.1093,8.1093,8.1093,8.1093,8.1093,8.1093,8.1093,8.1093,8.1093,8.1093,8.1093,5.6411,5.7933,5.9183,6.0939,6.1525,6.211,6.3633,0.0,0.0,0.0,0.0,0.0,0.0,0.0,0.0,0.0,0.0,0.0,0.0,0.0,0.0,0.0,0.0,0.0,0.0,0.0,0.0,0.0,0.0,0.0,8.2254,8.2293,8.2293,8.2293,8.2293,8.2293,8.2293,8.2293,8.2293,8.2293,8.2293,8.2293,8.2293,8.2293,8.2293,8.2293,8.2293,8.2293,8.2293,8.2293,8.2293,8.2293,8.2293,8.2293,8.2293,8.2293,8.2293,8.2293,8.2293,8.2293,8.2293,8.2293,8.2293,8.2293,8.2293,8.2293,8.2293,8.2293,8.2293,8.2293,8.2293,8.2293,8.2293,8.2293,8.2293,8.2218,8.1836,8.1514,8.1296,8.1205,8.1116,8.1093,8.1093,8.1093,8.1093,8.1093,8.1093,8.1093,8.1093,8.1093,8.1093,8.1093,8.1093,8.1093,8.1093,8.1093,8.1093,8.1093,8.1093,8.1093,8.1093,8.1093,8.1093,8.1093,8.1093,8.1093,8.1093,8.1093,8.1093,8.1093,8.1093,8.1093,5.5162,5.6606,5.8285,6.0041,6.1095,6.1954,6.2852,0.0,0.0,0.0,0.0,0.0,0.0,0.0,0.0,0.0,0.0,0.0,0.0,0.0,0.0,0.0,0.0,0.0,0.0,0.0,0.0,0.0,0.0,0.0,8.2293,8.2293,8.2293,8.2293,8.2293,8.2293,8.2293,8.2293,8.2293,8.2293,8.2293,8.2293,8.2293,8.2293,8.2293,8.2293,8.2293,8.2293,8.2293,8.2293,8.2293,8.2293,8.2293,8.2293,8.2293,8.2293,8.2293,8.2293,8.2293,8.2293,8.2293,8.2293,8.2293,8.2293,8.2293,8.2293,8.2293,8.2293,8.2293,8.2293,8.2293,8.2293,8.2293,8.2293,8.2293,8.2234,8.205,8.1553,8.1176,8.135,8.1224,8.1093,8.1093,8.1093,8.1093,8.1093,8.1093,8.1093,8.1093,8.1093,8.1093,8.1093,8.1093,8.1093,8.1093,8.1093,8.1093,8.1093,8.1093,8.1093,8.1093,8.1093,8.1093,8.1093,8.1093,8.1093,8.1093,8.1093,8.1093,8.1093,8.1093,8.1093,5.4927,5.6138,5.7582,5.9846,6.0627,6.1252,6.2657,6.3672,0.0,0.0,0.0,0.0,0.0,0.0,0.0,0.0,0.0,0.0,0.0,0.0,0.0,0.0,0.0,0.0,0.0,0.0,0.0,0.0,0.0,0.0,8.2293,8.2293,8.2293,8.2293,8.2293,8.2293,8.2293,8.2293,8.2293,8.2293,8.2293,8.2293,8.2293,8.2293,8.2293,8.2293,8.2293,8.2293,8.2293,8.2293,8.2293,8.2293,8.2293,8.2293,8.2293,8.2293,8.2293,8.2293,8.2293,8.2293,8.2293,8.2293,8.2293,8.2293,8.2293,8.2293,8.2293,8.2293,8.2293,8.2293,8.2293,8.2293,8.2293,8.2293,8.2218,8.2084,8.2038,8.1553,8.1146,8.1375,8.1224,8.1093,8.1093,8.1093,8.1093,8.1093,8.1093,8.1093,8.1093,8.1093,8.1093,8.1093,8.1093,8.1093,8.1093,8.1093,8.1093,8.1093,8.1093,8.1093,8.1093,8.1093,8.1093,8.1093,8.1093,8.1093,8.1093,8.1093,8.1093,8.1093,8.1093,8.1093,5.4459,5.5708,5.7153,5.9417,6.0198,6.0783,6.2228,6.3243,0.0,0.0,0.0,0.0,0.0,0.0,0.0,0.0,0.0,0.0,0.0,0.0,0.0,0.0,0.0,0.0,0.0,0.0,0.0,0.0,0.0,0.0,8.2293,8.2293,8.2293,8.2293,8.2293,8.2293,8.2293,8.2293,8.2293,8.2293,8.2293,8.2293,8.2293,8.2293,8.2293,8.2293,8.2293,8.2293,8.2293,8.2293,8.2293,8.2293,8.2293,8.2293,8.2293,8.2293,8.2293,8.2293,8.2293,8.2293,8.2293,8.2293,8.2293,8.2293,8.2293,8.2293,8.2293,8.2293,8.2293,8.2293,8.2293,8.2293,8.2293,8.2293,8.2084,8.1934,8.1974,8.162,8.1323,8.1362,8.1269,8.1176,8.1124,8.1093,8.1093,8.1093,8.1093,8.1093,8.1093,8.1093,8.1093,8.1093,8.1093,8.1093,8.1093,8.1093,8.1093,8.1093,8.1093,8.1093,8.1093,8.1093,8.1093,8.1093,8.1093,8.1093,8.1093,8.1093,8.1093,8.1093,8.1093,8.1093,0.0,0.0,0.0,5.8597,5.969,6.0588,6.1447,0.0,0.0,0.0,0.0,0.0,0.0,0.0,0.0,0.0,0.0,0.0,0.0,0.0,0.0,0.0,0.0,0.0,0.0,0.0,0.0,0.0,0.0,8.1356,8.2215,8.2293,8.2293,8.2293,8.2293,8.2293,8.2293,8.2293,8.2293,8.2293,8.2293,8.2293,8.2293,8.2293,8.2293,8.2293,8.2293,8.2293,8.2293,8.2293,8.2293,8.2293,8.2293,8.2293,8.2293,8.2293,8.2293,8.2293,8.2293,8.2293,8.2293,8.2293,8.2293,8.2293,8.2293,8.2293,8.2293,8.2293,8.2293,8.2293,8.2293,8.2293,8.2293,8.2293,8.1987,8.1753,8.1948,8.182,8.164,8.1437,8.1387,8.1323,8.1116,8.1093,8.1093,8.1093,8.1093,8.1093,8.1093,8.1093,8.1093,8.1093,8.1093,8.1093,8.1093,8.1093,8.1093,8.1093,8.1093,8.1093,8.1093,8.1093,8.1093,8.1093,8.1093,8.1093,8.1093,8.1093,8.1093,8.1093,8.1093,8.1093,5.2819,0.0,0.0,0.0,0.0,0.0,0.0,0.0,0.0,0.0,0.0,0.0,0.0,0.0,0.0,0.0,0.0,0.0,0.0,0.0,0.0,0.0,0.0,0.0,0.0,0.0,0.0,0.0,0.0,8.1122,8.1356,8.1942,8.2293,8.2293,8.2293,8.2293,8.2293,8.2293,8.2293,8.2293,8.2293,8.2293,8.2293,8.2293,8.2293,8.2293,8.2293,8.2293,8.2293,8.2293,8.2293,8.2293,8.2293,8.2293,8.2293,8.2293,8.2293,8.2293,8.2293,8.2293,8.2293,8.2293,8.2293,8.2293,8.2293,8.2293,8.2293,8.2293,8.2293,8.2293,8.2293,8.2293,8.2293,8.2293,8.2094,8.1866,8.1787,8.1735,8.164,8.1437,8.1269,8.1176,8.1124,8.1093,8.1093,8.1093,8.1093,8.1093,8.1093,8.1093,8.1093,8.1093,8.1093,8.1093,8.1093,8.1093,8.1093,8.1093,8.1093,8.1093,8.1093,8.1093,8.1093,8.1093,8.1093,8.1093,8.1093,8.1093,8.1093,8.1093,8.1093,8.1093,5.2546,5.36,5.4888,5.6255,0.0,0.0,0.0,0.0,0.0,0.0,0.0,0.0,0.0,0.0,0.0,0.0,0.0,0.0,0.0,0.0,0.0,0.0,0.0,0.0,0.0,0.0,0.0,0.0,7.9326,8.0224,8.0966,8.1825,8.2293,8.2293,8.2293,8.2293,8.2293,8.2293,8.2293,8.2293,8.2293,8.2293,8.2293,8.2293,8.2293,8.2293,8.2293,8.2293,8.2293,8.2293,8.2293,8.2293,8.2293,8.2293,8.2293,8.2293,8.2293,8.2293,8.2293,8.2293,8.2293,8.2293,8.2293,8.2293,8.2293,8.2293,8.2293,8.2293,8.2293,8.2293,8.2293,8.2293,8.2293,8.2293,8.2153,8.1948,8.1735,8.162,8.1536,8.1412,8.1362,8.1323,8.1224,8.1224,8.1205,8.1124,8.1093,8.1093,8.1093,8.1093,8.1093,8.1093,8.1093,8.1093,8.1093,8.1093,8.1093,8.1093,8.1093,8.1093,8.1093,8.1093,8.1093,8.1093,8.1093,8.1093,8.1093,8.1093,8.1093,8.1093,8.1093,8.1093,5.2819,5.399,5.5357,0.0,0.0,0.0,0.0,0.0,0.0,0.0,0.0,0.0,0.0,0.0,0.0,0.0,0.0,0.0,0.0,0.0,0.0,0.0,0.0,0.0,0.0,0.0,0.0,7.8194,7.835,7.917,8.0927,8.1747,8.2215,8.2293,8.2293,8.2293,8.2293,8.2293,8.2293,8.2293,8.2293,8.2293,8.2293,8.2293,8.2293,8.2293,8.2293,8.2293,8.2293,8.2293,8.2293,8.2293,8.2293,8.2293,8.2293,8.2293,8.2293,8.2293,8.2293,8.2293,8.2293,8.2293,8.2293,8.2293,8.2293,8.2293,8.2293,8.2293,8.2293,8.2293,8.2293,8.2293,8.2293,8.2293,8.2153,8.1961,8.177,8.1558,8.1437,8.1437,8.1558,8.16,8.1387,8.1362,8.135,8.1154,8.1093,8.1093,8.1093,8.1093,8.1093,8.1093,8.1093,8.1093,8.1093,8.1093,8.1093,8.1093,8.1093,8.1093,8.1093,8.1093,8.1093,8.1093,8.1093,8.1093,8.1093,8.1093,8.1093,8.1093,8.1093,8.1093,0.0,0.0,0.0,0.0,0.0,0.0,0.0,0.0,0.0,0.0,0.0,0.0,0.0,0.0,0.0,0.0,0.0,0.0,0.0,0.0,0.0,0.0,0.0,0.0,0.0,0.0,7.6438,7.7296,7.7999,7.917,8.0927,8.1161,8.1591,8.2293,8.2293,8.2293,8.2293,8.2293,8.2293,8.2293,8.2293,8.2293,8.2293,8.2293,8.2293,8.2293,8.2293,8.2293,8.2293,8.2293,8.2293,8.2293,8.2293,8.2293,8.2293,8.2293,8.2293,8.2293,8.2293,8.2293,8.2293,8.2293,8.2293,8.2293,8.2293,8.2293,8.2293,8.2293,8.2293,8.2293,8.2293,8.2293,8.2293,8.2293,8.2153,8.1987,8.1948,8.1787,8.164,8.164,8.1536,8.1387,8.1205,8.1269,8.135,8.1154,8.1093,8.1093,8.1093,8.1093,8.1093,8.1093,8.1093,8.1093,8.1093,8.1093,8.1093,8.1093,8.1093,8.1093,8.1093,8.1093,8.1093,8.1093,8.1093,8.1093,8.1093,8.1093,8.1093,8.1093,8.1093,8.1093,0.0,0.0,0.0,5.5201,0.0,0.0,0.0,0.0,0.0,0.0,0.0,0.0,0.0,0.0,0.0,0.0,0.0,0.0,0.0,0.0,0.0,0.0,0.0,0.0,0.0,0.0,7.6164,7.7023,7.7921,7.878,7.9678,8.0537,8.12,8.163,8.2059,8.2293,8.2293,8.2293,8.2293,8.2293,8.2293,8.2293,8.2293,8.2293,8.2293,8.2293,8.2293,8.2293,8.2293,8.2293,8.2293,8.2293,8.2293,8.2293,8.2293,8.2293,8.2293,8.2293,8.2293,8.2293,8.2293,8.2293,8.2293,8.2293,8.2293,8.2293,8.2293,8.2293,8.2293,8.2293,8.2293,8.2293,8.2293,8.2293,8.2226,8.2143,8.1999,8.1934,8.1787,8.1579,8.1536,8.1507,8.1269,8.1412,8.1461,8.1154,8.1093,8.1093,8.1093,8.1093,8.1093,8.1093,8.1093,8.1093,8.1093,8.1093,8.1093,8.1093,8.1093,8.1093,8.1093,8.1093,8.1093,8.1093,8.1093,8.1093,8.1093,8.1093,8.1093,8.1093,8.1093,8.1093,0.0,0.0,0.0,0.0,0.0,5.7309,0.0,0.0,0.0,0.0,0.0,0.0,0.0,0.0,0.0,0.0,0.0,0.0,0.0,0.0,0.0,0.0,0.0,0.0,0.0,0.0,7.6086,7.6789,7.7648,7.8233,7.839,7.9873,8.081,8.1005,8.1864,8.2293,8.2293,8.2293,8.2293,8.2293,8.2293,8.2293,8.2293,8.2293,8.2293,8.2293,8.2293,8.2293,8.2293,8.2293,8.2293,8.2293,8.2293,8.2293,8.2293,8.2293,8.2293,8.2293,8.2293,8.2293,8.2293,8.2293,8.2293,8.2293,8.2293,8.2293,8.2293,8.2293,8.2293,8.2293,8.2293,8.2293,8.2293,8.2293,8.2293,8.228,8.2084,8.2062,8.1948,8.1579,8.164,8.166,8.1387,8.153,8.153,8.1146,8.1093,8.1093,8.1093,8.1093,8.1093,8.1093,8.1093,8.1093,8.1093,8.1093,8.1093,8.1093,8.1093,8.1093,8.1093,8.1093,8.1093,8.1093,8.1093,8.1093,8.1093,8.1093,8.1093,8.1093,8.1093,8.1093,0.0,0.0,0.0,0.0,5.8753,0.0,0.0,0.0,0.0,0.0,0.0,0.0,0.0,0.0,0.0,0.0,0.0,0.0,0.0,0.0,0.0,0.0,0.0,0.0,0.0,0.0,0.0,7.593,7.675,7.757,7.835,7.9326,8.0185,8.0966,8.1864,8.2293,8.2293,8.2293,8.2293,8.2293,8.2293,8.2293,8.2293,8.2293,8.2293,8.2293,8.2293,8.2293,8.2293,8.2293,8.2293,8.2293,8.2293,8.2293,8.2293,8.2293,8.2293,8.2293,8.2293,8.2293,8.2293,8.2293,8.2293,8.2293,8.2293,8.2293,8.2293,8.2293,8.2293,8.2293,8.2293,8.2293,8.2293,8.2293,8.2293,8.2293,8.228,8.228,8.2218,8.1974,8.1961,8.1787,8.1224,8.1296,8.1375,8.1154,8.1093,8.1093,8.1093,8.1093,8.1093,8.1093,8.1093,8.1093,8.1093,8.1093,8.1093,8.1093,8.1093,8.1093,8.1093,8.1093,8.1093,8.1093,8.1093,8.1093,8.1093,8.1093,8.1093,8.1093,8.1093,8.1093,0.0,0.0,0.0,0.0,0.0,0.0,5.9573,0.0,6.051,0.0,0.0,0.0,0.0,0.0,0.0,0.0,0.0,0.0,0.0,0.0,0.0,0.0,0.0,0.0,0.0,0.0,0.0,0.0,0.0,7.6711,7.7609,7.8468,7.9366,8.0224,8.1083,8.1786,8.2293,8.2293,8.2293,8.2293,8.2293,8.2293,8.2293,8.2293,8.2293,8.2293,8.2293,8.2293,8.2293,8.2293,8.2293,8.2293,8.2293,8.2293,8.2293,8.2293,8.2293,8.2293,8.2293,8.2293,8.2293,8.2293,8.2293,8.2293,8.2293,8.2293,8.2293,8.2293,8.2293,8.2293,8.2293,8.2293,8.2293,8.2293,8.2293,8.2293,8.2293,8.2293,8.2234,8.205,8.192,8.1717,8.135,8.135,8.135,8.1154,8.1093,8.1093,8.1093,8.1093,8.1093,8.1093,8.1093,8.1093,8.1093,8.1093,8.1093,8.1093,8.1093,8.1093,8.1093,8.1093,8.1093,8.1093,8.1093,8.1093,8.1093,8.1093,8.1093,8.1093,8.1093,8.1093,6.0393,0.0,0.0,0.0,0.0,0.0,0.0,0.0,0.0,0.0,0.0,0.0,0.0,0.0,0.0,0.0,0.0,0.0,0.0,0.0,0.0,0.0,0.0,0.0,0.0,0.0,0.0,0.0,0.0,0.0,7.6711,7.7804,7.878,7.9678,8.0537,8.1435,8.2293,8.2293,8.2293,8.2293,8.2293,8.2293,8.2293,8.2293,8.2293,8.2293,8.2293,8.2293,8.2293,8.2293,8.2293,8.2293,8.2293,8.2293,8.2293,8.2293,8.2293,8.2293,8.2293,8.2293,8.2293,8.2293,8.2293,8.2293,8.2293,8.2293,8.2293,8.2293,8.2293,8.2293,8.2293,8.2293,8.2293,8.2293,8.2293,8.2293,8.2293,8.2293,8.228,8.2094,8.1934,8.1717,8.153,8.1387,8.128,8.1124,8.1093,8.1093,8.1093,8.1093,8.1093,8.1093,8.1093,8.1093,8.1093,8.1093,8.1093,8.1093,8.1093,8.1093,8.1093,8.1093,8.1093,8.1093,8.1093,8.1093,8.1093,8.1093,8.1093,8.1093,8.1093,8.1093,0.0,0.0,0.0,6.1837,0.0,0.0,0.0,0.0,6.1642,0.0,0.0,0.0,0.0,0.0,0.0,0.0,0.0,0.0,0.0,0.0,0.0,0.0,0.0,0.0,0.0,0.0,0.0,0.0,0.0,0.0,7.5852,7.7453,7.878,7.9678,8.0537,8.1435,8.2293,8.2293,8.2293,8.2293,8.2293,8.2293,8.2293,8.2293,8.2293,8.2293,8.2293,8.2293,8.2293,8.2293,8.2293,8.2293,8.2293,8.2293,8.2293,8.2293,8.2293,8.2293,8.2293,8.2293,8.2293,8.2293,8.2293,8.2293,8.2293,8.2293,8.2293,8.2293,8.2293,8.2293,8.2293,8.2293,8.2293,8.2293,8.2293,8.2293,8.2293,8.2293,8.2293,8.2287,8.2143,8.1934,8.1717,8.1375,8.1093,8.1093,8.1093,8.1093,8.1093,8.1093,8.1093,8.1093,8.1093,8.1093,8.1093,8.1093,8.1093,8.1093,8.1093,8.1093,8.1093,8.1093,8.1093,8.1093,8.1093,8.1093,8.1093,8.1093,8.1093,8.1093,8.1093,8.1093,0.0,0.0,6.3789,6.3477,0.0,0.0,0.0,0.0,0.0,0.0,0.0,0.0,0.0,0.0,6.4179,6.3906,0.0,0.0,0.0,0.0,0.0,0.0,0.0,0.0,0.0,0.0,0.0,0.0,0.0,0.0,0.0,7.636,7.7335,7.878,7.9678,8.0576,8.1435,8.202,8.2293,8.2293,8.2293,8.2293,8.2293,8.2293,8.2293,8.2293,8.2293,8.2293,8.2293,8.2293,8.2293,8.2293,8.2293,8.2293,8.2293,8.2293,8.2293,8.2293,8.2293,8.2293,8.2293,8.2293,8.2293,8.2293,8.2293,8.2293,8.2293,8.2293,8.2293,8.2293,8.2293,8.2293,8.2293,8.2293,8.2293,8.2293,8.2293,8.2293,8.2293,8.2293,8.2143,8.1974,8.192,8.1558,8.1253,8.1124,8.1093,8.1093,8.1093,8.1093,8.1093,8.1093,8.1093,8.1093,8.1093,8.1093,8.1093,8.1093,8.1093,8.1093,8.1093,8.1093,8.1093,8.1093,8.1093,8.1093,8.1093,8.1093,8.1093,8.1093,8.1093,8.1093,6.5741,6.5429,0.0,0.0,6.4101,0.0,6.3477,0.0,0.0,0.0,0.0,0.0,0.0,0.0,0.0,6.4687,6.5624,0.0,0.0,6.578,0.0,0.0,0.0,0.0,0.0,0.0,0.0,0.0,0.0,0.0,0.0,0.0,7.6594,7.835,7.9248,8.0107,8.1005,8.1864,8.2293,8.2293,8.2293,8.2293,8.2293,8.2293,8.2293,8.2293,8.2293,8.2293,8.2293,8.2293,8.2293,8.2293,8.2293,8.2293,8.2293,8.2293,8.2293,8.2293,8.2293,8.2293,8.2293,8.2293,8.2293,8.2293,8.2293,8.2293,8.2293,8.2293,8.2293,8.2293,8.2293,8.2293,8.2293,8.2293,8.2293,8.2293,8.2293,8.2293,8.2293,8.2293,8.221,8.2084,8.1999,8.1787,8.1514,8.1253,8.1154,8.1093,8.1093,8.1093,8.1093,8.1093,8.1093,8.1093,8.1093,8.1093,8.1093,8.1093,8.1093,8.1093,8.1093,8.1093,8.0939,8.0631,8.0939,8.0939,8.0631,8.0939,8.1093,8.1093,8.1093,8.1093]},{"header":{"parameterUnit":"m.s-1","parameterCategory":1,"la1":30.6,"la2":29.2853,"lo1":-89.7004,"lo2":-87.6739,"dx":0.0162,"dy":0.0183,"nx":112,"ny":82,"refTime":"2022-12-20T06:00:00:Z","depth":0,"parameterNumber":3,"parameterNumberName":"V-component_of_WINDS"},"data":[0.0,0.0,0.0,0.0,0.0,0.0,0.0,0.0,0.0,0.0,0.0,0.0,0.0,0.0,0.0,0.0,0.0,0.0,0.0,0.0,0.0,0.0,0.0,0.0,0.0,0.0,0.0,0.0,0.0,0.0,0.0,0.0,0.0,0.0,0.0,0.0,0.0,0.0,0.0,0.0,0.0,0.0,0.0,0.0,0.0,0.0,0.0,0.0,0.0,0.0,0.0,0.0,0.0,0.0,0.0,0.0,0.0,0.0,0.0,0.0,0.0,0.0,0.0,0.0,0.0,0.0,0.0,0.0,0.0,0.0,0.0,0.0,0.0,0.0,0.0,0.0,0.0,0.0,0.0,0.0,0.0,0.0,0.0,0.0,0.0,0.0,0.0,0.0,0.0,0.0,0.0,-0.9689,-0.8999,-0.8576,-0.8601,-0.8584,-0.8576,-0.8609,0.0,0.0,0.0,0.0,0.0,0.0,0.0,0.0,0.0,0.0,0.0,0.0,0.0,0.0,0.0,0.0,0.0,0.0,0.0,0.0,0.0,0.0,0.0,0.0,0.0,0.0,0.0,0.0,0.0,0.0,0.0,0.0,0.0,0.0,0.0,0.0,0.0,0.0,0.0,0.0,0.0,0.0,0.0,0.0,0.0,0.0,0.0,0.0,0.0,0.0,0.0,0.0,0.0,0.0,0.0,0.0,0.0,0.0,0.0,0.0,0.0,0.0,0.0,0.0,0.0,0.0,0.0,0.0,0.0,0.0,0.0,0.0,0.0,0.0,0.0,0.0,0.0,0.0,0.0,0.0,0.0,0.0,0.0,0.0,0.0,0.0,0.0,0.0,0.0,0.0,0.0,0.0,0.0,0.0,0.0,0.0,0.0,0.0,0.0,0.0,0.0,0.0,0.0,0.0,-0.9602,-0.8911,-0.8656,-0.8625,-0.8771,-0.8649,-0.8625,-0.8771,0.0,0.0,0.0,0.0,0.0,0.0,0.0,0.0,0.0,0.0,0.0,0.0,0.0,0.0,0.0,0.0,0.0,0.0,0.0,0.0,0.0,0.0,0.0,0.0,0.0,0.0,0.0,0.0,0.0,0.0,0.0,0.0,0.0,0.0,0.0,0.0,0.0,0.0,0.0,0.0,0.0,0.0,0.0,0.0,0.0,0.0,0.0,0.0,0.0,0.0,0.0,0.0,0.0,0.0,0.0,0.0,0.0,0.0,0.0,0.0,0.0,0.0,0.0,0.0,0.0,0.0,0.0,0.0,0.0,0.0,0.0,0.0,0.0,0.0,0.0,0.0,0.0,0.0,0.0,0.0,0.0,0.0,0.0,0.0,0.0,0.0,0.0,0.0,0.0,0.0,0.0,0.0,0.0,0.0,0.0,0.0,0.0,0.0,0.0,0.0,0.0,0.0,0.0,-0.9625,-0.9298,-0.8943,-0.9031,-0.9177,-0.925,-0.9007,-0.8926,-0.9096,-0.869,0.0,0.0,0.0,0.0,0.0,0.0,0.0,0.0,0.0,0.0,0.0,0.0,0.0,0.0,0.0,0.0,0.0,0.0,0.0,0.0,0.0,0.0,0.0,0.0,0.0,0.0,0.0,0.0,0.0,0.0,0.0,0.0,0.0,0.0,0.0,0.0,0.0,0.0,0.0,0.0,0.0,0.0,0.0,0.0,0.0,0.0,0.0,0.0,0.0,0.0,0.0,0.0,0.0,0.0,0.0,0.0,0.0,0.0,0.0,0.0,0.0,0.0,0.0,0.0,0.0,0.0,0.0,0.0,0.0,0.0,0.0,0.0,0.0,0.0,0.0,0.0,0.0,0.0,0.0,0.0,0.0,0.0,0.0,0.0,0.0,0.0,0.0,0.0,0.0,0.0,0.0,0.0,0.0,0.0,0.0,0.0,0.0,0.0,0.0,0.0,0.0,0.0,-0.9175,-0.9359,-0.921,-0.9429,-0.9583,-0.9624,-0.938,-0.9259,-0.9348,-0.8934,0.0,0.0,0.0,0.0,0.0,0.0,0.0,0.0,0.0,0.0,0.0,0.0,0.0,0.0,0.0,0.0,0.0,0.0,0.0,0.0,0.0,0.0,0.0,0.0,0.0,0.0,0.0,0.0,0.0,0.0,0.0,0.0,0.0,0.0,0.0,0.0,0.0,0.0,0.0,0.0,0.0,0.0,0.0,0.0,0.0,0.0,0.0,0.0,0.0,0.0,0.0,0.0,0.0,0.0,0.0,0.0,0.0,0.0,0.0,0.0,0.0,0.0,0.0,0.0,0.0,0.0,0.0,0.0,0.0,0.0,0.0,0.0,0.0,0.0,0.0,0.0,0.0,0.0,0.0,0.0,0.0,0.0,0.0,0.0,0.0,0.0,0.0,0.0,0.0,0.0,0.0,0.0,0.0,0.0,0.0,0.0,0.0,0.0,0.0,0.0,0.0,0.0,-0.9771,-0.9947,-0.9633,-0.9462,-0.9445,-0.9616,-0.9608,-0.9518,-0.9364,-0.9169,0.0,0.0,0.0,0.0,0.0,0.0,0.0,0.0,0.0,0.0,0.0,0.0,0.0,0.0,0.0,0.0,0.0,0.0,0.0,0.0,0.0,0.0,0.0,0.0,0.0,0.0,0.0,0.0,0.0,0.0,0.0,0.0,0.0,0.0,0.0,0.0,0.0,0.0,0.0,0.0,0.0,0.0,0.0,0.0,0.0,0.0,0.0,0.0,0.0,0.0,0.0,0.0,0.0,0.0,0.0,0.0,0.0,0.0,0.0,0.0,0.0,0.0,0.0,0.0,0.0,0.0,0.0,0.0,0.0,0.0,0.0,0.0,0.0,0.0,0.0,0.0,0.0,0.0,0.0,0.0,0.0,0.0,0.0,0.0,0.0,0.0,0.0,0.0,0.0,0.0,0.0,0.0,0.0,0.0,0.0,0.0,0.0,0.0,0.0,0.0,0.0,0.0,-0.9753,-1.0086,0.0,-1.003,-1.0217,-1.0282,-0.9981,-0.9762,-0.9689,0.0,0.0,0.0,0.0,0.0,0.0,0.0,0.0,0.0,0.0,0.0,0.0,0.0,0.0,0.0,0.0,0.0,0.0,0.0,0.0,0.0,0.0,0.0,0.0,0.0,0.0,0.0,0.0,0.0,0.0,0.0,0.0,0.0,0.0,0.0,0.0,0.0,0.0,0.0,0.0,0.0,0.0,0.0,0.0,0.0,0.0,0.0,0.0,0.0,0.0,0.0,0.0,0.0,0.0,0.0,0.0,0.0,0.0,0.0,0.0,0.0,0.0,0.0,0.0,0.0,0.0,0.0,0.0,0.0,0.0,0.0,0.0,0.0,0.0,0.0,0.0,0.0,0.0,0.0,0.0,0.0,0.0,0.0,0.0,0.0,0.0,0.0,0.0,0.0,0.0,0.0,0.0,0.0,0.0,0.0,0.0,0.0,0.0,0.0,0.0,0.0,0.0,-0.9337,-0.9689,-1.0006,0.0,-1.0339,-1.0566,-1.068,-1.0249,-0.9998,-1.0054,0.0,0.0,0.0,0.0,0.0,0.0,0.0,0.0,0.0,0.0,0.0,0.0,0.0,0.0,0.0,0.0,0.0,0.0,0.0,0.0,0.0,0.0,0.0,0.0,0.0,0.0,0.0,0.0,0.0,0.0,0.0,0.0,0.0,0.0,0.0,0.0,0.0,0.0,0.0,0.0,0.0,0.0,0.0,0.0,0.0,0.0,0.0,0.0,0.0,0.0,0.0,0.0,0.0,0.0,0.0,0.0,0.0,0.0,0.0,0.0,0.0,0.0,0.0,0.0,0.0,0.0,0.0,0.0,0.0,0.0,0.0,0.0,0.0,0.0,0.0,0.0,0.0,0.0,0.0,0.0,0.0,0.0,0.0,0.0,0.0,0.0,0.0,0.0,0.0,0.0,0.0,0.0,0.0,0.0,0.0,0.0,0.0,0.0,0.0,0.0,0.0,0.0,-0.9559,-0.9632,-0.9843,-1.0379,-1.0274,-1.0314,-1.0664,-1.0363,-1.0241,0.0,0.0,0.0,0.0,0.0,0.0,0.0,0.0,0.0,0.0,0.0,0.0,0.0,0.0,0.0,0.0,0.0,0.0,0.0,0.0,0.0,0.0,0.0,0.0,0.0,0.0,0.0,0.0,0.0,0.0,0.0,0.0,0.0,0.0,0.0,0.0,0.0,0.0,0.0,0.0,0.0,0.0,0.0,0.0,0.0,0.0,0.0,0.0,0.0,0.0,0.0,0.0,0.0,0.0,0.0,0.0,0.0,0.0,0.0,0.0,0.0,0.0,0.0,0.0,0.0,0.0,0.0,0.0,0.0,0.0,0.0,0.0,0.0,0.0,0.0,0.0,0.0,0.0,0.0,0.0,0.0,0.0,0.0,0.0,0.0,0.0,0.0,0.0,0.0,0.0,0.0,0.0,0.0,0.0,0.0,0.0,0.0,0.0,0.0,0.0,0.0,0.0,0.0,0.0,-1.0038,-1.0257,-1.042,-1.0493,-1.0574,-1.068,-1.0363,-1.0128,-1.0054,0.0,0.0,0.0,0.0,0.0,0.0,0.0,0.0,0.0,0.0,0.0,0.0,0.0,0.0,0.0,0.0,0.0,0.0,0.0,0.0,0.0,0.0,0.0,0.0,0.0,0.0,0.0,0.0,0.0,0.0,0.0,0.0,0.0,0.0,0.0,0.0,0.0,0.0,0.0,0.0,0.0,0.0,0.0,0.0,0.0,0.0,0.0,0.0,0.0,0.0,0.0,0.0,0.0,0.0,0.0,0.0,0.0,0.0,0.0,0.0,0.0,0.0,0.0,0.0,0.0,0.0,0.0,0.0,0.0,0.0,0.0,0.0,0.0,0.0,0.0,0.0,0.0,0.0,0.0,0.0,0.0,0.0,0.0,0.0,0.0,0.0,0.0,0.0,0.0,0.0,0.0,0.0,0.0,0.0,0.0,0.0,0.0,0.0,0.0,0.0,0.0,0.0,-0.9835,-1.0209,-1.0461,-1.0526,-1.0696,-1.0834,-1.0899,-1.0517,-1.0282,-1.0314,0.0,0.0,0.0,0.0,0.0,0.0,0.0,0.0,0.0,0.0,0.0,0.0,0.0,0.0,0.0,0.0,0.0,0.0,0.0,0.0,0.0,0.0,0.0,0.0,0.0,0.0,0.0,0.0,0.0,0.0,0.0,0.0,0.0,0.0,0.0,0.0,0.0,0.0,0.0,0.0,0.0,0.0,0.0,0.0,0.0,0.0,0.0,0.0,0.0,0.0,0.0,0.0,0.0,0.0,0.0,0.0,0.0,0.0,0.0,0.0,0.0,0.0,0.0,0.0,0.0,0.0,0.0,0.0,0.0,0.0,0.0,0.0,0.0,0.0,0.0,0.0,0.0,0.0,0.0,0.0,0.0,0.0,0.0,0.0,0.0,0.0,0.0,0.0,0.0,0.0,0.0,0.0,0.0,0.0,0.0,0.0,0.0,0.0,0.0,0.0,0.0,0.0,-0.9892,-1.0241,-1.0517,-1.0672,-1.0842,-1.1005,-1.1159,-1.0737,-1.0599,-1.0923,0.0,0.0,0.0,0.0,0.0,0.0,0.0,0.0,0.0,0.0,0.0,0.0,0.0,0.0,0.0,0.0,0.0,0.0,0.0,0.0,0.0,0.0,0.0,0.0,0.0,0.0,0.0,0.0,0.0,0.0,0.0,0.0,0.0,0.0,0.0,0.0,0.0,0.0,0.0,0.0,0.0,0.0,0.0,0.0,0.0,0.0,0.0,0.0,0.0,0.0,0.0,0.0,0.0,0.0,0.0,0.0,0.0,0.0,0.0,0.0,-0.8658,0.0,0.0,0.0,0.0,0.0,0.0,0.0,0.0,0.0,0.0,0.0,0.0,0.0,0.0,0.0,0.0,0.0,0.0,0.0,0.0,0.0,0.0,0.0,0.0,0.0,0.0,0.0,0.0,0.0,0.0,0.0,0.0,0.0,0.0,0.0,0.0,0.0,0.0,0.0,0.0,0.0,-1.0274,-1.0501,-1.0647,-1.0688,-1.0729,-1.0769,-1.0802,-1.0704,-1.0672,-1.0745,0.0,0.0,0.0,0.0,0.0,0.0,0.0,0.0,0.0,0.0,0.0,0.0,0.0,0.0,0.0,0.0,0.0,0.0,0.0,0.0,0.0,0.0,0.0,0.0,0.0,0.0,0.0,0.0,0.0,0.0,0.0,0.0,0.0,0.0,0.0,0.0,0.0,0.0,0.0,0.0,0.0,0.0,0.0,0.0,0.0,0.0,0.0,0.0,0.0,0.0,0.0,0.0,0.0,0.0,0.0,0.0,0.0,0.0,0.0,0.0,0.0,-0.9031,0.0,0.0,0.0,0.0,0.0,0.0,0.0,0.0,0.0,0.0,0.0,0.0,0.0,0.0,0.0,0.0,0.0,0.0,0.0,0.0,0.0,0.0,0.0,0.0,0.0,0.0,0.0,0.0,0.0,0.0,0.0,0.0,0.0,0.0,0.0,0.0,0.0,0.0,0.0,0.0,-1.0501,-1.0712,-1.0858,-1.094,-1.111,-1.1216,-1.1216,-1.1045,-1.0948,-1.0948,-1.0623,0.0,0.0,0.0,0.0,0.0,0.0,0.0,0.0,0.0,0.0,0.0,0.0,0.0,0.0,0.0,0.0,0.0,0.0,0.0,0.0,0.0,0.0,0.0,0.0,0.0,0.0,0.0,0.0,0.0,0.0,0.0,0.0,0.0,0.0,0.0,0.0,0.0,0.0,0.0,0.0,0.0,0.0,0.0,0.0,0.0,0.0,0.0,0.0,0.0,0.0,0.0,0.0,0.0,0.0,0.0,-0.9234,-0.9234,-0.925,-0.9299,-0.9624,-0.9527,-0.9161,0.0,0.0,0.0,0.0,0.0,0.0,0.0,0.0,0.0,0.0,0.0,0.0,0.0,0.0,0.0,0.0,0.0,0.0,0.0,0.0,0.0,0.0,0.0,0.0,0.0,-0.9543,-0.9413,0.0,0.0,0.0,0.0,0.0,0.0,0.0,0.0,0.0,0.0,0.0,0.0,-1.0639,-1.0907,-1.1102,-1.1208,-1.15,-1.1679,-1.1679,-1.1427,-1.1273,-1.1273,-1.0834,-1.0574,0.0,0.0,0.0,0.0,0.0,0.0,0.0,0.0,0.0,0.0,0.0,0.0,0.0,0.0,0.0,0.0,0.0,0.0,0.0,0.0,0.0,0.0,0.0,0.0,0.0,0.0,0.0,0.0,0.0,0.0,0.0,0.0,-0.7551,-0.7472,0.0,0.0,0.0,0.0,0.0,0.0,0.0,0.0,0.0,0.0,0.0,0.0,0.0,0.0,-0.9315,-0.9324,-0.9332,-0.9356,-0.9494,-0.964,-0.9778,-0.9778,-0.9868,-1.003,-1.0241,0.0,-0.9315,-0.921,0.0,0.0,0.0,0.0,0.0,0.0,0.0,0.0,0.0,0.0,0.0,0.0,0.0,0.0,0.0,0.0,0.0,0.0,0.0,0.0,0.0,0.0,-0.9933,-1.0249,-1.029,-1.0274,0.0,-0.9835,-0.9388,-0.9388,0.0,0.0,0.0,0.0,0.0,0.0,0.0,0.0,-1.0704,-1.1126,-1.1378,-1.124,-1.1265,-1.1297,-1.1297,-1.1403,-1.1459,-1.1459,-1.1248,-1.1118,-1.1118,-1.0802,0.0,0.0,0.0,0.0,0.0,0.0,0.0,0.0,0.0,0.0,0.0,0.0,0.0,0.0,0.0,0.0,0.0,0.0,0.0,0.0,0.0,0.0,0.0,0.0,0.0,0.0,0.0,0.0,0.0,-0.7626,-0.7894,-0.8195,-0.843,-0.8649,0.0,0.0,0.0,0.0,0.0,0.0,0.0,0.0,0.0,-0.9616,-0.9567,-0.9575,-0.9648,-0.986,-0.9908,-0.9811,-0.9998,-1.0063,-1.0038,-1.0038,-1.0087,-1.0168,-1.0249,-1.0103,-0.9827,-1.0054,-1.0176,-1.0225,0.0,0.0,0.0,0.0,0.0,0.0,-0.9876,0.0,0.0,0.0,0.0,0.0,0.0,0.0,0.0,0.0,0.0,0.0,0.0,0.0,0.0,-1.0396,-1.0436,-1.0461,-1.0558,-1.0412,-1.0176,0.0,-1.0014,-1.0193,-1.0193,0.0,0.0,0.0,0.0,0.0,-1.1126,-1.1443,-1.1663,-1.1671,-1.1768,-1.1833,-1.1833,-1.1809,-1.176,-1.1663,-1.1484,-1.133,-1.1224,-1.098,-1.0737,0.0,0.0,0.0,0.0,0.0,0.0,0.0,0.0,0.0,0.0,0.0,0.0,0.0,0.0,0.0,0.0,0.0,0.0,0.0,0.0,0.0,0.0,0.0,0.0,0.0,0.0,0.0,0.0,-0.8081,-0.8373,-0.8771,-0.8787,-0.8909,0.0,0.0,0.0,0.0,0.0,0.0,-0.9681,-0.9567,-0.9575,-0.9762,-0.9892,-0.9957,-0.9957,-1.0274,-1.0363,-1.0233,-1.0412,-1.0452,-1.0371,-1.0371,-1.0387,-1.0436,-1.0485,-1.0501,-1.0517,-1.0688,-1.0712,-1.0639,-1.0777,-1.0777,0.0,-1.0501,-1.0436,-1.0412,-1.0225,-1.016,-1.016,-1.016,0.0,-1.0233,-1.0233,0.0,0.0,0.0,0.0,-1.0477,-1.0387,0.0,-1.0599,-1.0688,-1.0704,-1.0753,-1.0932,-1.111,-1.107,0.0,-1.0509,-1.0639,-1.0639,0.0,0.0,0.0,0.0,-1.1338,-1.1598,-1.1801,-1.1963,-1.2085,-1.2223,-1.2304,-1.2304,-1.2182,-1.2044,-1.1922,-1.1736,-1.1557,-1.137,-1.12,-1.1062,0.0,0.0,0.0,0.0,0.0,0.0,0.0,0.0,0.0,0.0,0.0,0.0,0.0,0.0,0.0,0.0,0.0,0.0,0.0,0.0,0.0,0.0,0.0,0.0,0.0,0.0,0.0,0.0,0.0,0.0,-0.882,-0.9112,0.0,0.0,0.0,0.0,-0.938,-0.9518,-0.9689,-0.986,-0.986,-0.9941,-1.0128,-1.0144,-1.0144,-1.0144,-1.0339,-1.0428,-1.042,-1.0599,-1.0769,-1.0932,-1.0932,-1.1021,-1.1175,-1.1354,-1.1435,-1.137,-1.0542,-1.0298,-1.0444,-1.0461,-1.0558,-1.0672,-1.0501,-1.0436,-1.0412,-1.0225,-1.016,-1.016,-1.016,-1.0282,-1.042,-1.042,-1.0534,0.0,0.0,-1.0672,-1.072,-1.0883,-1.0932,-1.1029,-1.1362,-1.1443,-1.15,-1.1687,-1.1857,-1.1768,0.0,-1.107,-1.1183,-1.1183,0.0,0.0,-1.1468,-1.176,-1.1979,-1.2004,-1.2166,-1.228,-1.2288,-1.2304,-1.2304,-1.2304,-1.2296,-1.2288,-1.228,-1.2109,-1.1922,-1.1752,-1.1573,-1.1313,-1.0972,-1.0769,0.0,0.0,0.0,0.0,0.0,0.0,0.0,0.0,0.0,0.0,0.0,0.0,0.0,0.0,0.0,0.0,0.0,0.0,0.0,0.0,0.0,0.0,0.0,0.0,0.0,0.0,0.0,0.0,-0.9299,-0.9348,0.0,0.0,-0.9657,-0.9762,-0.9697,-0.9868,-0.9998,-1.0063,-1.0176,-1.0274,-1.0339,-1.0558,-1.068,-1.068,-1.0972,-1.1062,-1.094,-1.1126,-1.1248,-1.1313,-1.1313,-1.1411,-1.1581,-1.1646,-1.1679,-1.1654,-1.133,-1.1167,-1.1118,-1.1118,-1.1086,-1.1021,-1.0964,-1.094,-1.0932,-1.0867,-1.0842,-1.0842,-1.0842,-1.0891,-1.094,-1.094,-1.098,-1.1062,-1.1175,-1.1216,-1.1256,-1.1443,-1.1492,-1.1549,-1.1784,-1.1841,-1.189,-1.2077,-1.2166,-1.2134,-1.1882,-1.1784,-1.1744,-1.1744,-1.1792,-1.1882,-1.2004,-1.2125,-1.2247,-1.2361,-1.2434,-1.2515,-1.2637,-1.2645,-1.2645,-1.2645,-1.2645,-1.2596,-1.2483,-1.241,-1.2296,-1.2125,-1.1939,-1.1727,-1.1492,-1.1305,-1.107,0.0,0.0,0.0,0.0,0.0,0.0,0.0,0.0,0.0,0.0,0.0,0.0,0.0,0.0,0.0,0.0,0.0,0.0,0.0,0.0,0.0,0.0,0.0,0.0,0.0,0.0,-0.9226,-0.9583,-0.9575,-0.9583,-0.9705,-0.9876,-1.0006,-1.0071,-1.0184,-1.0306,-1.0428,-1.055,-1.0639,-1.0696,-1.0932,-1.1086,-1.1151,-1.1443,-1.1557,-1.1492,-1.1687,-1.1768,-1.1768,-1.1768,-1.1841,-1.1955,-1.1955,-1.1955,-1.1955,-1.1955,-1.1882,-1.176,-1.1638,-1.1516,-1.1411,-1.1411,-1.1411,-1.1411,-1.1411,-1.1411,-1.1411,-1.1411,-1.1451,-1.1492,-1.1492,-1.1541,-1.1614,-1.1736,-1.1768,-1.1801,-1.1922,-1.1955,-1.1987,-1.2093,-1.2125,-1.2174,-1.2353,-1.2393,-1.241,-1.2475,-1.2288,-1.2125,-1.2125,-1.2174,-1.2255,-1.2377,-1.245,-1.2532,-1.2637,-1.2653,-1.2702,-1.2824,-1.284,-1.284,-1.284,-1.284,-1.2783,-1.2661,-1.2653,-1.258,-1.2402,-1.2272,-1.2134,-1.1955,-1.1776,-1.15,-1.1151,0.0,0.0,0.0,0.0,0.0,0.0,0.0,0.0,0.0,0.0,0.0,0.0,0.0,0.0,0.0,0.0,0.0,0.0,0.0,0.0,0.0,0.0,0.0,-0.9356,-0.9518,-0.9632,-0.9632,-0.9786,-0.9892,-0.99,-1.0071,-1.0257,-1.0436,-1.0452,-1.0607,-1.0956,-1.0988,-1.107,-1.1232,-1.1248,-1.1338,-1.1524,-1.1703,-1.1874,-1.2036,-1.2223,-1.2312,-1.2312,-1.2312,-1.232,-1.232,-1.232,-1.232,-1.232,-1.232,-1.232,-1.2288,-1.1931,-1.1792,-1.1792,-1.1792,-1.1792,-1.1792,-1.1792,-1.1792,-1.1792,-1.1792,-1.1906,-1.2036,-1.2036,-1.2166,-1.2312,-1.2312,-1.2312,-1.2312,-1.232,-1.232,-1.232,-1.232,-1.232,-1.2369,-1.2532,-1.2572,-1.2629,-1.2808,-1.2564,-1.2328,-1.232,-1.2458,-1.2572,-1.2572,-1.2726,0.0,-1.284,-1.284,-1.2848,-1.2848,-1.2848,-1.2856,-1.2856,-1.2856,-1.2848,-1.2848,-1.2848,-1.2767,-1.258,-1.2572,-1.2491,-1.232,-1.2134,-1.1866,-1.1516,0.0,0.0,0.0,0.0,0.0,0.0,0.0,0.0,0.0,0.0,0.0,0.0,0.0,0.0,0.0,0.0,0.0,0.0,0.0,0.0,0.0,0.0,-0.9502,-0.9372,-0.9616,-0.9811,-0.9811,-0.9973,-1.0136,-1.0274,-1.0444,-1.0623,-1.081,-1.094,-1.1045,-1.1151,-1.1411,-1.1573,-1.1622,-1.1874,-1.2036,-1.2085,-1.2134,-1.2182,-1.2231,-1.228,-1.2377,-1.2491,-1.2491,-1.2564,-1.2694,-1.2694,-1.2694,-1.2694,-1.2694,-1.2694,-1.2653,-1.2304,-1.2158,-1.2158,-1.2158,-1.2158,-1.2158,-1.2158,-1.2158,-1.2158,-1.2158,-1.219,-1.2231,-1.2231,-1.2264,-1.2328,-1.2458,-1.2491,-1.2523,-1.2653,-1.2694,-1.2694,-1.2694,-1.2694,-1.2702,-1.2751,-1.2759,-1.2816,-1.2986,-1.2946,-1.284,-1.271,-1.2735,-1.2759,-1.2759,0.0,0.0,-1.284,-1.2946,-1.3027,-1.3027,-1.3149,-1.3222,-1.3222,-1.3222,-1.3165,0.0,-1.3027,-1.2946,-1.2767,-1.2759,-1.2678,-1.2499,-1.232,-1.2117,0.0,0.0,0.0,0.0,0.0,0.0,0.0,0.0,0.0,0.0,0.0,0.0,0.0,0.0,0.0,0.0,0.0,0.0,0.0,0.0,0.0,0.0,-0.9803,-0.9721,-0.9697,-0.9868,-1.003,-1.0103,-1.0274,-1.0452,-1.0639,-1.0818,-1.1021,-1.1289,-1.1395,-1.1516,-1.1671,-1.1882,-1.1996,-1.1996,-1.2199,-1.2345,-1.241,-1.2418,-1.245,-1.2532,-1.2532,-1.258,-1.2678,-1.2678,-1.2735,0.0,-1.284,-1.284,-1.284,-1.284,-1.284,0.0,0.0,0.0,0.0,0.0,-1.2532,-1.2532,-1.2532,-1.2532,-1.2532,-1.2532,-1.2532,-1.2532,-1.2532,-1.2532,-1.2548,-1.2645,-1.2678,-1.2718,-1.2897,-1.2946,-1.2962,-1.3043,-1.3059,-1.3059,-1.3059,-1.3059,-1.3092,-1.3189,0.0,0.0,-1.3076,-1.3059,-1.3059,-1.3059,-1.3059,-1.3059,0.0,-1.3149,-1.3206,-1.3206,-1.3303,-1.3368,-1.3368,-1.3368,0.0,0.0,0.0,-1.3133,-1.2954,0.0,0.0,0.0,0.0,0.0,0.0,0.0,0.0,0.0,-1.1427,-1.1346,0.0,0.0,0.0,0.0,0.0,0.0,0.0,0.0,0.0,0.0,0.0,0.0,0.0,0.0,0.0,0.0,-0.9965,-1.003,-1.0201,-1.0257,-1.0331,-1.0452,-1.0631,-1.0834,-1.1037,-1.1191,-1.1435,-1.1809,-1.1833,-1.1971,0.0,0.0,0.0,0.0,0.0,-1.2442,-1.2596,-1.2596,-1.2678,-1.284,-1.284,-1.284,-1.284,-1.2856,-1.2865,-1.2865,-1.2889,-1.2897,-1.2897,-1.2897,-1.2897,-1.2889,-1.2848,-1.284,-1.284,-1.284,-1.2848,0.0,0.0,0.0,0.0,-1.2897,-1.2897,-1.2897,-1.2897,-1.2897,-1.2897,-1.2897,-1.2897,-1.2929,-1.3084,-1.3124,-1.3165,-1.3336,-1.3368,-1.3368,-1.3368,-1.3368,-1.3376,-1.3401,-1.3401,-1.3409,-1.3425,-1.3401,-1.3368,-1.3368,-1.3368,0.0,-1.3368,-1.3392,-1.3401,-1.3401,0.0,0.0,-1.3433,-1.3433,-1.3425,-1.3401,-1.3384,-1.3295,-1.3133,-1.3124,-1.3051,-1.2897,-1.2897,-1.2816,-1.2653,-1.2637,-1.2548,-1.2385,-1.2012,-1.1833,0.0,0.0,0.0,0.0,0.0,0.0,0.0,0.0,0.0,0.0,0.0,0.0,0.0,0.0,0.0,-1.0274,-1.0444,-1.055,-1.0582,-1.0834,-1.0923,-1.0672,-1.0923,-1.1256,-1.1589,-1.1654,-1.1817,-1.2174,-1.2207,-1.2231,-1.2304,-1.2442,0.0,-1.2515,-1.2653,-1.2751,-1.2783,-1.2783,-1.28,-1.284,0.0,0.0,-1.284,-1.2978,-1.3043,-1.3051,-1.3206,-1.3271,-1.3271,-1.3271,-1.3271,-1.3238,-1.2954,-1.284,-1.284,-1.284,-1.2921,-1.3043,-1.3043,-1.3141,-1.3271,-1.3271,-1.3271,-1.3271,-1.3271,-1.3271,0.0,-1.3271,-1.3271,-1.3279,-1.3311,-1.3319,-1.3327,-1.336,-1.3368,-1.3368,-1.3368,-1.3368,-1.3417,-1.3563,-1.3595,-1.3636,-1.3774,-1.3563,-1.3368,-1.3368,-1.3368,-1.3368,-1.3368,-1.3498,-1.3595,-1.3595,-1.3717,-1.3798,-1.3798,-1.3798,-1.3742,-1.3604,-1.3449,-1.3352,-1.3319,-1.3319,-1.3303,-1.3271,-1.3271,-1.3246,-1.3214,-1.3068,-1.2978,-1.2929,-1.2434,-1.2207,0.0,0.0,0.0,0.0,0.0,0.0,0.0,0.0,0.0,0.0,0.0,-0.9843,0.0,0.0,-1.0347,-1.0534,-1.0712,-1.0858,-1.0948,-1.1273,-1.1435,-1.1256,-1.1395,-1.1638,-1.2004,-1.2044,-1.215,-1.2418,-1.2434,-1.2475,-1.2564,-1.2653,-1.2702,-1.2702,-1.2791,-1.284,-1.284,-1.2921,-1.2962,-1.297,-1.3059,-1.31,-1.3108,-1.3197,-1.323,-1.3238,-1.3327,-1.3368,-1.3368,-1.3368,-1.3368,-1.3352,-1.3173,-1.31,-1.31,-1.31,-1.3157,-1.323,-1.323,-1.3295,-1.3368,-1.3368,-1.3368,-1.3368,-1.3368,-1.3368,-1.3368,-1.3368,-1.3368,-1.3392,-1.3482,-1.3506,-1.353,-1.362,-1.3709,-1.3774,-1.3774,-1.3839,-1.3928,-1.4018,-1.4034,-1.4066,-1.4148,-1.4018,-1.3872,-1.379,-1.3847,-1.3904,-1.3904,-1.3977,-1.4034,-1.4034,-1.4115,-1.4164,-1.4164,-1.4164,-1.4131,-1.4042,-1.3872,-1.3734,-1.3644,-1.3555,-1.3465,-1.3376,-1.3368,-1.3368,-1.3368,-1.3279,-1.323,-1.3222,-1.2962,-1.2791,0.0,0.0,0.0,0.0,0.0,0.0,0.0,0.0,-0.9811,-1.0103,-1.016,-1.0225,-1.0444,-1.0599,-1.0712,-1.0785,-1.098,-1.1175,-1.1313,-1.1646,-1.189,-1.1922,-1.1898,-1.2004,-1.2328,-1.2353,-1.2426,-1.2605,-1.2613,-1.2678,-1.2832,-1.284,-1.2848,-1.2889,-1.2889,-1.2905,-1.2938,-1.3076,-1.3149,-1.3149,-1.3295,-1.3368,-1.3376,-1.3409,-1.3425,-1.3425,-1.3457,-1.3474,-1.3474,-1.3474,-1.3474,-1.3474,-1.3474,-1.3498,-1.3514,-1.3409,-1.3392,-1.3425,-1.3425,-1.3441,-1.3474,-1.3474,-1.3474,-1.3474,-1.3474,-1.3498,-1.353,-1.353,-1.3555,-1.3612,-1.3758,-1.3798,-1.3831,-1.3969,-1.4115,-1.4229,-1.4229,-1.4335,-1.4432,-1.4432,-1.4432,-1.4432,-1.4432,-1.4464,-1.4424,-1.4253,-1.4343,-1.4432,-1.4432,-1.4432,-1.4432,-1.4432,-1.4432,-1.4432,-1.4432,-1.4432,-1.4432,-1.4432,-1.4302,-1.4164,-1.401,-1.3872,-1.3725,-1.3579,-1.3579,-1.3579,-1.3579,-1.3547,-1.353,-1.3522,-1.349,-1.336,-1.0141,0.0,0.0,-0.9665,-0.9746,-0.986,0.0,0.0,-1.0111,-1.0152,-1.016,-1.0266,-1.0599,-1.068,-1.0794,-1.111,-1.1459,-1.1695,-1.1711,-1.202,-1.2304,-1.2458,-1.2345,-1.232,-1.2515,-1.254,-1.2613,-1.2791,-1.2808,-1.2816,-1.2832,-1.284,-1.2905,-1.3059,-1.3068,-1.3149,-1.3311,-1.3327,-1.3336,-1.3344,-1.336,-1.3368,-1.3376,-1.3539,-1.3612,-1.362,-1.3774,-1.3839,-1.3839,-1.3839,-1.3839,-1.3839,-1.3839,-1.3945,-1.4026,-1.3547,-1.3474,-1.3612,-1.3612,-1.3709,-1.3839,-1.3839,-1.3839,-1.3839,-1.3839,-1.3961,-1.4091,-1.4091,-1.4196,-1.4318,-1.4335,-1.4343,-1.4351,-1.4367,-1.4383,-1.4408,-1.4408,-1.4416,-1.4432,-1.4432,-1.4432,-1.4432,-1.4432,-1.457,-1.4611,-1.4432,-1.4416,-1.4432,-1.4432,-1.4432,-1.4432,-1.4432,-1.4432,-1.4432,-1.4432,-1.4432,-1.4432,-1.4432,-1.4416,-1.4391,-1.4375,-1.4351,-1.4335,-1.431,-1.431,-1.431,-1.431,-1.4164,-1.4091,-1.4083,-1.392,-1.366,-1.0037,0.0,0.0,0.0,-1.0071,-1.0201,-1.0201,-1.0266,-1.0347,-1.0452,-1.0469,-1.0582,-1.094,-1.1086,-1.1248,0.0,-1.176,-1.1963,-1.2069,-1.2296,-1.2483,-1.2556,-1.2596,-1.2645,-1.2718,-1.2726,-1.2751,-1.2832,-1.284,-1.2881,-1.2978,-1.2986,-1.3068,-1.3246,-1.3254,-1.3295,-1.3368,-1.3474,-1.353,-1.353,-1.3628,-1.3677,-1.3685,-1.3758,-1.3855,-1.3961,-1.414,-1.4205,-1.4205,-1.4205,-1.4205,-1.4205,-1.4205,-1.4261,-1.4286,-1.3961,-1.3953,-1.4099,-1.4099,-1.4148,-1.4205,-1.4205,-1.4205,-1.4205,-1.4205,-1.4261,-1.4326,-1.4326,-1.4375,-1.4432,-1.4432,-1.4432,-1.4432,-1.4432,-1.4513,-1.4594,-1.4594,-1.4667,-1.4741,-1.4741,-1.4741,-1.4741,-1.4741,-1.4806,-1.483,-1.4757,-1.4741,-1.4741,-1.4741,-1.4741,-1.4741,-1.4741,-1.4741,-1.4741,-1.4741,-1.4741,-1.4741,-1.4741,-1.4651,-1.4594,-1.4594,-1.4489,-1.4432,-1.4432,-1.4432,-1.4432,-1.4432,-1.4359,-1.4326,-1.4326,-1.4245,-1.4131,-1.0205,0.0,0.0,-1.0314,-1.0257,-1.0387,-1.0485,-1.0509,-1.0566,-1.0794,-1.0842,-1.0932,-1.124,-1.1451,-1.1638,-1.1817,-1.2036,-1.2223,-1.2361,-1.2532,-1.2637,-1.2637,-1.2759,-1.284,-1.284,-1.284,-1.2856,-1.2905,-1.2905,-1.2986,-1.3157,-1.3173,-1.3254,-1.3441,-1.3449,-1.3474,-1.3514,-1.3652,-1.3717,-1.3717,-1.3896,-1.3977,-1.3977,-1.4026,-1.4123,-1.4253,-1.4375,-1.4432,-1.4432,-1.4432,-1.4432,-1.4432,-1.4432,-1.4464,-1.4497,-1.4367,-1.4367,-1.4432,-1.4432,-1.4432,-1.4432,-1.4432,-1.4432,-1.4432,-1.4432,-1.4464,-1.4505,-1.4505,-1.4546,-1.4578,-1.4578,-1.4578,-1.4578,-1.4578,-1.4684,-1.4781,-1.4781,-1.4879,-1.4968,-1.4968,-1.5009,-1.5041,-1.5041,-1.5082,-1.5114,-1.5114,-1.5114,-1.5082,-1.4976,-1.4968,-1.4968,-1.4968,-1.4968,-1.4968,-1.4968,-1.4968,-1.4968,-1.4968,-1.4846,-1.4781,-1.4781,-1.4651,-1.4578,-1.4578,-1.4578,-1.4578,-1.4578,-1.4578,-1.4578,-1.4578,-1.4578,-1.4578,-1.0461,0.0,-1.0387,-1.0209,-1.0168,-1.0257,-1.0607,-1.068,-1.0785,-1.1135,-1.1208,-1.1265,-1.1459,-1.1646,-1.1825,-1.1996,-1.232,-1.2548,-1.2556,-1.271,-1.2832,-1.2832,-1.2832,-1.284,0.0,-1.284,-1.2905,-1.3076,-1.3084,-1.3165,-1.3352,-1.336,-1.3449,-1.3628,-1.3636,-1.3717,-1.3888,-1.3888,-1.3896,-1.3896,-1.4083,-1.4172,-1.418,-1.4343,-1.4416,-1.4424,-1.4432,-1.4432,-1.4432,-1.4432,-1.4432,-1.4432,-1.4432,-1.4546,-1.47,-1.4692,-1.4578,-1.4432,-1.4432,-1.4432,-1.4432,-1.4432,-1.4432,-1.4432,-1.4432,-1.4554,-1.47,-1.47,-1.4822,-1.4952,-1.4952,-1.4952,-1.4952,-1.4952,-1.4952,-1.496,-1.496,-1.496,-1.4968,-1.4968,-1.5106,-1.5228,-1.5228,-1.5382,-1.5496,-1.5496,-1.5496,-1.5366,-1.5009,-1.4968,-1.4968,-1.4968,-1.4968,-1.4968,-1.4968,-1.4968,-1.4968,-1.4968,-1.496,-1.496,-1.496,-1.4952,-1.4952,-1.4952,-1.4952,-1.4952,-1.4952,-1.4952,-1.4952,-1.4952,-1.4952,-1.4952,-1.0306,-1.0517,-1.0745,-1.0558,-1.0688,-1.0899,-1.1013,-1.1045,-1.111,-1.1354,-1.15,-1.1646,-1.1817,-1.2004,-1.2182,-1.2353,-1.2483,-1.2605,-1.2726,-1.28,-1.284,-1.284,-1.284,0.0,0.0,0.0,0.0,-1.3092,-1.3206,-1.336,-1.3547,-1.3555,-1.3636,-1.3807,-1.3815,-1.3904,-1.4083,-1.4083,-1.414,-1.4253,-1.4318,-1.4351,-1.4351,-1.4538,-1.4611,-1.4619,-1.4741,-1.4789,-1.4789,-1.4789,-1.4789,-1.4789,-1.4789,-1.4822,-1.4879,-1.4879,-1.4838,-1.4789,-1.4789,-1.4789,-1.4789,-1.4789,-1.4789,-1.4789,-1.4789,-1.483,-1.4879,-1.4879,-1.4919,-1.4968,-1.4968,-1.4968,-1.5,-1.5122,-1.5147,-1.5179,-1.5301,-1.5333,-1.5333,-1.5333,-1.5382,-1.5423,-1.5423,-1.5472,-1.5512,-1.5512,-1.5512,-1.5472,-1.535,-1.5333,-1.5333,-1.5333,-1.5333,-1.5333,-1.5333,-1.5333,-1.5333,-1.5333,-1.5333,-1.5333,-1.5333,-1.5333,-1.5333,-1.5333,-1.5333,-1.5333,-1.5333,-1.5333,-1.5333,-1.5333,-1.5333,-1.5333,-1.0469,-1.0704,-1.0956,-1.0899,-1.1053,-1.124,-1.1305,-1.1321,-1.1386,-1.1638,-1.1784,-1.1922,-1.2093,-1.228,-1.2434,-1.2548,-1.2621,-1.2702,-1.2824,-1.284,-1.284,-1.284,-1.2889,0.0,0.0,0.0,0.0,-1.3287,-1.3401,-1.3547,-1.3725,-1.3734,-1.3815,-1.3993,-1.4002,-1.4083,-1.427,-1.427,-1.4359,-1.4529,-1.4529,-1.4562,-1.4627,-1.4749,-1.4797,-1.4806,-1.4919,-1.4968,-1.4968,-1.4968,-1.4968,-1.4968,-1.4968,-1.4968,-1.4976,-1.5041,-1.5065,-1.5057,-1.4992,-1.4968,-1.4968,-1.4968,-1.4968,-1.4976,-1.5041,-1.5065,-1.5074,-1.5147,-1.5163,-1.5163,-1.5163,-1.5163,-1.5195,-1.5309,-1.5333,-1.5374,-1.5488,-1.5512,-1.5512,-1.5353,-1.5249,-1.5289,-1.5129,-1.5176,-1.5215,-1.5215,-1.5215,-1.5176,-1.5209,-1.5194,-1.5034,-1.5034,-1.5194,-1.5194,-1.5194,-1.5353,-1.5512,-1.5512,-1.5512,-1.5512,-1.5512,-1.5512,-1.5512,-1.5512,-1.5512,-1.5512,-1.5512,-1.5512,-1.5512,-1.5512,-1.5512,-1.5512,-1.0923,-1.098,-1.1037,-1.12,-1.124,-1.1297,-1.1476,-1.1524,-1.1622,-1.1963,-1.2044,-1.2109,0.0,0.0,-1.258,-1.258,-1.2726,-1.284,-1.284,-1.284,-1.284,0.0,0.0,0.0,0.0,0.0,0.0,-1.366,0.0,-1.3734,-1.3904,-1.3912,-1.4002,-1.4188,-1.4188,-1.427,-1.444,-1.4456,-1.4546,-1.4724,-1.4724,-1.4806,-1.4968,-1.4968,-1.4968,-1.4968,-1.4968,-1.4968,-1.4968,-1.4976,-1.4984,-1.4984,-1.4992,-1.4992,-1.5017,-1.5187,-1.5252,-1.5228,-1.5057,-1.4992,-1.4992,-1.4992,-1.4992,-1.5025,-1.5204,-1.5252,-1.5293,-1.5463,-1.5512,-1.5512,-1.5512,-1.5512,-1.552,-1.5528,-1.5528,-1.5528,-1.5536,-1.5545,-1.5385,-1.4898,-1.4869,-1.4985,-1.466,-1.4616,-1.4713,-1.4713,-1.4713,-1.4765,-1.4777,-1.4411,-1.4251,-1.4251,-1.4571,-1.4738,-1.4898,-1.5217,-1.5545,-1.5545,-1.5545,-1.5545,-1.5545,-1.5545,-1.5545,-1.5545,-1.5545,-1.5545,-1.5545,-1.5545,-1.5545,-1.5545,-1.5545,-1.5545,-1.0956,-1.1159,-1.137,-1.1419,-1.1533,-1.1646,-1.1695,-1.1801,-1.1922,-1.2012,-1.2239,-1.2442,0.0,0.0,0.0,-1.2767,-1.2808,0.0,-1.284,-1.284,0.0,-1.3011,0.0,-1.3206,-1.3474,-1.3587,0.0,0.0,-1.3831,-1.3912,-1.4099,-1.4107,-1.4188,-1.4359,-1.4367,-1.4456,-1.4635,-1.4765,-1.4854,-1.4903,-1.4903,-1.4919,-1.4968,-1.4968,-1.4968,-1.4968,-1.4968,-1.4968,-1.4976,-1.5114,-1.5171,-1.5179,-1.5317,-1.5374,-1.5382,-1.5431,-1.5447,-1.5439,-1.539,-1.5374,-1.5374,-1.5374,-1.5374,-1.5382,-1.5431,-1.5447,-1.5455,-1.5504,-1.5512,-1.5512,-1.5512,-1.5512,-1.5545,-1.5675,-1.5392,-1.5262,-1.5388,-1.5085,-1.4921,-1.4758,-1.4788,-1.4818,-1.4653,-1.4691,-1.4713,-1.4713,-1.439,-1.4361,-1.4601,-1.4586,-1.4586,-1.4586,-1.4594,-1.4921,-1.5248,-1.542,-1.5583,-1.591,-1.591,-1.591,-1.591,-1.591,-1.591,-1.591,-1.591,-1.591,-1.591,-1.591,-1.591,-1.591,-1.591,-1.591,-1.1159,-1.1346,-1.1516,-1.1598,-1.1703,-1.1792,-1.1874,-1.1963,-1.2077,-1.2231,-1.2426,0.0,0.0,0.0,0.0,0.0,0.0,0.0,-1.284,-1.2905,-1.2986,0.0,-1.3238,0.0,-1.3628,-1.379,-1.392,0.0,-1.4026,-1.4066,-1.4172,-1.4245,-1.4367,-1.4546,-1.4554,-1.4635,-1.4822,-1.4919,-1.4968,-1.4968,-1.4968,-1.4968,-1.4968,-1.4968,-1.5009,-1.5082,0.0,-1.513,-1.5212,-1.5317,-1.52,-1.505,-1.5313,-1.5353,-1.5202,-1.5441,-1.5626,-1.5642,-1.5562,-1.5424,-1.54,-1.5569,-1.5512,-1.5528,-1.561,-1.5626,-1.5642,-1.5723,-1.5586,-1.5424,-1.5424,-1.5255,-1.5116,-1.521,-1.5077,-1.4937,-1.5028,-1.4878,-1.4713,-1.439,-1.4225,-1.4059,-1.4059,-1.4059,-1.4059,-1.4059,-1.3901,-1.3901,-1.4059,-1.4059,-1.4059,-1.4059,-1.439,-1.4555,-1.5051,-1.5051,-1.5216,-1.5711,-1.5546,-1.5381,-1.5381,-1.5381,-1.5381,-1.5381,-1.5546,-1.5711,-1.5711,-1.5875,-1.6048,-1.6048,-1.6048,-1.6048,-1.1411,-1.1516,-1.1573,-1.1736,-1.1776,-1.1825,-1.1996,-1.2052,-1.2158,-1.2499,0.0,-1.2645,-1.2808,-1.284,-1.284,-1.284,0.0,-1.284,-1.284,-1.2986,-1.31,-1.3124,-1.3433,-1.3652,-1.3677,-1.3985,-1.418,-1.418,-1.4221,-1.4245,-1.4245,-1.4391,-1.4554,-1.4732,-1.4741,-1.4814,-1.496,-1.4968,-1.4968,-1.4968,-1.4968,-1.4976,-1.5,-1.4846,-1.4943,-1.512,0.0,0.0,-1.5361,-1.5377,-1.5066,-1.4746,-1.5257,-1.5097,-1.4792,-1.5424,-1.5642,-1.5666,-1.5326,-1.5381,-1.5334,-1.5361,-1.5425,-1.5449,-1.5602,-1.5642,-1.5674,-1.5835,-1.5546,-1.5381,-1.5381,-1.5051,-1.4713,-1.4713,-1.4713,-1.4548,-1.4548,-1.4548,-1.439,-1.4066,-1.3735,-1.3403,-1.3403,-1.3403,-1.3403,-1.3403,-1.3403,-1.3403,-1.3403,-1.3403,-1.3403,-1.3403,-1.3735,-1.4232,-1.4555,-1.4548,-1.4878,-1.5216,-1.4878,-1.4713,-1.4713,-1.4713,-1.4713,-1.4713,-1.5216,-1.5381,-1.5381,-1.5875,-1.6048,-1.6048,-1.6048,-1.6048,-1.1443,-1.1614,-1.1736,-1.1768,-1.1776,-1.1825,-1.1996,-1.215,0.0,0.0,-1.2686,-1.28,-1.2832,-1.284,-1.284,-1.284,-1.284,-1.284,-1.284,-1.2986,-1.3149,0.0,0.0,0.0,0.0,0.0,0.0,0.0,0.0,0.0,-1.4619,-1.4643,-1.4741,-1.4919,-1.4919,-1.4935,-1.4968,-1.4968,-1.4968,-1.4968,-1.4669,-1.4585,-1.4719,-1.4258,-1.4192,-1.4343,0.0,0.0,-1.4403,-1.4539,-1.4599,-1.4614,-1.4743,-1.4795,-1.4795,-1.4825,-1.4841,-1.4841,-1.4871,-1.4878,-1.4871,-1.481,-1.4795,-1.4803,-1.4825,-1.4841,-1.4841,-1.4871,-1.4878,-1.4878,-1.4878,-1.4713,-1.4713,-1.4713,-1.439,-1.4232,-1.4232,-1.3901,-1.3562,-1.3569,-1.3403,-1.3403,-1.3403,-1.3403,-1.3403,-1.3403,-1.3403,-1.3403,-1.3403,-1.3403,-1.3403,-1.3403,-1.3403,-1.3735,-1.4232,-1.4232,-1.439,-1.4878,-1.4713,-1.4713,-1.4713,-1.4713,-1.4713,-1.4713,-1.5216,-1.5381,-1.5381,-1.5875,-1.6048,-1.6048,-1.6048,-1.6048,-1.1565,-1.1711,-1.1776,-1.1776,-1.1776,-1.1825,-1.1996,-1.2101,-1.2239,-1.2507,-1.2629,-1.2726,-1.2824,-1.284,-1.284,-1.284,-1.284,-1.284,-1.284,-1.3068,0.0,-1.336,-1.3612,-1.3847,0.0,0.0,0.0,0.0,0.0,0.0,0.0,-1.4797,-1.4726,-1.4661,-1.4669,-1.4669,-1.4669,-1.4748,-1.4796,-1.4796,-1.4735,-1.4507,-1.4426,-1.4117,-1.4206,-1.4363,0.0,0.0,0.0,-1.4572,-1.4445,-1.4288,-1.4526,-1.4548,-1.439,-1.4548,-1.4713,-1.4713,-1.439,-1.439,-1.439,-1.4059,-1.439,-1.4713,-1.4713,-1.4713,-1.4713,-1.4713,-1.4555,-1.439,-1.439,-1.4225,-1.4059,-1.4059,-1.3901,-1.3735,-1.3735,-1.3569,-1.3424,-1.3505,-1.3519,-1.3546,-1.362,-1.3627,-1.3627,-1.3627,-1.3627,-1.3627,-1.3627,-1.3627,-1.3573,-1.3417,-1.3403,-1.3569,-1.4066,-1.3901,-1.3901,-1.439,-1.4225,-1.4059,-1.4059,-1.4059,-1.4059,-1.4059,-1.4721,-1.5051,-1.5051,-1.5711,-1.6048,-1.6048,-1.6137,-1.6178,-1.1679,-1.1776,-1.1776,-1.1776,-1.1776,-1.1825,-1.1996,-1.2028,-1.2117,-1.2442,-1.2507,-1.2564,-1.2743,-1.2775,-1.2791,-1.2832,-1.284,-1.284,-1.284,-1.3149,-1.3368,0.0,-1.3685,0.0,-1.4164,0.0,0.0,0.0,0.0,0.0,0.0,-1.4895,-1.4669,-1.4368,-1.44,-1.4415,-1.4268,-1.4579,-1.4664,-1.4507,-1.4487,-1.4411,-1.4121,-1.396,-1.4048,-1.4208,0.0,0.0,0.0,-1.4383,-1.4225,-1.3901,-1.3887,-1.3721,-1.3397,-1.3217,-1.3211,-1.3217,-1.339,-1.3397,-1.3397,-1.3403,-1.3894,-1.4383,-1.4383,-1.4383,-1.4383,-1.4383,-1.4225,-1.3901,-1.3901,-1.3756,-1.3458,-1.3485,-1.3498,-1.3498,-1.3498,-1.3498,-1.3532,-1.3648,-1.3648,-1.3661,-1.3777,-1.3797,-1.3797,-1.3797,-1.3824,-1.3838,-1.3838,-1.3838,-1.3749,-1.3519,-1.3498,-1.3665,-1.3999,-1.3665,-1.3665,-1.3999,-1.3665,-1.3498,-1.3498,-1.3498,-1.3498,-1.3498,-1.4325,-1.4651,-1.4825,-1.5656,-1.5996,-1.6162,-1.63,-1.6365,-1.1679,-1.1776,-1.1776,-1.1776,-1.1776,-1.1825,-1.1996,-1.2028,-1.2085,-1.2288,-1.2328,-1.2385,-1.2556,-1.2588,-1.2645,-1.2808,-1.284,-1.284,-1.284,-1.3149,-1.3368,-1.3368,0.0,0.0,-1.4164,0.0,0.0,0.0,0.0,0.0,0.0,-1.4661,-1.4368,-1.4368,-1.4509,-1.443,-1.3975,-1.4607,-1.4525,-1.4206,-1.3902,-1.3821,-1.3803,-1.3478,-1.3398,-1.3549,0.0,0.0,0.0,-1.3562,-1.3569,-1.3231,-1.1724,-1.1053,-1.0887,-0.9216,-0.8549,-0.8883,-1.0388,-1.1053,-1.1225,-1.2899,-1.3403,-1.3562,-1.3562,-1.3562,-1.3562,-1.3562,-1.3569,-1.3403,-1.3403,-1.3505,-1.3641,-1.377,-1.3797,-1.3797,-1.3797,-1.3797,-1.3804,-1.3817,-1.3715,-1.3634,-1.3648,-1.3648,-1.3648,-1.3648,-1.3756,-1.3838,-1.3838,-1.3838,-1.3831,-1.3804,-1.3797,-1.3804,-1.3797,-1.3804,-1.3804,-1.3797,-1.3804,-1.3797,-1.3797,-1.3797,-1.3797,-1.3797,-1.4316,-1.4657,-1.5175,-1.5678,-1.6188,-1.6527,-1.6552,-1.6552,-1.1703,-1.1776,-1.1776,-1.1776,-1.1776,-1.1792,-1.1857,-1.1874,-1.1931,-1.2101,-1.2142,-1.2223,-1.2507,-1.2564,-1.2621,-1.2808,-1.284,-1.2873,-1.2978,-1.3214,-1.3409,-1.3522,-1.3847,0.0,0.0,0.0,0.0,0.0,0.0,0.0,0.0,0.0,-1.4407,-1.4509,-1.4415,-1.4185,-1.4132,-1.4456,-1.4378,-1.3893,-1.3994,-1.3746,-1.3473,-1.3308,-1.3342,0.0,0.0,0.0,0.0,-1.1724,-1.1059,-1.0055,-0.9388,-0.9054,-0.9054,-0.8219,-0.8052,-0.8219,-1.0055,-1.0721,-1.107,-1.2836,-1.3539,-1.3519,-1.3431,-1.3464,-1.3539,-1.3539,-1.36,-1.3661,-1.3661,-1.3709,-1.377,-1.3824,-1.3777,-1.3715,-1.3715,-1.3641,-1.36,-1.3695,-1.3736,-1.3783,-1.3878,-1.3973,-1.4034,-1.4034,-1.4082,-1.4116,-1.4116,-1.4116,-1.4116,-1.4116,-1.3953,-1.3838,-1.3838,-1.3838,-1.3838,-1.3838,-1.3838,-1.3838,-1.3838,-1.3838,-1.3838,-1.3838,-1.4187,-1.4529,-1.47,-1.5213,-1.5724,-1.6236,-1.6347,-1.6395,-1.1727,-1.1776,-1.1655,-1.1285,-1.1526,-1.1655,-1.1285,-1.1526,-1.1809,-1.1931,-1.1955,-1.206,-1.2426,-1.2491,-1.2564,-1.28,-1.284,-1.2897,-1.3068,-1.3254,-1.3457,-1.3693,0.0,0.0,0.0,0.0,0.0,0.0,0.0,0.0,0.0,0.0,-1.4407,-1.4523,-1.4418,-1.4336,-1.4143,-1.4467,-1.4222,-1.3732,-1.3349,-1.2899,-1.2561,-1.2063,-1.1724,0.0,0.0,0.0,0.0,-0.9888,-0.9221,-0.7881,-0.7379,-0.7212,-0.7212,-0.6714,-0.6379,-0.6717,-0.8579,-0.9431,-1.0289,-1.2276,-1.318,-1.3675,-1.3566,-1.3607,-1.3688,-1.3688,-1.3763,-1.3851,-1.3899,-1.3871,-1.3851,-1.3899,-1.3831,-1.3763,-1.3763,-1.3709,-1.3702,-1.3804,-1.3871,-1.3946,-1.4055,-1.4163,-1.4231,-1.4231,-1.4272,-1.4299,-1.4299,-1.4299,-1.4299,-1.4299,-1.4109,-1.3973,-1.3973,-1.3973,-1.3973,-1.3973,-1.3973,-1.3973,-1.3973,-1.3973,-1.3973,-1.3973,-1.4326,-1.4499,-1.4664,-1.5017,-1.5526,-1.6043,-1.6167,-1.6404,-1.1727,-1.1776,-1.1526,-1.0172,-1.0793,-1.1405,-1.0172,-1.0793,-1.1776,-1.1776,-1.1776,-1.189,-1.2239,-1.2312,-1.2426,-1.2783,-1.284,-1.2897,-1.3068,-1.3254,-1.3506,0.0,0.0,0.0,0.0,0.0,0.0,0.0,0.0,0.0,0.0,0.0,-1.4221,-1.4229,-1.4862,-1.4792,-1.3824,-1.4467,-1.4217,-1.3397,-1.1558,-1.0726,-1.0721,-0.8887,0.0,0.0,0.0,0.0,0.0,-0.8052,-0.8052,-0.7881,-0.6041,-0.5371,-0.5203,-0.3363,-0.2692,-0.3033,-0.4762,-0.6649,-0.8701,-1.0517,-1.2282,-1.3838,-1.3838,-1.3838,-1.3838,-1.3838,-1.3838,-1.3878,-1.4027,-1.3953,-1.3878,-1.4034,-1.4068,-1.4068,-1.4068,-1.4183,-1.4292,-1.4292,-1.417,-1.4068,-1.4075,-1.4075,-1.4075,-1.4075,-1.4204,-1.4299,-1.4299,-1.4299,-1.4299,-1.4299,-1.4299,-1.4292,-1.4292,-1.4292,-1.4292,-1.4292,-1.4292,-1.4292,-1.4292,-1.4292,-1.4292,-1.4292,-1.4292,-1.4469,-1.4992,-1.4992,-1.5513,-1.6393,-1.6393,-1.6577,-1.176,-1.1776,-1.1655,-1.1285,-1.1526,-1.1655,-1.1277,-1.1526,-1.1776,-1.1776,-1.1776,-1.1882,-1.2239,-1.2304,-1.2426,-1.2783,-1.284,-1.2938,-1.3238,-1.3336,-1.3506,-1.3855,-1.3881,0.0,0.0,0.0,0.0,0.0,0.0,0.0,0.0,0.0,0.0,-1.4723,-1.4777,-1.469,-1.4474,-1.3019,-1.2216,-1.1558,-0.9721,-0.8887,-0.8887,0.0,0.0,0.0,0.0,0.0,0.0,-0.6208,-0.5541,-0.4369,-0.3698,-0.3532,-0.3533,-0.2885,-0.2724,-0.2897,-0.4817,-0.5868,-0.6739,-0.8552,-0.9628,-1.0165,-1.0244,-1.1969,-1.4021,-1.4122,-1.4082,-1.4007,-1.4061,-1.4034,-1.4014,-1.4061,-1.4075,-1.4075,-1.4075,-1.4027,-1.3987,-1.3987,-1.4034,-1.4075,-1.4075,-1.4156,-1.4231,-1.4231,-1.4272,-1.4299,-1.4299,-1.4299,-1.4299,-1.4299,-1.4299,-1.4299,-1.4299,-1.4299,-1.4299,-1.4299,-1.4299,-1.4299,-1.4299,-1.4299,-1.4299,-1.4299,-1.4299,-1.4299,-1.4476,-1.4476,-1.4822,-1.5521,-1.6049,-1.6401,-1.1671,-1.1719,-1.1655,-1.1156,-1.1405,-1.1655,-1.1156,-1.1405,-1.1776,-1.1776,-1.1825,-1.1963,-1.2255,-1.2361,-1.2499,-1.2791,-1.284,-1.2962,-1.3319,-1.3368,0.0,-1.3762,0.0,0.0,0.0,0.0,0.0,0.0,0.0,0.0,0.0,0.0,0.0,-1.3739,-1.4237,-1.4281,-1.3542,-1.2044,-1.0882,-0.9721,-0.7881,-0.7045,-0.7045,0.0,0.0,0.0,0.0,0.0,0.0,-0.4367,-0.3698,-0.2692,-0.2692,-0.2699,-0.2712,-0.2731,-0.2746,-0.2932,-0.4005,-0.4891,-0.5771,-0.7064,-0.7795,-0.8513,-0.857,-1.0646,-1.321,-1.4008,-1.4143,-1.4075,-1.4075,-1.4075,-1.4075,-1.4075,-1.4075,-1.4075,-1.4075,-1.4041,-1.4014,-1.4014,-1.4095,-1.4156,-1.4156,-1.4238,-1.4299,-1.4299,-1.4299,-1.4299,-1.4299,-1.4299,-1.4299,-1.4299,-1.4299,-1.4299,-1.4299,-1.4299,-1.4299,-1.4299,-1.4299,-1.4299,-1.4299,-1.4299,-1.4299,-1.4299,-1.4299,-1.4299,-1.4299,-1.4476,-1.4646,-1.4992,-1.5697,-1.6225,0.0,-1.1622,-1.1511,-1.0172,-1.0906,-1.1526,-1.0172,-1.0921,0.0,-1.1792,-1.1931,-1.2109,-1.2288,-1.2458,-1.2621,-1.2808,-1.2848,-1.2978,-1.3319,-1.3401,-1.3544,0.0,-1.3687,0.0,0.0,0.0,0.0,0.0,0.0,0.0,0.0,0.0,0.0,0.0,-1.3376,-1.3376,-1.1208,-1.1042,-0.9878,-0.7718,-0.6041,-0.5203,-0.5203,0.0,0.0,0.0,0.0,0.0,0.0,-0.2692,-0.2694,-0.2695,-0.2695,-0.2714,-0.2742,-0.2743,-0.2762,-0.2791,-0.2821,-0.4065,-0.5483,-0.5538,-0.6803,-0.823,-0.8409,-0.9591,-1.1445,-1.3203,-1.3727,-1.3894,-1.3894,-1.4068,-1.4075,-1.4075,-1.4082,-1.4089,-1.4089,-1.4197,-1.4299,-1.4299,-1.4299,-1.4299,-1.4299,-1.4299,-1.4299,-1.4299,-1.4299,-1.4299,-1.4299,-1.4299,-1.4299,-1.4299,-1.4299,-1.4299,-1.4299,-1.4299,-1.4299,-1.4299,-1.4299,-1.4299,-1.4299,-1.4299,-1.4299,-1.4299,-1.4299,-1.4299,-1.4299,-1.4822,-1.4992,-1.4992,-1.5352,-1.5881,-1.1146,0.0,-1.1478,-1.0997,-1.1398,-1.1776,0.0,-1.163,-1.1971,-1.1971,-1.2117,-1.2296,-1.2475,-1.2274,-1.2232,-1.2676,-1.268,-1.2847,-1.3336,-1.3444,-1.3375,-1.2926,0.0,0.0,0.0,0.0,0.0,0.0,0.0,0.0,0.0,0.0,0.0,0.0,-1.1386,-1.0882,-0.9373,-0.7706,-0.654,-0.6041,-0.4201,-0.3363,0.0,0.0,0.0,0.0,0.0,0.0,0.0,-0.2692,-0.2706,-0.2727,-0.2727,-0.2746,-0.2776,-0.2799,-0.2812,-0.2822,-0.2853,-0.3221,-0.3578,-0.3587,-0.3949,-0.4485,-0.5912,-0.7684,-0.9264,-0.9796,-1.0796,-1.1958,-1.1958,-1.3016,-1.4075,-1.4075,-1.4163,-1.4245,-1.4245,-1.4278,-1.4299,-1.4299,-1.4299,-1.4299,-1.4299,-1.4299,-1.4299,-1.4299,-1.4299,-1.4299,-1.4299,-1.4299,-1.4299,-1.4299,-1.4299,-1.4299,-1.4299,-1.4299,-1.4299,-1.4299,-1.4299,-1.4299,-1.4299,-1.4299,-1.4299,-1.4299,-1.4299,-1.4299,-1.4299,-1.4476,-1.4476,-1.4476,-1.4999,-1.5168,-1.0621,-1.0898,-1.116,-1.1133,-1.1156,-1.1405,-1.1526,-1.1662,-1.1781,-1.1781,-1.1988,-1.2195,-1.2161,-1.198,-1.2065,-1.2289,-1.2319,-1.2543,-1.3284,-1.3434,-1.3326,-1.3042,0.0,0.0,0.0,0.0,0.0,0.0,0.0,0.0,0.0,0.0,0.0,0.0,0.0,-0.8716,-0.7205,-0.6038,-0.5036,-0.4201,-0.3195,-0.2692,0.0,0.0,0.0,0.0,0.0,0.0,-0.2694,-0.2707,-0.2722,-0.2739,-0.2754,-0.2777,-0.2806,-0.2822,-0.2837,-0.2852,-0.2868,-0.2874,-0.2874,-0.2874,-0.2874,-0.3053,-0.4126,-0.5199,-0.6264,-0.8006,-0.9721,-1.1259,-1.1259,-1.271,-1.4177,-1.4177,-1.4238,-1.4299,-1.4299,-1.4299,-1.4299,-1.4299,-1.4299,-1.4299,-1.4299,-1.4299,-1.4299,-1.4299,-1.4299,-1.4299,-1.4299,-1.4299,-1.4299,-1.4299,-1.4299,-1.4299,-1.4299,-1.4299,-1.4299,-1.4299,-1.4299,-1.4299,-1.4299,-1.4299,-1.4299,-1.4299,-1.4299,-1.4299,-1.4299,-1.4299,-1.4299,-1.4299,-1.4476,-1.4822,-1.0314,-1.0286,-1.0422,-1.0664,-1.0664,-1.055,-1.0815,-1.1072,-1.12,-1.123,-1.1606,-1.1827,-1.1568,-1.168,-1.1791,-1.1814,-1.1978,-1.2268,-1.3009,-1.3058,-1.3162,-1.3325,0.0,0.0,0.0,0.0,0.0,0.0,0.0,0.0,0.0,0.0,0.0,0.0,0.0,0.0,-0.5036,-0.5036,-0.4199,-0.2692,-0.2692,-0.2692,-0.2692,0.0,0.0,0.0,0.0,0.0,-0.2702,-0.2728,-0.2743,-0.2754,-0.278,-0.2808,-0.2836,-0.2836,-0.2852,-0.2874,-0.2874,-0.2874,-0.2874,-0.2874,-0.2874,-0.2874,-0.2874,-0.2874,-0.3583,-0.6728,-0.9176,-1.0755,-1.0755,-1.2601,-1.4299,-1.4299,-1.4299,-1.4299,-1.4299,-1.4299,-1.4299,-1.4299,-1.4299,-1.4299,-1.4299,-1.4299,-1.4299,-1.4299,-1.4299,-1.4299,-1.4299,-1.4299,-1.4299,-1.4299,-1.4299,-1.4299,-1.4299,-1.4299,-1.4299,-1.4299,-1.4299,-1.4299,-1.4299,-1.4299,-1.4299,-1.4299,-1.4299,-1.4299,-1.4299,-1.4299,-1.4299,-1.4299,-1.4299,-1.4476,-1.0066,-0.9239,-0.8714,-1.0058,-0.9687,-0.9098,-0.9218,-0.9481,-0.9621,-0.9742,-1.0816,-1.1871,-1.1739,-1.1497,-1.143,-1.1836,-1.2246,-1.2425,0.0,0.0,-1.2564,0.0,0.0,0.0,0.0,0.0,0.0,0.0,0.0,0.0,0.0,0.0,0.0,0.0,0.0,0.0,0.0,-0.3195,-0.3027,-0.2692,-0.2692,-0.2692,-0.2692,-0.2692,0.0,0.0,0.0,0.0,-0.2731,-0.2736,-0.2769,-0.2815,-0.2819,-0.284,-0.2867,-0.2867,-0.287,-0.2874,-0.2874,-0.2874,-0.2874,-0.2874,-0.2874,-0.2874,-0.2874,-0.2874,-0.3052,-0.3583,-0.6255,-0.8922,-0.8922,-1.1605,-1.4299,-1.4299,-1.4299,-1.4299,-1.4299,-1.4299,-1.4299,-1.4299,-1.4299,-1.4299,-1.4299,-1.4299,-1.4299,-1.4299,-1.4299,-1.4299,-1.4299,-1.4299,-1.4299,-1.4299,-1.4299,-1.4299,-1.4299,-1.4299,-1.4299,-1.4299,-1.4299,-1.4299,-1.4299,-1.4299,-1.4299,-1.4299,-1.4299,-1.4299,-1.4299,-1.4299,-1.4299,-1.4299,-1.4299,-1.4299,-0.9898,-0.8914,-0.8116,-0.8805,-0.8071,-0.7341,-0.7515,-0.779,-0.7935,-0.7987,-0.8618,-0.9099,-0.8967,-0.8756,-0.9002,-1.0304,0.0,-1.2338,0.0,0.0,0.0,0.0,0.0,0.0,0.0,0.0,0.0,0.0,0.0,0.0,0.0,0.0,0.0,0.0,0.0,0.0,0.0,-0.3195,-0.2692,-0.2692,-0.2692,-0.2692,-0.2692,-0.2692,-0.2702,0.0,0.0,-0.2735,-0.2763,-0.278,-0.2803,-0.283,-0.2846,-0.2861,-0.2874,-0.2874,-0.2874,-0.2874,-0.2874,-0.2874,-0.2874,-0.2874,-0.2874,-0.2874,-0.2874,-0.2874,-0.2874,-0.2874,-0.5733,-0.8587,-0.8587,-1.1438,-1.4299,-1.4299,-1.4299,-1.4299,-1.4299,-1.4299,-1.4299,-1.4299,-1.4299,-1.4299,-1.4299,-1.4299,-1.4299,-1.4299,-1.4299,-1.4299,-1.4299,-1.4299,-1.4299,-1.4299,-1.4299,-1.4299,-1.4299,-1.4299,-1.4299,-1.4299,-1.4299,-1.4299,-1.4299,-1.4299,-1.4299,-1.4299,-1.4299,-1.4299,-1.4299,-1.4299,-1.4299,-1.4299,-1.4299,-1.4299,-0.9693,-0.8551,-0.7357,-0.7346,-0.6393,-0.5541,-0.5831,-0.5941,-0.6177,-0.6197,-0.6519,-0.6702,-0.646,-0.683,-0.7654,-0.94,-1.0986,0.0,0.0,0.0,0.0,0.0,0.0,0.0,0.0,0.0,0.0,0.0,0.0,0.0,0.0,0.0,0.0,0.0,0.0,0.0,0.0,-0.3363,-0.2692,-0.2692,-0.2692,-0.2692,-0.2692,-0.2699,-0.2716,-0.2737,-0.2746,-0.2766,-0.2796,-0.2819,-0.2833,-0.2841,-0.2866,-0.2874,-0.2874,-0.2874,-0.2874,-0.2874,-0.2874,-0.2874,-0.2874,-0.2874,-0.2874,-0.2874,-0.2874,-0.2874,-0.2874,-0.2874,-0.5378,-0.8052,-0.8409,-1.1083,-1.3761,-1.4122,-1.4299,-1.4299,-1.4299,-1.4299,-1.4299,-1.4299,-1.4299,-1.4299,-1.4299,-1.4299,-1.4299,-1.4299,-1.4299,-1.4299,-1.4299,-1.4299,-1.4299,-1.4299,-1.4299,-1.4299,-1.4299,-1.4299,-1.4299,-1.4299,-1.4299,-1.4299,-1.4299,-1.4299,-1.4299,-1.4299,-1.4299,-1.4299,-1.4299,-1.4299,-1.4299,-1.4299,-1.4299,-1.4299,-0.9544,-0.7817,-0.5802,-0.5892,-0.4981,-0.4184,-0.4299,-0.4333,-0.449,-0.4414,-0.5496,-0.646,-0.6541,-0.7812,-0.9411,-1.1142,-1.1721,0.0,0.0,0.0,0.0,0.0,0.0,0.0,0.0,0.0,0.0,0.0,0.0,0.0,0.0,0.0,0.0,0.0,0.0,0.0,0.0,-0.2692,-0.2692,-0.2692,-0.2692,-0.2692,-0.2694,-0.2721,-0.2736,-0.274,-0.2767,-0.2797,-0.2826,-0.2827,-0.2845,-0.2871,-0.2874,-0.2874,-0.2874,-0.2874,-0.2874,-0.2874,-0.2874,-0.2874,-0.2874,-0.2874,-0.2874,-0.2874,-0.2874,-0.2874,-0.2874,-0.2874,-0.4305,-0.627,-0.8052,-1.0011,-1.1976,-1.3938,-1.4299,-1.4299,-1.4299,-1.4299,-1.4299,-1.4299,-1.4299,-1.4299,-1.4299,-1.4299,-1.4299,-1.4299,-1.4299,-1.4299,-1.4299,-1.4299,-1.4299,-1.4299,-1.4299,-1.4299,-1.4299,-1.4299,-1.4299,-1.4299,-1.4299,-1.4299,-1.4299,-1.4299,-1.4299,-1.4299,-1.4299,-1.4299,-1.4299,-1.4299,-1.4299,-1.4299,-1.4299,-1.4299,-0.8474,-0.6625,-0.4595,-0.4665,-0.3715,-0.2858,-0.289,-0.2918,-0.2948,-0.2989,-0.3405,-0.3837,-0.3925,-0.6129,-0.8102,-0.8795,0.0,0.0,0.0,0.0,0.0,0.0,0.0,0.0,0.0,0.0,0.0,0.0,0.0,0.0,0.0,0.0,0.0,0.0,0.0,0.0,0.0,0.0,-0.2702,-0.2721,-0.2721,-0.2721,-0.2721,-0.2752,-0.2776,-0.2795,-0.2807,-0.2829,-0.2857,-0.2857,-0.2863,-0.2874,-0.2874,-0.2874,-0.2874,-0.2874,-0.2874,-0.2874,-0.2874,-0.2874,-0.2874,-0.2874,-0.2874,-0.2874,-0.2874,-0.2874,-0.2874,-0.2874,-0.3411,-0.4662,-0.7874,-1.0011,-1.1976,-1.3761,-1.4299,-1.4299,-1.4299,-1.4299,-1.4299,-1.4299,-1.4299,-1.4299,-1.4299,-1.4299,-1.4299,-1.4299,-1.4299,-1.4299,-1.4299,-1.4299,-1.4299,-1.4299,-1.4299,-1.4299,-1.4299,-1.4299,-1.4299,-1.4299,-1.4299,-1.4299,-1.4299,-1.4299,-1.4299,-1.4299,-1.4299,-1.4299,-1.4299,-1.4299,-1.4299,-1.4299,-1.4299,-1.4299,-0.7286,-0.5679,-0.3894,-0.397,-0.2996,-0.2112,-0.2121,-0.2139,-0.2163,-0.2193,-0.2222,-0.2396,-0.3013,-0.495,0.0,0.0,0.0,0.0,0.0,0.0,0.0,0.0,0.0,0.0,0.0,0.0,0.0,0.0,0.0,0.0,0.0,0.0,0.0,0.0,0.0,0.0,0.0,-0.2706,-0.2722,-0.2752,-0.2762,-0.2762,-0.2754,-0.2784,-0.281,-0.2829,-0.2838,-0.2855,-0.2874,-0.2874,-0.2874,-0.2874,-0.2874,-0.2874,-0.2874,-0.2874,-0.2874,-0.2874,-0.2874,-0.2874,-0.2874,-0.2874,-0.2874,-0.2874,-0.2874,-0.2874,-0.2874,-0.2874,-0.2874,-0.3769,-0.7695,-0.9477,-1.1083,-1.3761,-1.4299,-1.4299,-1.4299,-1.4299,-1.4299,-1.4299,-1.4299,-1.4299,-1.4299,-1.4299,-1.4299,-1.4299,-1.4299,-1.4299,-1.4299,-1.4299,-1.4299,-1.4299,-1.4299,-1.4299,-1.4299,-1.4299,-1.4299,-1.4299,-1.4299,-1.4299,-1.4299,-1.4299,-1.4299,-1.4299,-1.4299,-1.4299,-1.4299,-1.4299,-1.4299,-1.4299,-1.4299,-1.4299,-0.6103,-0.4868,-0.3849,-0.3962,-0.2996,-0.2117,-0.2147,-0.2155,-0.2163,-0.2195,-0.2271,-0.277,-0.4369,-0.4758,0.0,0.0,0.0,0.0,0.0,0.0,0.0,0.0,0.0,0.0,0.0,0.0,0.0,0.0,0.0,0.0,0.0,0.0,0.0,0.0,0.0,0.0,0.0,-0.2737,-0.2754,-0.2784,-0.2814,-0.2812,-0.2785,-0.2815,-0.2829,-0.283,-0.2861,-0.2874,-0.2874,-0.2874,-0.2874,-0.2874,-0.2874,-0.2874,-0.2874,-0.2874,-0.2874,-0.2874,-0.2874,-0.2874,-0.2874,-0.2874,-0.2874,-0.2874,-0.2874,-0.2874,-0.2874,-0.2874,-0.2874,-0.3769,-0.7517,-0.8587,-0.9477,-1.3407,-1.4299,-1.4299,-1.4299,-1.4299,-1.4299,-1.4299,-1.4299,-1.4299,-1.4299,-1.4299,-1.4299,-1.4299,-1.4299,-1.4299,-1.4299,-1.4299,-1.4299,-1.4299,-1.4299,-1.4299,-1.4299,-1.4299,-1.4299,-1.4299,-1.4299,-1.4299,-1.4299,-1.4299,-1.4299,-1.4299,-1.4299,-1.4299,-1.4299,-1.4299,-1.4299,-1.4299,-1.4299,-1.4299,-0.4821,-0.3589,-0.2551,-0.2701,-0.2365,-0.2143,-0.2153,-0.2172,-0.2202,-0.2253,-0.2318,-0.2512,-0.2955,0.0,0.0,0.0,0.0,0.0,0.0,0.0,0.0,0.0,0.0,0.0,0.0,0.0,0.0,0.0,0.0,0.0,0.0,0.0,0.0,0.0,0.0,0.0,0.0,0.0,-0.2785,-0.2815,-0.2825,-0.2823,-0.2816,-0.2846,-0.286,-0.2861,-0.287,-0.2874,-0.2874,-0.2874,-0.2874,-0.2874,-0.2874,-0.2874,-0.2874,-0.2874,-0.2874,-0.2874,-0.2874,-0.2874,-0.2874,-0.2874,-0.2874,-0.2874,-0.2874,-0.2874,-0.2874,-0.2874,-0.2874,-0.3411,-0.5912,-0.7517,-0.9477,-1.3407,-1.4299,-1.4299,-1.4299,-1.4299,-1.4299,-1.4299,-1.4299,-1.4299,-1.4299,-1.4299,-1.4299,-1.4299,-1.4299,-1.4299,-1.4299,-1.4299,-1.4299,-1.4299,-1.4299,-1.4299,-1.4299,-1.4299,-1.4299,-1.4299,-1.4299,-1.4299,-1.4299,-1.4299,-1.4299,-1.4299,-1.4299,-1.4299,-1.4299,-1.4299,-1.4299,-1.4299,-1.4299,-1.4299,-0.348,-0.2605,-0.2064,-0.2064,-0.2109,-0.2161,-0.2185,-0.2204,-0.2232,-0.2281,-0.2348,-0.2397,-0.2397,0.0,0.0,0.0,0.0,0.0,0.0,0.0,0.0,0.0,0.0,0.0,0.0,0.0,0.0,0.0,0.0,0.0,0.0,0.0,0.0,0.0,0.0,0.0,0.0,0.0,0.0,-0.2846,-0.2846,-0.2846,-0.2846,-0.2866,-0.2874,-0.2874,-0.2874,-0.2874,-0.2874,-0.2874,-0.2874,-0.2874,-0.2874,-0.2874,-0.2874,-0.2874,-0.2874,-0.2874,-0.2874,-0.2874,-0.2874,-0.2874,-0.2874,-0.2874,-0.2874,-0.2874,-0.2874,-0.2874,-0.2874,-0.3411,-0.5199,-0.6627,-0.8409,-1.2154,-1.3761,-1.4299,-1.4299,-1.4299,-1.4299,-1.4299,-1.4299,-1.4299,-1.4299,-1.4299,-1.4299,-1.4299,-1.4299,-1.4299,-1.4299,-1.4299,-1.4299,-1.4299,-1.4299,-1.4299,-1.4299,-1.4299,-1.4299,-1.4299,-1.4299,-1.4299,-1.4299,-1.4299,-1.4299,-1.4299,-1.4299,-1.4299,-1.4299,-1.4299,-1.4299,-1.4299,-1.4299,-1.4299,-0.226,-0.1975,-0.2064,-0.2064,-0.2109,-0.217,-0.2232,-0.2245,-0.2255,-0.2292,0.0,-0.2424,0.0,0.0,0.0,0.0,0.0,0.0,0.0,0.0,0.0,0.0,0.0,0.0,0.0,0.0,0.0,0.0,0.0,0.0,0.0,0.0,0.0,0.0,0.0,0.0,0.0,0.0,0.0,0.0,-0.2874,-0.2874,-0.2874,-0.2874,-0.2874,-0.2874,-0.2874,-0.2874,-0.2874,-0.2874,-0.2874,-0.2874,-0.2874,-0.2874,-0.2874,-0.2874,-0.2874,-0.2874,-0.2874,-0.2874,-0.2874,-0.2874,-0.2874,-0.2874,-0.2874,-0.2874,-0.2874,-0.2874,-0.2874,-0.3233,-0.502,-0.5554,-0.6627,-1.0011,-1.2509,-1.4122,-1.4122,-1.4122,-1.4299,-1.4299,-1.4299,-1.4299,-1.4299,-1.4299,-1.4299,-1.4299,-1.4299,-1.4299,-1.4299,-1.4299,-1.4299,-1.4299,-1.4299,-1.4299,-1.4299,-1.4299,-1.4299,-1.4299,-1.4299,-1.4299,-1.4299,-1.4299,-1.4299,-1.4299,-1.4299,-1.4299,-1.4299,-1.4299,-1.4299,-1.4299,-1.4299,-1.4299,-0.2284,-0.1992,-0.2064,-0.2064,-0.2109,-0.217,-0.2232,-0.2245,-0.2267,-0.2343,-0.2394,0.0,0.0,0.0,0.0,0.0,0.0,0.0,0.0,0.0,0.0,0.0,0.0,0.0,0.0,0.0,0.0,0.0,0.0,0.0,0.0,0.0,0.0,0.0,0.0,0.0,-0.2864,-0.2864,-0.2867,0.0,-0.2874,-0.2874,-0.2874,-0.2874,-0.2874,-0.2874,-0.2874,-0.2874,-0.2874,-0.2874,-0.2874,-0.2874,-0.2874,-0.2874,-0.2874,-0.2874,-0.2874,-0.2874,-0.2874,-0.2874,-0.2874,-0.2874,-0.2874,-0.2874,-0.2874,-0.2874,-0.2874,-0.2874,-0.2874,-0.3053,-0.3411,-0.4664,-0.5912,-0.6803,-0.9477,-1.1976,-1.1976,-1.3224,-1.4299,-1.4299,-1.4299,-1.4299,-1.4299,-1.4299,-1.4299,-1.4299,-1.4299,-1.4299,-1.4299,-1.4299,-1.4299,-1.4299,-1.4299,-1.4299,-1.4299,-1.4299,-1.4299,-1.4299,-1.4299,-1.4299,-1.4299,-1.4299,-1.4299,-1.4299,-1.4299,-1.4299,-1.4299,-1.4299,-1.4299,-1.4299,-1.4299,-1.4299,-0.2051,-0.1996,-0.2071,-0.2101,-0.2131,-0.217,-0.2232,-0.2245,-0.2275,-0.2379,0.0,0.0,0.0,0.0,0.0,0.0,0.0,0.0,0.0,0.0,0.0,0.0,0.0,0.0,0.0,0.0,0.0,0.0,0.0,0.0,0.0,0.0,0.0,0.0,0.0,0.0,-0.2874,-0.2874,-0.2874,-0.2874,-0.2874,-0.2874,-0.2874,-0.2874,-0.2874,-0.2874,-0.2874,-0.2874,-0.2874,-0.2874,-0.2874,-0.2874,-0.2874,-0.2874,-0.2874,-0.2874,-0.2874,-0.2874,-0.2874,-0.2874,-0.2874,-0.2874,-0.2874,-0.2874,-0.2874,-0.2874,-0.2874,-0.2874,-0.2874,-0.2874,-0.2874,-0.359,-0.4305,-0.4305,-0.8052,-1.1438,-1.1438,-1.2869,-1.4299,-1.4299,-1.4299,-1.4299,-1.4299,-1.4299,-1.4299,-1.4299,-1.4299,-1.4299,-1.4299,-1.4299,-1.4299,-1.4299,-1.4299,-1.4299,-1.4299,-1.4299,-1.4299,-1.4299,-1.4299,-1.4299,-1.4299,-1.4299,-1.4299,-1.4299,-1.4299,-1.4299,-1.4299,-1.4299,-1.4299,-1.4299,-1.4299,-1.4299,-0.1934,-0.2,-0.2079,-0.2139,-0.2155,-0.217,-0.2232,-0.2245,-0.2279,-0.2399,0.0,0.0,0.0,0.0,0.0,0.0,0.0,0.0,0.0,0.0,0.0,0.0,0.0,0.0,0.0,0.0,0.0,0.0,0.0,0.0,0.0,0.0,0.0,0.0,0.0,-0.2874,-0.2874,-0.2874,-0.2874,-0.2874,-0.2874,-0.2874,-0.2874,-0.2874,-0.2874,-0.2874,-0.2874,-0.2874,-0.2874,-0.2874,-0.2874,-0.2874,-0.2874,-0.2874,-0.2874,-0.2874,-0.2874,-0.2874,-0.2874,-0.2874,-0.2874,-0.2874,-0.2874,-0.2874,-0.2874,-0.2874,-0.2874,-0.2874,-0.2874,-0.2874,-0.2874,-0.2874,-0.2874,-0.2874,-0.6803,-1.0545,-1.0905,-1.2509,-1.3938,-1.4299,-1.4299,-1.4299,-1.4299,-1.4299,-1.4299,-1.4299,-1.4299,-1.4299,-1.4299,-1.4299,-1.4299,-1.4299,-1.4299,-1.4299,-1.4299,-1.4299,-1.4299,-1.4299,-1.4299,-1.4299,-1.4299,-1.4299,-1.4299,-1.4299,-1.4299,-1.4299,-1.4299,-1.4299,-1.4299,-1.4299,-1.4299,-1.4299,-0.1949,-0.2016,-0.2079,-0.2139,-0.2155,-0.217,-0.2232,-0.2245,-0.2279,0.0,0.0,0.0,0.0,0.0,0.0,0.0,0.0,0.0,0.0,0.0,0.0,0.0,0.0,0.0,0.0,0.0,0.0,0.0,0.0,0.0,0.0,0.0,-0.2868,-0.2868,-0.2872,0.0,-0.2874,-0.2874,-0.2874,-0.2874,-0.2874,-0.2874,-0.2874,-0.2874,-0.2874,-0.2874,-0.2874,-0.2874,-0.2874,-0.2874,-0.2874,-0.2874,-0.2874,-0.2874,-0.2874,-0.2874,-0.2874,-0.2874,-0.2874,-0.2874,-0.2874,-0.2874,-0.2874,-0.2874,-0.2874,-0.2874,-0.2874,-0.2874,-0.2874,-0.2874,-0.2874,-0.2874,-0.2874,-0.2874,-0.4662,-0.6981,-0.8587,-1.055,-1.2331,-1.3938,-1.4299,-1.4299,-1.4299,-1.4299,-1.4299,-1.4299,-1.4299,-1.4299,-1.4299,-1.4299,-1.4299,-1.4299,-1.4299,-1.4299,-1.4299,-1.4299,-1.4299,-1.4299,-1.4299,-1.4299,-1.4299,-1.4299,-1.4299,-1.4299,-1.4299,-1.4299,-1.4299,-1.4299,-1.4299,-1.4299,-1.4299,-1.4299,-0.1971,-0.2031,-0.2079,-0.2139,-0.2155,-0.217,-0.2232,-0.2245,-0.2279,0.0,0.0,0.0,0.0,0.0,0.0,0.0,0.0,0.0,0.0,0.0,0.0,0.0,0.0,0.0,0.0,0.0,0.0,0.0,0.0,0.0,0.0,-0.2867,-0.2874,-0.2874,-0.2874,0.0,-0.2874,-0.2874,-0.2874,-0.2874,-0.2874,-0.2874,-0.2874,-0.2874,-0.2874,-0.2874,-0.2874,-0.2874,-0.2874,-0.2874,-0.2874,-0.2874,-0.2874,-0.2874,-0.2874,-0.2874,-0.2874,-0.2874,-0.2874,-0.2874,-0.2874,-0.2874,-0.2874,-0.2874,-0.2874,-0.2874,-0.2874,-0.2874,-0.2874,-0.2874,-0.2874,-0.2874,-0.2874,-0.2874,-0.359,-0.502,-0.7874,-1.0011,-1.1976,-1.3945,-1.4299,-1.4299,-1.4299,-1.4299,-1.4299,-1.4299,-1.4299,-1.4299,-1.4299,-1.4299,-1.4299,-1.4299,-1.4299,-1.4299,-1.4299,-1.4299,-1.4299,-1.4299,-1.4299,-1.4299,-1.4299,-1.4299,-1.4299,-1.4299,-1.4299,-1.4299,-1.4299,-1.4299,-1.4299,-1.4299,-1.4299,-1.4299,-0.197,-0.2023,-0.2067,-0.2128,-0.2148,-0.2169,-0.2222,0.0,0.0,0.0,0.0,0.0,0.0,0.0,0.0,0.0,0.0,0.0,0.0,0.0,0.0,0.0,0.0,0.0,0.0,0.0,0.0,0.0,0.0,0.0,-0.2872,-0.2874,-0.2874,-0.2874,-0.2874,-0.2874,-0.2874,-0.2874,-0.2874,-0.2874,-0.2874,-0.2874,-0.2874,-0.2874,-0.2874,-0.2874,-0.2874,-0.2874,-0.2874,-0.2874,-0.2874,-0.2874,-0.2874,-0.2874,-0.2874,-0.2874,-0.2874,-0.2874,-0.2874,-0.2874,-0.2874,-0.2874,-0.2874,-0.2874,-0.2874,-0.2874,-0.2874,-0.2874,-0.2874,-0.2874,-0.2874,-0.2874,-0.2874,-0.2874,-0.2874,-0.3769,-0.716,-1.0189,-1.2331,-1.3407,-1.3938,-1.4299,-1.4299,-1.4299,-1.4299,-1.4299,-1.4299,-1.4299,-1.4299,-1.4299,-1.4299,-1.4299,-1.4299,-1.4299,-1.4299,-1.4299,-1.4299,-1.4299,-1.4299,-1.4299,-1.4299,-1.4299,-1.4299,-1.4299,-1.4299,-1.4299,-1.4299,-1.4299,-1.4299,-1.4299,-1.4299,-1.4299,-0.1926,-0.1977,-0.2035,-0.2097,-0.2133,-0.2163,-0.2195,0.0,0.0,0.0,0.0,0.0,0.0,0.0,0.0,0.0,0.0,0.0,0.0,0.0,0.0,0.0,0.0,0.0,0.0,0.0,0.0,0.0,0.0,0.0,-0.2874,-0.2874,-0.2874,-0.2874,-0.2874,-0.2874,-0.2874,-0.2874,-0.2874,-0.2874,-0.2874,-0.2874,-0.2874,-0.2874,-0.2874,-0.2874,-0.2874,-0.2874,-0.2874,-0.2874,-0.2874,-0.2874,-0.2874,-0.2874,-0.2874,-0.2874,-0.2874,-0.2874,-0.2874,-0.2874,-0.2874,-0.2874,-0.2874,-0.2874,-0.2874,-0.2874,-0.2874,-0.2874,-0.2874,-0.2874,-0.2874,-0.2874,-0.2874,-0.2874,-0.2874,-0.3411,-0.5378,-1.0194,-1.3584,-1.1976,-1.3046,-1.4299,-1.4299,-1.4299,-1.4299,-1.4299,-1.4299,-1.4299,-1.4299,-1.4299,-1.4299,-1.4299,-1.4299,-1.4299,-1.4299,-1.4299,-1.4299,-1.4299,-1.4299,-1.4299,-1.4299,-1.4299,-1.4299,-1.4299,-1.4299,-1.4299,-1.4299,-1.4299,-1.4299,-1.4299,-1.4299,-1.4299,-0.1918,-0.196,-0.2011,-0.209,-0.2117,-0.2139,-0.2188,-0.2223,0.0,0.0,0.0,0.0,0.0,0.0,0.0,0.0,0.0,0.0,0.0,0.0,0.0,0.0,0.0,0.0,0.0,0.0,0.0,0.0,0.0,0.0,-0.2874,-0.2874,-0.2874,-0.2874,-0.2874,-0.2874,-0.2874,-0.2874,-0.2874,-0.2874,-0.2874,-0.2874,-0.2874,-0.2874,-0.2874,-0.2874,-0.2874,-0.2874,-0.2874,-0.2874,-0.2874,-0.2874,-0.2874,-0.2874,-0.2874,-0.2874,-0.2874,-0.2874,-0.2874,-0.2874,-0.2874,-0.2874,-0.2874,-0.2874,-0.2874,-0.2874,-0.2874,-0.2874,-0.2874,-0.2874,-0.2874,-0.2874,-0.2874,-0.2874,-0.3769,-0.4841,-0.5557,-1.0194,-1.3761,-1.1799,-1.3046,-1.4299,-1.4299,-1.4299,-1.4299,-1.4299,-1.4299,-1.4299,-1.4299,-1.4299,-1.4299,-1.4299,-1.4299,-1.4299,-1.4299,-1.4299,-1.4299,-1.4299,-1.4299,-1.4299,-1.4299,-1.4299,-1.4299,-1.4299,-1.4299,-1.4299,-1.4299,-1.4299,-1.4299,-1.4299,-1.4299,-1.4299,-0.1902,-0.1945,-0.1996,-0.2075,-0.2102,-0.2123,-0.2173,-0.2208,0.0,0.0,0.0,0.0,0.0,0.0,0.0,0.0,0.0,0.0,0.0,0.0,0.0,0.0,0.0,0.0,0.0,0.0,0.0,0.0,0.0,0.0,-0.2874,-0.2874,-0.2874,-0.2874,-0.2874,-0.2874,-0.2874,-0.2874,-0.2874,-0.2874,-0.2874,-0.2874,-0.2874,-0.2874,-0.2874,-0.2874,-0.2874,-0.2874,-0.2874,-0.2874,-0.2874,-0.2874,-0.2874,-0.2874,-0.2874,-0.2874,-0.2874,-0.2874,-0.2874,-0.2874,-0.2874,-0.2874,-0.2874,-0.2874,-0.2874,-0.2874,-0.2874,-0.2874,-0.2874,-0.2874,-0.2874,-0.2874,-0.2874,-0.2874,-0.4841,-0.6448,-0.5912,-0.9299,-1.2154,-1.1616,-1.2509,-1.3584,-1.4122,-1.4299,-1.4299,-1.4299,-1.4299,-1.4299,-1.4299,-1.4299,-1.4299,-1.4299,-1.4299,-1.4299,-1.4299,-1.4299,-1.4299,-1.4299,-1.4299,-1.4299,-1.4299,-1.4299,-1.4299,-1.4299,-1.4299,-1.4299,-1.4299,-1.4299,-1.4299,-1.4299,-1.4299,-1.4299,0.0,0.0,0.0,-0.2046,-0.2084,-0.2116,-0.2146,0.0,0.0,0.0,0.0,0.0,0.0,0.0,0.0,0.0,0.0,0.0,0.0,0.0,0.0,0.0,0.0,0.0,0.0,0.0,0.0,0.0,0.0,-0.2841,-0.2871,-0.2874,-0.2874,-0.2874,-0.2874,-0.2874,-0.2874,-0.2874,-0.2874,-0.2874,-0.2874,-0.2874,-0.2874,-0.2874,-0.2874,-0.2874,-0.2874,-0.2874,-0.2874,-0.2874,-0.2874,-0.2874,-0.2874,-0.2874,-0.2874,-0.2874,-0.2874,-0.2874,-0.2874,-0.2874,-0.2874,-0.2874,-0.2874,-0.2874,-0.2874,-0.2874,-0.2874,-0.2874,-0.2874,-0.2874,-0.2874,-0.2874,-0.2874,-0.2874,-0.5733,-0.8052,-0.627,-0.7338,-0.9121,-1.1083,-1.1438,-1.2154,-1.3938,-1.4299,-1.4299,-1.4299,-1.4299,-1.4299,-1.4299,-1.4299,-1.4299,-1.4299,-1.4299,-1.4299,-1.4299,-1.4299,-1.4299,-1.4299,-1.4299,-1.4299,-1.4299,-1.4299,-1.4299,-1.4299,-1.4299,-1.4299,-1.4299,-1.4299,-1.4299,-1.4299,-1.4299,-1.4299,-0.1844,0.0,0.0,0.0,0.0,0.0,0.0,0.0,0.0,0.0,0.0,0.0,0.0,0.0,0.0,0.0,0.0,0.0,0.0,0.0,0.0,0.0,0.0,0.0,0.0,0.0,0.0,0.0,0.0,-0.2833,-0.2841,-0.2861,-0.2874,-0.2874,-0.2874,-0.2874,-0.2874,-0.2874,-0.2874,-0.2874,-0.2874,-0.2874,-0.2874,-0.2874,-0.2874,-0.2874,-0.2874,-0.2874,-0.2874,-0.2874,-0.2874,-0.2874,-0.2874,-0.2874,-0.2874,-0.2874,-0.2874,-0.2874,-0.2874,-0.2874,-0.2874,-0.2874,-0.2874,-0.2874,-0.2874,-0.2874,-0.2874,-0.2874,-0.2874,-0.2874,-0.2874,-0.2874,-0.2874,-0.2874,-0.4662,-0.6803,-0.7695,-0.823,-0.9121,-1.1083,-1.2509,-1.3584,-1.4122,-1.4299,-1.4299,-1.4299,-1.4299,-1.4299,-1.4299,-1.4299,-1.4299,-1.4299,-1.4299,-1.4299,-1.4299,-1.4299,-1.4299,-1.4299,-1.4299,-1.4299,-1.4299,-1.4299,-1.4299,-1.4299,-1.4299,-1.4299,-1.4299,-1.4299,-1.4299,-1.4299,-1.4299,-1.4299,-0.1835,-0.1872,-0.1917,-0.1964,0.0,0.0,0.0,0.0,0.0,0.0,0.0,0.0,0.0,0.0,0.0,0.0,0.0,0.0,0.0,0.0,0.0,0.0,0.0,0.0,0.0,0.0,0.0,0.0,-0.277,-0.2801,-0.2827,-0.2857,-0.2874,-0.2874,-0.2874,-0.2874,-0.2874,-0.2874,-0.2874,-0.2874,-0.2874,-0.2874,-0.2874,-0.2874,-0.2874,-0.2874,-0.2874,-0.2874,-0.2874,-0.2874,-0.2874,-0.2874,-0.2874,-0.2874,-0.2874,-0.2874,-0.2874,-0.2874,-0.2874,-0.2874,-0.2874,-0.2874,-0.2874,-0.2874,-0.2874,-0.2874,-0.2874,-0.2874,-0.2874,-0.2874,-0.2874,-0.2874,-0.2874,-0.2874,-0.4305,-0.627,-0.823,-0.9299,-1.0011,-1.1261,-1.1616,-1.2154,-1.3046,-1.3046,-1.3407,-1.4122,-1.4299,-1.4299,-1.4299,-1.4299,-1.4299,-1.4299,-1.4299,-1.4299,-1.4299,-1.4299,-1.4299,-1.4299,-1.4299,-1.4299,-1.4299,-1.4299,-1.4299,-1.4299,-1.4299,-1.4299,-1.4299,-1.4299,-1.4299,-1.4299,-1.4299,-1.4299,-0.1844,-0.1885,-0.1933,0.0,0.0,0.0,0.0,0.0,0.0,0.0,0.0,0.0,0.0,0.0,0.0,0.0,0.0,0.0,0.0,0.0,0.0,0.0,0.0,0.0,0.0,0.0,0.0,-0.2731,-0.2736,-0.2765,-0.2826,-0.2855,-0.2871,-0.2874,-0.2874,-0.2874,-0.2874,-0.2874,-0.2874,-0.2874,-0.2874,-0.2874,-0.2874,-0.2874,-0.2874,-0.2874,-0.2874,-0.2874,-0.2874,-0.2874,-0.2874,-0.2874,-0.2874,-0.2874,-0.2874,-0.2874,-0.2874,-0.2874,-0.2874,-0.2874,-0.2874,-0.2874,-0.2874,-0.2874,-0.2874,-0.2874,-0.2874,-0.2874,-0.2874,-0.2874,-0.2874,-0.2874,-0.2874,-0.2874,-0.4305,-0.6091,-0.7874,-0.9833,-1.1083,-1.1083,-0.9833,-0.9477,-1.1438,-1.1616,-1.1976,-1.3945,-1.4299,-1.4299,-1.4299,-1.4299,-1.4299,-1.4299,-1.4299,-1.4299,-1.4299,-1.4299,-1.4299,-1.4299,-1.4299,-1.4299,-1.4299,-1.4299,-1.4299,-1.4299,-1.4299,-1.4299,-1.4299,-1.4299,-1.4299,-1.4299,-1.4299,-1.4299,0.0,0.0,0.0,0.0,0.0,0.0,0.0,0.0,0.0,0.0,0.0,0.0,0.0,0.0,0.0,0.0,0.0,0.0,0.0,0.0,0.0,0.0,0.0,0.0,0.0,0.0,-0.2669,-0.2699,-0.2724,-0.2765,-0.2826,-0.2834,-0.2849,-0.2874,-0.2874,-0.2874,-0.2874,-0.2874,-0.2874,-0.2874,-0.2874,-0.2874,-0.2874,-0.2874,-0.2874,-0.2874,-0.2874,-0.2874,-0.2874,-0.2874,-0.2874,-0.2874,-0.2874,-0.2874,-0.2874,-0.2874,-0.2874,-0.2874,-0.2874,-0.2874,-0.2874,-0.2874,-0.2874,-0.2874,-0.2874,-0.2874,-0.2874,-0.2874,-0.2874,-0.2874,-0.2874,-0.2874,-0.2874,-0.2874,-0.4305,-0.5733,-0.627,-0.7695,-0.9121,-0.9121,-1.0011,-1.1438,-1.3407,-1.2509,-1.1976,-1.3945,-1.4299,-1.4299,-1.4299,-1.4299,-1.4299,-1.4299,-1.4299,-1.4299,-1.4299,-1.4299,-1.4299,-1.4299,-1.4299,-1.4299,-1.4299,-1.4299,-1.4299,-1.4299,-1.4299,-1.4299,-1.4299,-1.4299,-1.4299,-1.4299,-1.4299,-1.4299,0.0,0.0,0.0,-0.1928,0.0,0.0,0.0,0.0,0.0,0.0,0.0,0.0,0.0,0.0,0.0,0.0,0.0,0.0,0.0,0.0,0.0,0.0,0.0,0.0,0.0,0.0,-0.266,-0.269,-0.2721,-0.2751,-0.2782,-0.2812,-0.2836,-0.2851,-0.2866,-0.2874,-0.2874,-0.2874,-0.2874,-0.2874,-0.2874,-0.2874,-0.2874,-0.2874,-0.2874,-0.2874,-0.2874,-0.2874,-0.2874,-0.2874,-0.2874,-0.2874,-0.2874,-0.2874,-0.2874,-0.2874,-0.2874,-0.2874,-0.2874,-0.2874,-0.2874,-0.2874,-0.2874,-0.2874,-0.2874,-0.2874,-0.2874,-0.2874,-0.2874,-0.2874,-0.2874,-0.2874,-0.2874,-0.2874,-0.359,-0.4485,-0.5554,-0.6448,-0.7695,-0.9655,-1.0011,-1.055,-1.2509,-1.1261,-1.0905,-1.3945,-1.4299,-1.4299,-1.4299,-1.4299,-1.4299,-1.4299,-1.4299,-1.4299,-1.4299,-1.4299,-1.4299,-1.4299,-1.4299,-1.4299,-1.4299,-1.4299,-1.4299,-1.4299,-1.4299,-1.4299,-1.4299,-1.4299,-1.4299,-1.4299,-1.4299,-1.4299,0.0,0.0,0.0,0.0,0.0,-0.2001,0.0,0.0,0.0,0.0,0.0,0.0,0.0,0.0,0.0,0.0,0.0,0.0,0.0,0.0,0.0,0.0,0.0,0.0,0.0,0.0,-0.2657,-0.2682,-0.2712,-0.2732,-0.2737,-0.2789,-0.2822,-0.2829,-0.2859,-0.2874,-0.2874,-0.2874,-0.2874,-0.2874,-0.2874,-0.2874,-0.2874,-0.2874,-0.2874,-0.2874,-0.2874,-0.2874,-0.2874,-0.2874,-0.2874,-0.2874,-0.2874,-0.2874,-0.2874,-0.2874,-0.2874,-0.2874,-0.2874,-0.2874,-0.2874,-0.2874,-0.2874,-0.2874,-0.2874,-0.2874,-0.2874,-0.2874,-0.2874,-0.2874,-0.2874,-0.2874,-0.2874,-0.2874,-0.2874,-0.3233,-0.4841,-0.5199,-0.627,-0.9655,-0.9121,-0.8943,-1.1438,-1.0372,-1.0372,-1.3761,-1.4299,-1.4299,-1.4299,-1.4299,-1.4299,-1.4299,-1.4299,-1.4299,-1.4299,-1.4299,-1.4299,-1.4299,-1.4299,-1.4299,-1.4299,-1.4299,-1.4299,-1.4299,-1.4299,-1.4299,-1.4299,-1.4299,-1.4299,-1.4299,-1.4299,-1.4299,0.0,0.0,0.0,0.0,-0.2052,0.0,0.0,0.0,0.0,0.0,0.0,0.0,0.0,0.0,0.0,0.0,0.0,0.0,0.0,0.0,0.0,0.0,0.0,0.0,0.0,0.0,0.0,-0.2652,-0.268,-0.2709,-0.2736,-0.277,-0.28,-0.2827,-0.2859,-0.2874,-0.2874,-0.2874,-0.2874,-0.2874,-0.2874,-0.2874,-0.2874,-0.2874,-0.2874,-0.2874,-0.2874,-0.2874,-0.2874,-0.2874,-0.2874,-0.2874,-0.2874,-0.2874,-0.2874,-0.2874,-0.2874,-0.2874,-0.2874,-0.2874,-0.2874,-0.2874,-0.2874,-0.2874,-0.2874,-0.2874,-0.2874,-0.2874,-0.2874,-0.2874,-0.2874,-0.2874,-0.2874,-0.2874,-0.2874,-0.2874,-0.3233,-0.3233,-0.3769,-0.5912,-0.6091,-0.7695,-1.3046,-1.2331,-1.1799,-1.3945,-1.4299,-1.4299,-1.4299,-1.4299,-1.4299,-1.4299,-1.4299,-1.4299,-1.4299,-1.4299,-1.4299,-1.4299,-1.4299,-1.4299,-1.4299,-1.4299,-1.4299,-1.4299,-1.4299,-1.4299,-1.4299,-1.4299,-1.4299,-1.4299,-1.4299,-1.4299,0.0,0.0,0.0,0.0,0.0,0.0,-0.208,0.0,-0.2113,0.0,0.0,0.0,0.0,0.0,0.0,0.0,0.0,0.0,0.0,0.0,0.0,0.0,0.0,0.0,0.0,0.0,0.0,0.0,0.0,-0.2679,-0.271,-0.274,-0.2772,-0.2801,-0.2831,-0.2856,-0.2874,-0.2874,-0.2874,-0.2874,-0.2874,-0.2874,-0.2874,-0.2874,-0.2874,-0.2874,-0.2874,-0.2874,-0.2874,-0.2874,-0.2874,-0.2874,-0.2874,-0.2874,-0.2874,-0.2874,-0.2874,-0.2874,-0.2874,-0.2874,-0.2874,-0.2874,-0.2874,-0.2874,-0.2874,-0.2874,-0.2874,-0.2874,-0.2874,-0.2874,-0.2874,-0.2874,-0.2874,-0.2874,-0.2874,-0.2874,-0.2874,-0.2874,-0.3411,-0.5378,-0.6627,-0.8409,-1.1976,-1.1976,-1.1976,-1.3945,-1.4299,-1.4299,-1.4299,-1.4299,-1.4299,-1.4299,-1.4299,-1.4299,-1.4299,-1.4299,-1.4299,-1.4299,-1.4299,-1.4299,-1.4299,-1.4299,-1.4299,-1.4299,-1.4299,-1.4299,-1.4299,-1.4299,-1.4299,-1.4299,-1.4299,-1.4299,-0.2109,0.0,0.0,0.0,0.0,0.0,0.0,0.0,0.0,0.0,0.0,0.0,0.0,0.0,0.0,0.0,0.0,0.0,0.0,0.0,0.0,0.0,0.0,0.0,0.0,0.0,0.0,0.0,0.0,0.0,-0.2679,-0.2717,-0.2751,-0.2782,-0.2812,-0.2844,-0.2874,-0.2874,-0.2874,-0.2874,-0.2874,-0.2874,-0.2874,-0.2874,-0.2874,-0.2874,-0.2874,-0.2874,-0.2874,-0.2874,-0.2874,-0.2874,-0.2874,-0.2874,-0.2874,-0.2874,-0.2874,-0.2874,-0.2874,-0.2874,-0.2874,-0.2874,-0.2874,-0.2874,-0.2874,-0.2874,-0.2874,-0.2874,-0.2874,-0.2874,-0.2874,-0.2874,-0.2874,-0.2874,-0.2874,-0.2874,-0.2874,-0.2874,-0.3233,-0.4662,-0.6448,-0.8409,-1.0372,-1.1438,-1.2692,-1.4122,-1.4299,-1.4299,-1.4299,-1.4299,-1.4299,-1.4299,-1.4299,-1.4299,-1.4299,-1.4299,-1.4299,-1.4299,-1.4299,-1.4299,-1.4299,-1.4299,-1.4299,-1.4299,-1.4299,-1.4299,-1.4299,-1.4299,-1.4299,-1.4299,-1.4299,-1.4299,0.0,0.0,0.0,-0.2159,0.0,0.0,0.0,0.0,-0.2153,0.0,0.0,0.0,0.0,0.0,0.0,0.0,0.0,0.0,0.0,0.0,0.0,0.0,0.0,0.0,0.0,0.0,0.0,0.0,0.0,0.0,-0.2649,-0.2705,-0.2751,-0.2782,-0.2812,-0.2844,-0.2874,-0.2874,-0.2874,-0.2874,-0.2874,-0.2874,-0.2874,-0.2874,-0.2874,-0.2874,-0.2874,-0.2874,-0.2874,-0.2874,-0.2874,-0.2874,-0.2874,-0.2874,-0.2874,-0.2874,-0.2874,-0.2874,-0.2874,-0.2874,-0.2874,-0.2874,-0.2874,-0.2874,-0.2874,-0.2874,-0.2874,-0.2874,-0.2874,-0.2874,-0.2874,-0.2874,-0.2874,-0.2874,-0.2874,-0.2874,-0.2874,-0.2874,-0.2874,-0.3053,-0.4485,-0.6448,-0.8409,-1.1799,-1.4299,-1.4299,-1.4299,-1.4299,-1.4299,-1.4299,-1.4299,-1.4299,-1.4299,-1.4299,-1.4299,-1.4299,-1.4299,-1.4299,-1.4299,-1.4299,-1.4299,-1.4299,-1.4299,-1.4299,-1.4299,-1.4299,-1.4299,-1.4299,-1.4299,-1.4299,-1.4299,-1.4299,0.0,0.0,-0.2228,-0.2217,0.0,0.0,0.0,0.0,0.0,0.0,0.0,0.0,0.0,0.0,-0.2241,-0.2232,0.0,0.0,0.0,0.0,0.0,0.0,0.0,0.0,0.0,0.0,0.0,0.0,0.0,0.0,0.0,-0.2667,-0.2701,-0.2751,-0.2782,-0.2814,-0.2844,-0.2864,-0.2874,-0.2874,-0.2874,-0.2874,-0.2874,-0.2874,-0.2874,-0.2874,-0.2874,-0.2874,-0.2874,-0.2874,-0.2874,-0.2874,-0.2874,-0.2874,-0.2874,-0.2874,-0.2874,-0.2874,-0.2874,-0.2874,-0.2874,-0.2874,-0.2874,-0.2874,-0.2874,-0.2874,-0.2874,-0.2874,-0.2874,-0.2874,-0.2874,-0.2874,-0.2874,-0.2874,-0.2874,-0.2874,-0.2874,-0.2874,-0.2874,-0.2874,-0.4485,-0.5912,-0.6627,-0.9833,-1.2869,-1.4122,-1.4299,-1.4299,-1.4299,-1.4299,-1.4299,-1.4299,-1.4299,-1.4299,-1.4299,-1.4299,-1.4299,-1.4299,-1.4299,-1.4299,-1.4299,-1.4299,-1.4299,-1.4299,-1.4299,-1.4299,-1.4299,-1.4299,-1.4299,-1.4299,-1.4299,-1.4299,-0.2296,-0.2285,0.0,0.0,-0.2238,0.0,-0.2217,0.0,0.0,0.0,0.0,0.0,0.0,0.0,0.0,-0.2259,-0.2292,0.0,0.0,-0.2297,0.0,0.0,0.0,0.0,0.0,0.0,0.0,0.0,0.0,0.0,0.0,0.0,-0.2675,-0.2736,-0.2767,-0.2797,-0.2829,-0.2859,-0.2874,-0.2874,-0.2874,-0.2874,-0.2874,-0.2874,-0.2874,-0.2874,-0.2874,-0.2874,-0.2874,-0.2874,-0.2874,-0.2874,-0.2874,-0.2874,-0.2874,-0.2874,-0.2874,-0.2874,-0.2874,-0.2874,-0.2874,-0.2874,-0.2874,-0.2874,-0.2874,-0.2874,-0.2874,-0.2874,-0.2874,-0.2874,-0.2874,-0.2874,-0.2874,-0.2874,-0.2874,-0.2874,-0.2874,-0.2874,-0.2874,-0.2874,-0.3949,-0.4841,-0.5554,-0.7695,-1.0189,-1.2869,-1.3945,-1.4299,-1.4299,-1.4299,-1.4299,-1.4299,-1.4299,-1.4299,-1.4299,-1.4299,-1.4299,-1.4299,-1.4299,-1.4299,-1.4299,-1.4299,-1.4272,-1.4217,-1.4272,-1.4272,-1.4217,-1.4272,-1.4299,-1.4299,-1.4299,-1.4299]}]]